[[{"header":{"parameterUnit":"m.s-1","parameterCategory":1,"la1":30.6,"la2":28.766,"lo1":-90.7593,"lo2":-88.6598,"dy":0.0162,"dx":0.0183,"nx":116,"ny":114,"refTime":"2024-05-17T12:00:00:Z","depth":0,"parameterNumber":2,"parameterNumberName":"U-component_of_WINDS"},"data":[0.0,0.0,0.0,0.0,0.0,0.0,0.0,0.0,0.0,0.0,0.0,0.0,0.0,0.0,0.0,0.0,0.0,0.0,0.0,0.0,0.0,0.0,0.0,0.0,0.0,0.0,0.0,0.0,0.0,0.0,0.0,0.0,0.0,0.0,0.0,0.0,0.0,0.0,0.0,0.0,0.0,0.0,0.0,0.0,0.0,0.0,0.0,0.0,0.0,0.0,0.0,0.0,0.0,0.0,0.0,0.0,0.0,0.0,0.0,0.0,0.0,0.0,0.0,0.0,0.0,0.0,0.0,0.0,0.0,0.0,0.0,0.0,0.0,0.0,0.0,0.0,0.0,0.0,0.0,0.0,0.0,0.0,0.0,0.0,0.0,0.0,0.0,0.0,0.0,0.0,0.0,0.0,0.0,0.0,0.0,0.0,0.0,0.0,0.0,0.0,0.0,0.0,0.0,0.0,0.0,0.0,0.0,0.0,0.0,0.0,0.0,0.0,0.0,0.0,0.0,0.0,0.0,0.0,0.0,0.0,0.0,0.0,0.0,0.0,0.0,0.0,0.0,0.0,0.0,0.0,0.0,0.0,0.0,0.0,0.0,0.0,0.0,0.0,0.0,0.0,0.0,0.0,0.0,0.0,0.0,0.0,0.0,0.0,0.0,0.0,0.0,0.0,0.0,0.0,0.0,0.0,0.0,0.0,0.0,0.0,0.0,0.0,0.0,0.0,0.0,0.0,0.0,0.0,0.0,0.0,0.0,0.0,0.0,0.0,0.0,0.0,0.0,0.0,0.0,0.0,0.0,0.0,0.0,0.0,0.0,0.0,0.0,0.0,0.0,0.0,0.0,0.0,0.0,0.0,0.0,0.0,0.0,0.0,0.0,0.0,0.0,0.0,0.0,0.0,0.0,0.0,0.0,0.0,0.0,0.0,0.0,0.0,0.0,0.0,0.0,0.0,0.0,0.0,0.0,0.0,0.0,0.0,0.0,0.0,0.0,0.0,0.0,0.0,0.0,0.0,0.0,0.0,0.0,0.0,0.0,0.0,0.0,0.0,0.0,0.0,0.0,0.0,0.0,0.0,0.0,0.0,0.0,0.0,0.0,0.0,0.0,0.0,0.0,0.0,0.0,0.0,0.0,0.0,0.0,0.0,0.0,0.0,0.0,0.0,0.0,0.0,0.0,0.0,0.0,0.0,0.0,0.0,0.0,0.0,0.0,0.0,0.0,0.0,0.0,0.0,0.0,0.0,0.0,0.0,0.0,0.0,0.0,0.0,0.0,0.0,0.0,0.0,0.0,0.0,0.0,0.0,0.0,0.0,0.0,0.0,0.0,0.0,0.0,0.0,0.0,0.0,0.0,0.0,0.0,0.0,0.0,0.0,0.0,0.0,0.0,0.0,0.0,0.0,0.0,0.0,0.0,0.0,0.0,0.0,0.0,0.0,0.0,0.0,0.0,0.0,0.0,0.0,0.0,0.0,0.0,0.0,0.0,0.0,0.0,0.0,0.0,0.0,0.0,0.0,0.0,0.0,0.0,0.0,0.0,0.0,0.0,0.0,0.0,0.0,0.0,0.0,0.0,0.0,0.0,0.0,0.0,0.0,0.0,0.0,0.0,0.0,0.0,0.0,0.0,0.0,0.0,0.0,0.0,0.0,0.0,0.0,0.0,0.0,0.0,0.0,0.0,0.0,0.0,0.0,0.0,0.0,0.0,0.0,0.0,0.0,0.0,0.0,0.0,0.0,0.0,0.0,0.0,0.0,0.0,0.0,0.0,0.0,0.0,0.0,0.0,0.0,0.0,0.0,0.0,0.0,0.0,0.0,0.0,0.0,0.0,0.0,0.0,0.0,0.0,0.0,0.0,0.0,0.0,0.0,0.0,0.0,0.0,0.0,0.0,0.0,0.0,0.0,0.0,0.0,0.0,0.0,0.0,0.0,0.0,0.0,0.0,0.0,0.0,0.0,0.0,0.0,0.0,0.0,0.0,0.0,0.0,0.0,0.0,0.0,0.0,0.0,0.0,0.0,0.0,0.0,0.0,0.0,0.0,0.0,0.0,0.0,0.0,0.0,0.0,0.0,0.0,0.0,0.0,0.0,0.0,0.0,0.0,0.0,0.0,0.0,0.0,0.0,0.0,0.0,0.0,0.0,0.0,0.0,0.0,0.0,0.0,0.0,0.0,0.0,0.0,0.0,0.0,0.0,0.0,0.0,0.0,0.0,0.0,0.0,0.0,0.0,0.0,0.0,0.0,0.0,0.0,0.0,0.0,0.0,0.0,0.0,0.0,0.0,0.0,0.0,0.0,0.0,0.0,0.0,0.0,0.0,0.0,0.0,0.0,0.0,0.0,0.0,0.0,0.0,0.0,0.0,0.0,0.0,0.0,0.0,0.0,0.0,0.0,0.0,0.0,0.0,0.0,0.0,0.0,0.0,0.0,0.0,0.0,0.0,0.0,0.0,0.0,0.0,0.0,0.0,0.0,0.0,0.0,0.0,0.0,0.0,0.0,0.0,0.0,0.0,0.0,0.0,0.0,0.0,0.0,0.0,0.0,0.0,0.0,0.0,0.0,0.0,0.0,0.0,0.0,0.0,0.0,0.0,0.0,0.0,0.0,0.0,0.0,0.0,0.0,0.0,0.0,0.0,0.0,0.0,0.0,0.0,0.0,0.0,0.0,0.0,0.0,0.0,0.0,0.0,0.0,0.0,0.0,0.0,0.0,0.0,0.0,0.0,0.0,0.0,0.0,0.0,0.0,0.0,0.0,0.0,0.0,0.0,0.0,0.0,0.0,0.0,0.0,0.0,0.0,0.0,0.0,0.0,0.0,0.0,0.0,0.0,0.0,0.0,0.0,0.0,0.0,0.0,0.0,0.0,0.0,0.0,0.0,0.0,0.0,0.0,0.0,0.0,0.0,0.0,0.0,0.0,0.0,0.0,0.0,0.0,0.0,0.0,0.0,0.0,0.0,0.0,0.0,0.0,0.0,0.0,0.0,0.0,0.0,0.0,0.0,0.0,0.0,0.0,0.0,0.0,0.0,0.0,0.0,0.0,0.0,0.0,0.0,0.0,0.0,0.0,0.0,0.0,0.0,0.0,0.0,0.0,0.0,0.0,0.0,0.0,0.0,0.0,0.0,0.0,0.0,0.0,0.0,0.0,0.0,0.0,0.0,0.0,0.0,0.0,0.0,0.0,0.0,0.0,0.0,0.0,0.0,0.0,0.0,0.0,0.0,0.0,0.0,0.0,0.0,0.0,0.0,0.0,0.0,0.0,0.0,0.0,0.0,0.0,0.0,0.0,0.0,0.0,0.0,0.0,0.0,0.0,0.0,0.0,0.0,0.0,0.0,0.0,0.0,0.0,0.0,0.0,0.0,0.0,0.0,0.0,0.0,0.0,0.0,0.0,0.0,0.0,0.0,0.0,0.0,0.0,0.0,0.0,0.0,0.0,0.0,0.0,0.0,0.0,0.0,0.0,0.0,0.0,0.0,0.0,0.0,0.0,0.0,0.0,0.0,0.0,0.0,0.0,0.0,0.0,0.0,0.0,0.0,0.0,0.0,0.0,0.0,0.0,0.0,0.0,0.0,0.0,0.0,0.0,0.0,0.0,0.0,0.0,0.0,0.0,0.0,0.0,0.0,0.0,0.0,0.0,0.0,0.0,0.0,0.0,0.0,0.0,0.0,0.0,0.0,0.0,0.0,0.0,0.0,0.0,0.0,0.0,0.0,0.0,0.0,0.0,0.0,0.0,0.0,0.0,0.0,0.0,0.0,0.0,0.0,0.0,0.0,0.0,0.0,0.0,0.0,0.0,0.0,0.0,0.0,0.0,0.0,0.0,0.0,0.0,0.0,0.0,0.0,0.0,0.0,0.0,0.0,0.0,0.0,0.0,0.0,0.0,0.0,0.0,0.0,0.0,0.0,0.0,0.0,0.0,0.0,0.0,0.0,0.0,0.0,0.0,0.0,0.0,0.0,0.0,0.0,0.0,0.0,0.0,0.0,0.0,0.0,0.0,0.0,0.0,0.0,0.0,0.0,0.0,0.0,0.0,0.0,0.0,0.0,0.0,0.0,0.0,0.0,0.0,0.0,0.0,0.0,0.0,0.0,0.0,0.0,0.0,0.0,0.0,0.0,0.0,0.0,0.0,0.0,0.0,0.0,0.0,0.0,0.0,0.0,0.0,0.0,0.0,0.0,0.0,0.0,0.0,0.0,0.0,0.0,0.0,0.0,0.0,0.0,0.0,0.0,0.0,0.0,0.0,0.0,0.0,0.0,0.0,0.0,0.0,0.0,0.0,0.0,0.0,0.0,0.0,0.0,0.0,0.0,0.0,0.0,0.0,0.0,0.0,0.0,0.0,0.0,0.0,0.0,0.0,0.0,0.0,0.0,0.0,0.0,0.0,0.0,0.0,0.0,0.0,0.0,0.0,0.0,0.0,0.0,0.0,0.0,0.0,0.0,0.0,0.0,0.0,0.0,0.0,0.0,0.0,0.0,0.0,0.0,0.0,0.0,0.0,0.0,0.0,0.0,0.0,0.0,0.0,0.0,0.0,0.0,0.0,0.0,0.0,0.0,0.0,0.0,0.0,0.0,0.0,0.0,0.0,0.0,0.0,0.0,0.0,0.0,0.0,0.0,0.0,0.0,0.0,0.0,0.0,0.0,0.0,0.0,0.0,0.0,0.0,0.0,0.0,0.0,0.0,0.0,0.0,0.0,0.0,0.0,0.0,0.0,0.0,0.0,0.0,0.0,0.0,0.0,0.0,0.0,0.0,0.0,0.0,0.0,0.0,0.0,0.0,0.0,0.0,0.0,0.0,0.0,0.0,0.0,0.0,0.0,0.0,0.0,0.0,0.0,0.0,0.0,0.0,0.0,0.0,0.0,0.0,0.0,0.0,0.0,0.0,0.0,0.0,0.0,0.0,0.0,0.0,0.0,0.0,0.0,0.0,0.0,0.0,0.0,0.0,0.0,0.0,0.0,0.0,0.0,0.0,0.0,0.0,0.0,0.0,0.0,0.0,0.0,0.0,0.0,0.0,0.0,0.0,0.0,0.0,0.0,0.0,0.0,0.0,0.0,0.0,0.0,0.0,0.0,0.0,0.0,0.0,0.0,0.0,0.0,0.0,0.0,0.0,0.0,0.0,0.0,0.0,0.0,0.0,0.0,0.0,0.0,0.0,0.0,0.0,0.0,0.0,0.0,0.0,0.0,0.0,0.0,0.0,0.0,0.0,0.0,0.0,0.0,0.0,0.0,0.0,0.0,0.0,0.0,0.0,0.0,0.0,0.0,0.0,0.0,0.0,0.0,0.0,0.0,0.0,0.0,0.0,0.0,0.0,0.0,0.0,0.0,0.0,0.0,0.0,0.0,0.0,0.0,0.0,0.0,0.0,0.0,0.0,0.0,0.0,0.0,0.0,0.0,0.0,0.0,0.0,0.0,0.0,0.0,0.0,0.0,0.0,0.0,0.0,0.0,0.0,0.0,0.0,0.0,0.0,0.0,0.0,0.0,0.0,0.0,0.0,0.0,0.0,0.0,0.0,0.0,0.0,0.0,0.0,0.0,0.0,0.0,0.0,0.0,0.0,0.0,0.0,0.0,0.0,0.0,0.0,0.0,0.0,0.0,0.0,0.0,0.0,0.0,0.0,0.0,0.0,0.0,0.0,0.0,0.0,0.0,0.0,0.0,0.0,0.0,0.0,0.0,0.0,0.0,0.0,0.0,0.0,0.0,0.0,0.0,0.0,0.0,0.0,0.0,0.0,0.0,0.0,0.0,0.0,0.0,0.0,0.0,0.0,0.0,0.0,0.0,0.0,0.0,0.0,0.0,0.0,0.0,0.0,0.0,0.0,0.0,0.0,0.0,0.0,0.0,0.0,0.0,0.0,0.0,0.0,0.0,0.0,0.0,0.0,0.0,0.0,0.0,0.0,0.0,0.0,0.0,0.0,0.0,0.0,0.0,0.0,0.0,0.0,0.0,0.0,0.0,0.0,0.0,0.0,0.0,0.0,0.0,0.0,0.0,0.0,0.0,0.0,0.0,0.0,0.0,0.0,0.0,0.0,0.0,0.0,0.0,0.0,0.0,0.0,0.0,0.0,0.7384,0.0,0.0,0.0,0.0,0.0,0.0,0.0,0.0,0.0,0.0,0.0,0.0,0.0,0.0,0.0,0.0,0.0,0.0,0.0,0.0,0.0,0.0,0.0,0.0,0.6914,0.7557,0.7679,0.765,0.768,0.7839,0.0,0.0,0.0,0.0,0.0,0.7141,0.7141,0.7286,0.7606,0.7925,0.8387,0.8996,0.9002,0.8663,0.8079,0.0,0.0,0.0,0.0,0.0,0.0,0.0,0.0,0.0,0.0,0.0,0.0,0.0,0.0,0.0,0.0,0.0,0.0,0.0,0.0,0.0,0.0,0.0,0.0,0.0,0.0,0.0,0.0,0.0,0.0,0.0,0.0,0.0,0.0,0.0,0.0,0.0,0.0,0.0,0.0,0.0,0.0,0.0,0.0,0.0,0.0,0.0,0.0,0.0,0.0,0.0,0.0,0.0,0.0,0.0,0.0,0.0,0.0,0.0,0.0,0.0,0.0,0.0,0.0,0.0,0.0,0.0,0.0,0.0,0.0,0.0,0.8189,0.0,0.0,0.0,0.0,0.0,0.0,0.0,0.0,0.0,0.0,0.0,0.0,0.0,0.0,0.0,0.0,0.0,0.0,0.0,0.0,0.0,0.594,0.6422,0.7083,0.7528,0.7635,0.7545,0.7545,0.7665,0.756,0.0,0.0,0.0,0.7603,0.7589,0.7605,0.7924,0.8595,0.8828,0.958,1.0821,1.0836,1.0637,1.0233,0.9447,0.0,0.0,0.0,0.0,0.0,0.0,0.0,0.0,0.0,0.0,0.0,0.0,0.0,0.0,0.0,0.0,0.0,0.0,0.0,0.0,0.0,0.0,0.0,0.0,0.0,0.0,0.0,0.0,0.0,0.0,0.0,0.0,0.0,0.0,0.0,0.0,0.0,0.0,0.0,0.0,0.0,0.0,0.0,0.0,0.0,0.0,0.0,0.0,0.0,0.0,0.0,0.0,0.0,0.0,0.0,0.0,0.0,0.0,0.0,0.0,0.0,0.0,0.0,1.1214,1.1044,1.0897,1.0756,1.0894,1.1226,1.0123,0.976,0.9874,0.8885,0.0,0.0,0.0,0.0,0.0,0.0,0.0,0.0,0.0,0.0,0.0,0.0,0.0,0.0,0.0,0.0,0.0,0.0,0.0,0.6366,0.6339,0.6966,0.7407,0.7438,0.7422,0.7452,0.7527,0.7511,0.0,0.0,0.7573,0.7602,0.7602,0.7604,0.7924,0.8595,0.971,1.0893,1.2139,1.2153,1.2414,1.2862,1.1648,1.1113,1.1048,0.0,0.0,0.0,0.0,0.0,0.0,0.0,0.0,0.0,0.0,0.0,0.0,0.0,0.0,0.0,0.0,0.0,0.0,0.0,0.0,0.0,0.0,0.0,0.0,0.0,0.0,0.0,0.0,0.0,0.0,0.0,0.0,0.0,0.0,0.0,0.0,0.0,0.0,0.0,0.0,0.0,0.7038,0.7518,0.0,0.0,0.0,0.0,0.0,0.0,0.0,0.0,0.0,0.0,0.0,0.0,0.0,0.9587,1.0863,1.184,1.2348,1.2416,1.2475,1.2511,1.2494,1.2369,1.2324,1.2375,1.2432,0.0,1.0136,0.9996,0.0,0.0,0.0,0.0,0.0,0.0,0.0,0.0,0.0,0.0,0.0,0.0,0.0,0.0,0.0,0.0,0.0,0.0,0.0,0.0,0.0,0.7416,0.7857,0.7857,0.8233,0.8324,0.7971,0.7943,0.7804,0.7511,0.7527,0.7556,0.7602,0.7903,0.8734,1.0132,1.1765,1.3058,1.3995,1.435,1.4876,1.5504,1.4953,1.3695,1.1916,1.0648,0.0,0.0,0.0,0.0,0.0,0.0,0.0,0.0,0.0,0.0,0.0,0.0,0.0,0.0,0.0,0.0,0.0,0.0,0.0,0.0,0.0,0.0,0.0,0.0,0.0,0.0,0.0,0.0,0.0,0.0,0.0,0.0,0.0,0.0,0.0,0.0,0.0,0.0,0.0,0.7762,0.8562,0.8945,0.9192,0.9334,0.0,0.0,0.0,0.0,0.0,0.0,0.0,0.0,0.0,1.1003,1.1039,1.1423,1.2169,1.2636,1.2873,1.2725,1.2677,1.2788,1.3007,1.2821,1.2873,1.3107,1.294,1.2377,1.1526,1.0814,1.0,0.9111,0.0,0.0,0.0,0.0,0.8084,0.8028,0.0,0.0,0.0,0.0,0.0,0.0,0.0,0.0,0.0,0.0,0.0,0.0,0.725,0.7862,0.8295,0.8411,0.8954,0.9086,0.8588,0.837,0.8107,0.7719,0.755,0.7551,0.7801,0.8681,1.0093,1.2031,1.3612,1.4831,1.565,1.6147,1.6652,1.7115,1.7127,1.5726,1.3299,1.202,1.1028,0.0,0.0,0.0,0.0,0.0,0.0,0.0,0.0,0.0,0.0,0.0,0.0,0.0,0.0,0.0,0.0,0.0,0.0,0.0,0.0,0.0,0.0,0.0,0.0,0.0,0.0,0.0,0.0,0.0,0.0,0.0,0.0,0.0,0.0,0.0,0.0,0.0,0.0,0.875,0.9618,1.0122,1.0366,1.0476,0.0,0.0,0.0,0.0,0.0,0.0,1.0538,1.1253,1.1822,1.2184,1.2588,1.2831,1.294,1.3199,1.3162,1.2872,1.3041,1.3167,1.3245,1.3075,1.3036,1.3081,1.2528,1.2296,1.2241,1.1249,1.0341,0.9522,0.9171,0.902,0.8903,0.8771,0.871,0.8678,0.0,0.0,0.0,0.0,0.0,0.0,0.0,0.0,0.0,0.0,0.0,0.7403,0.7824,0.8113,0.8506,0.9005,0.9206,0.9283,0.0,0.8595,0.8229,0.8247,0.7653,0.7639,0.8341,1.02,1.2088,1.3956,1.464,1.5595,1.6827,1.6841,1.687,1.6913,1.6927,1.6568,1.5935,1.4656,1.3374,1.2104,0.0,0.0,0.0,0.0,0.0,0.0,0.0,0.0,0.0,0.0,0.0,0.0,0.0,0.0,0.0,0.0,0.0,0.0,0.0,0.0,0.0,0.0,0.0,0.0,0.0,0.0,0.0,0.0,0.0,0.0,0.0,0.0,0.0,0.0,0.0,0.0,0.0,0.0,0.0,1.0569,1.0853,0.0,0.0,0.0,0.0,1.1265,1.1226,1.1594,1.2512,1.2619,1.2736,1.2933,1.3239,1.3164,1.2831,1.3787,1.3789,1.2972,1.4107,1.4179,1.3485,1.3465,1.2912,1.1931,1.1384,1.1255,1.1376,1.1029,1.0651,1.0296,1.0066,1.0246,1.0555,0.9836,0.9675,0.984,0.0,0.0,0.0,0.0,0.0,0.4605,0.5369,0.582,0.6202,0.6569,0.7172,0.7623,0.7748,0.8939,0.9836,1.0166,1.0634,1.0782,1.0489,0.9417,0.8857,0.9069,0.8679,0.9361,1.1329,1.2427,1.3686,1.5139,1.6208,1.6979,1.7419,1.789,1.8112,1.8112,1.8112,1.764,1.6768,1.5755,1.4616,1.3411,1.2337,1.1045,0.0,0.0,0.0,0.0,0.0,0.0,0.0,0.0,0.0,0.0,0.0,0.0,0.0,0.0,0.0,0.0,0.0,0.0,0.0,0.0,0.0,0.0,0.0,0.0,0.0,0.0,0.0,0.0,0.0,0.0,0.0,0.0,0.0,0.0,0.0,0.0,0.0,1.1696,1.1857,0.0,1.1789,1.1721,1.1812,1.2201,1.2205,1.245,1.3072,1.2942,1.3031,1.3411,1.354,1.362,1.3786,1.4314,1.4289,1.3852,1.4447,1.4313,1.3529,1.4062,1.3377,1.1852,1.1339,1.1153,1.1178,1.1084,1.0779,1.03,1.0207,1.0189,1.0238,1.012,0.9972,0.9934,0.0,0.0,0.0,0.0,0.4459,0.4903,0.5882,0.6167,0.6412,0.6822,0.7389,0.79,0.8273,0.9652,1.0719,1.1224,1.1557,1.1593,1.1305,0.9958,0.9274,0.9491,0.9621,1.0773,1.3052,1.3871,1.4897,1.6097,1.6995,1.7459,1.7515,1.8032,1.8266,1.8266,1.8266,1.7848,1.7151,1.6587,1.5652,1.4459,1.3757,1.2753,1.147,0.0,0.0,0.0,0.0,0.0,0.0,0.0,0.0,0.0,0.0,0.0,0.0,0.0,0.0,0.0,0.0,0.0,0.0,0.0,0.0,0.0,0.0,0.0,0.0,0.0,0.0,0.0,0.0,0.0,0.0,0.0,0.0,0.0,0.0,0.0,1.1482,1.241,1.2497,1.251,1.2549,1.255,1.2674,1.2909,1.2822,1.2994,1.3405,1.3383,1.3464,1.3847,1.3996,1.4204,1.4418,1.4741,1.4771,1.4538,1.4908,1.4774,1.4283,1.4299,1.3528,1.2134,1.1396,1.1111,1.1111,1.1111,1.0906,1.0586,1.0496,1.0357,1.0212,1.0297,1.0272,1.023,0.0,0.0,0.0,0.4131,0.4715,0.5306,0.5843,0.6426,0.6791,0.6807,0.7464,0.8306,0.9354,1.0153,1.1054,1.2078,1.1831,1.1588,1.1588,1.0138,0.9383,0.9553,1.0469,1.1741,1.3367,1.4526,1.5699,1.6896,1.6896,1.701,1.7199,1.7199,1.7199,1.7199,1.7199,1.7199,1.7199,1.7199,1.6466,1.5257,1.4485,1.4112,1.3728,0.0,0.0,0.0,0.0,0.0,0.0,0.0,0.0,0.0,0.0,0.0,0.0,0.0,0.0,0.0,0.0,0.0,0.0,0.0,0.0,0.0,0.0,0.0,0.0,0.0,0.0,0.0,0.0,0.0,0.0,0.0,0.0,0.0,1.0113,1.0903,1.1738,1.2705,1.2733,1.2898,1.3269,1.3334,1.3305,1.3305,1.3159,1.322,1.3597,1.3874,1.4092,1.429,1.4728,1.4863,1.4701,1.5052,1.5155,1.4993,1.5539,1.5797,1.5655,1.4194,1.3215,1.2576,1.1539,1.1123,1.1123,1.1123,1.1117,1.1087,1.0828,1.0731,1.0701,1.0447,1.0514,1.0731,0.0,0.0,0.4164,0.4753,0.5318,0.5869,0.64,0.6634,0.674,0.6791,0.7699,0.8461,0.88,1.0151,1.1203,1.1602,1.1509,1.1442,1.1389,1.0076,0.9827,1.0962,1.2341,1.3801,1.5367,1.5708,1.6284,1.7127,1.7127,1.7165,1.7199,1.7199,1.7199,1.7199,1.7199,1.7031,1.6735,1.7073,1.6801,1.6134,1.5883,1.5216,1.4233,0.0,0.0,0.0,0.0,0.0,0.0,0.0,0.0,0.0,0.0,0.0,0.0,0.0,0.0,0.0,0.0,0.0,0.0,0.0,0.0,0.0,0.0,0.0,0.0,0.0,0.0,0.0,0.0,0.0,0.0,0.0,0.0,1.055,1.0751,1.1433,1.2127,1.2669,1.2948,1.3175,1.3283,1.3442,1.3497,1.3497,1.3915,1.4206,1.4329,1.4533,1.4674,1.4745,1.4985,1.5117,1.5069,1.5446,1.5634,1.5556,1.5745,1.5037,1.3534,1.3848,1.3181,1.1847,1.1649,1.1502,1.1413,1.1413,1.1298,1.1105,1.1033,1.1003,1.0997,1.0924,1.0942,1.0929,0.0,0.3831,0.4375,0.4959,0.5508,0.6038,0.6579,0.6685,0.6706,0.6757,0.7772,0.8593,0.8834,1.0173,1.1196,1.1501,1.125,1.1079,1.1121,1.0238,1.0411,1.1955,1.3082,1.4396,1.5979,1.6222,1.6517,1.6905,1.6905,1.682,1.6595,1.6595,1.6595,1.6595,1.6595,1.6479,1.6219,1.6522,1.6479,1.6182,1.6145,1.5953,1.5503,1.4187,1.342,1.2897,1.1844,1.1302,1.1095,1.0851,0.0,0.0,0.0,0.0,0.0,0.0,0.0,0.0,0.0,0.0,0.0,0.0,0.0,0.0,0.0,0.0,0.0,0.0,0.0,0.0,0.0,0.0,0.0,0.0,1.0704,1.1498,1.1536,1.2031,1.2534,1.3112,1.3332,1.3496,1.3725,1.391,1.4033,1.4033,1.4427,1.476,1.4744,1.4945,1.4998,1.5011,1.5307,1.5472,1.5463,1.5685,1.5655,1.5275,1.5275,1.4529,1.3233,1.363,1.3216,1.2154,1.2023,1.1787,1.1697,1.1697,1.16,0.0,0.0,0.0,0.0,0.0,1.0661,1.0602,0.0,0.3862,0.4454,0.4984,0.5524,0.6035,0.6524,0.6621,0.6655,0.6685,0.7694,0.8589,0.9034,1.0084,1.0959,1.1429,1.0894,1.0588,0.0,0.0,1.1136,1.2579,1.3217,1.4225,1.5686,1.6186,1.6392,1.6436,1.6436,1.6219,1.5792,1.5792,1.5792,1.5792,1.5792,1.5792,1.5792,1.5792,1.5792,1.5792,1.5792,1.6306,1.6822,1.5005,1.4588,1.4827,1.3594,1.2814,1.2362,1.1883,0.0,0.0,0.0,0.0,0.0,0.0,0.0,0.0,0.0,0.0,0.0,0.0,0.0,0.0,0.0,0.0,0.0,0.0,0.0,0.0,0.0,0.0,0.0,0.0,1.15,1.2162,1.2338,1.2474,1.2905,1.3677,1.3615,1.3745,1.4174,1.4285,1.4388,1.4647,1.475,1.488,1.4947,0.0,0.0,0.0,0.0,1.5551,1.5568,1.5568,1.5196,1.4466,1.4497,1.424,1.3787,1.3335,1.3128,1.2982,1.2462,1.2147,1.1968,1.1968,1.195,1.1872,1.1389,1.1202,1.1081,1.0373,1.0137,1.0006,0.0,0.435,0.4931,0.5477,0.6006,0.6406,0.6497,0.6436,0.6413,0.653,0.7412,0.809,0.8292,0.9268,0.9987,1.0086,0.9946,0.9988,0.0,0.0,1.2166,1.2913,1.3888,1.4844,1.568,1.5788,1.5881,1.5925,1.5925,1.5881,1.5792,1.576,1.576,1.5792,1.576,1.576,1.5792,1.5792,1.5792,1.5792,1.5792,1.5925,1.602,1.5617,1.526,1.4945,1.4699,1.4526,1.443,1.4321,1.3963,1.3458,1.2926,0.0,0.0,0.0,0.0,0.0,0.0,0.0,0.0,0.0,0.0,0.0,0.0,0.0,0.0,0.0,0.0,0.0,0.0,0.0,0.0,1.1161,1.1774,1.2376,1.2726,1.2249,1.2134,1.2779,1.3143,1.3432,1.3689,1.3084,1.3243,1.4761,1.4486,1.4511,1.5083,1.4854,1.473,1.4714,1.4206,1.3907,1.3958,1.3958,1.3837,1.3753,0.0,0.0,1.2968,1.3057,1.2855,1.2474,1.2322,1.224,1.224,1.224,1.2113,1.1914,1.1805,1.1769,1.1611,1.0765,1.0455,1.022,0.4499,0.4954,0.5303,0.5468,0.5976,0.639,0.6483,0.6295,0.6207,0.6378,0.7022,0.744,0.741,0.8133,0.8645,0.8645,0.9123,0.0,0.0,1.1489,1.2554,1.3426,1.4232,1.4996,1.5603,1.5614,1.5614,1.5647,1.5647,1.5647,1.5647,1.5614,1.5614,1.5647,1.5614,1.5614,1.5647,1.5647,1.5647,1.5647,1.5647,1.5647,1.5647,1.5748,1.5624,1.5365,1.5365,1.531,1.5219,1.4957,1.4696,1.4428,1.3864,1.2947,1.1776,0.0,0.0,0.0,0.0,0.0,0.0,0.0,0.0,0.0,0.0,0.0,0.0,0.0,0.0,0.9691,0.0,0.0,1.1079,1.1075,1.168,1.2092,1.2106,1.2025,1.2137,1.2421,1.2772,1.3042,1.2893,1.3227,1.3719,1.4435,1.4441,1.453,1.4903,1.4387,1.407,1.403,1.3656,1.3536,1.3528,1.3623,1.3483,1.311,1.3388,1.3158,1.2466,1.2648,1.2625,1.2506,1.2506,1.2506,1.2506,1.2506,1.2176,1.156,1.156,1.1407,1.1111,1.0331,0.9712,0.9146,0.4927,0.5398,0.5596,0.5423,0.5798,0.6183,0.6355,0.6129,0.6009,0.6171,0.6591,0.6817,0.6662,0.7168,0.752,0.0,0.0,0.0,0.0,1.1698,1.29,1.38,1.4448,1.4982,1.5468,1.5468,1.5468,1.5513,1.5513,1.5513,1.5513,1.5468,1.5468,1.5513,1.5468,1.5468,1.5513,1.5513,1.5513,1.5468,1.5367,1.5322,1.5367,1.5412,1.5525,1.5671,1.5671,1.5454,1.5168,1.4821,1.4603,1.4378,1.4025,1.3535,1.2792,1.1061,1.0395,0.0,0.0,0.0,0.0,0.0,0.0,0.0,0.0,0.0,0.9695,1.0492,1.0432,1.0381,1.0869,1.0969,1.0946,1.0967,1.1406,1.1669,1.1329,1.16,1.1834,1.1834,1.2205,1.2382,1.2087,1.3216,1.3906,1.3971,1.4095,1.4194,1.4392,1.3643,1.3259,1.3266,1.3086,1.3028,1.3029,1.3283,1.3071,1.2479,1.2817,1.2676,1.223,1.23,1.2445,1.2619,1.2705,1.2619,1.2448,1.2448,1.1837,1.1063,1.1063,1.0657,1.0023,0.9531,0.8836,0.8096,0.0,0.5304,0.5778,0.5741,0.5804,0.5874,0.5966,0.583,0.5756,0.5848,0.6171,0.6403,0.6518,0.6958,0.7278,0.7336,0.0,0.0,0.9773,1.2071,1.3495,1.3609,1.4539,1.5142,1.5312,1.5312,1.539,1.5513,1.5513,1.5513,1.5513,1.539,1.539,1.5468,1.539,1.539,1.5513,1.5513,1.5513,1.5468,1.4983,1.4801,1.4755,1.434,1.4766,1.5513,1.5513,1.4987,1.4302,1.4586,1.4205,1.3618,1.3895,1.3635,1.2955,1.1814,0.0,1.0057,0.8867,0.8694,0.893,0.938,0.9548,0.9953,0.0,0.0,1.0849,1.1446,1.1498,1.1333,1.0677,1.1245,1.1623,1.1175,1.125,1.1322,1.1296,1.0618,1.0053,1.0053,1.084,1.1438,1.1601,1.1351,1.1852,1.3454,1.2931,1.2833,1.3558,1.2872,1.2439,1.2412,1.1719,1.1391,1.1422,1.1666,1.1748,1.1735,1.218,1.2264,1.2076,1.2463,1.2583,1.2448,1.2619,1.2186,1.1499,1.1499,1.0885,1.0096,1.0096,0.9552,0.8744,0.8678,0.8511,0.8341,0.0,0.5254,0.5406,0.5406,0.552,0.5689,0.5874,0.5625,0.5473,0.5652,0.5707,0.5734,0.5794,0.6023,0.6266,0.6585,0.7889,0.0,0.9556,1.1693,1.3132,1.3566,1.4417,1.4983,1.5165,1.5165,1.5198,1.5289,1.5289,1.5289,1.5289,1.5198,1.5198,1.5244,1.5198,1.5198,1.5289,1.5289,1.5289,1.5232,1.4731,1.4547,1.4455,1.3941,1.39,1.406,1.415,1.385,0.0,0.0,1.3256,1.3176,1.3102,1.3078,1.2809,1.1283,1.0949,0.0,0.9943,0.9935,1.0162,0.0,1.0271,1.0706,1.1273,1.1192,1.1091,1.1396,1.1311,1.1092,1.0711,1.082,1.0856,0.0,1.0615,1.0677,1.0454,1.0193,0.9913,0.963,1.0099,1.0568,1.0773,1.1378,1.2066,1.2771,1.2519,1.2459,1.2774,1.207,1.1632,1.1608,1.1279,1.1198,1.136,1.1658,1.1838,1.1864,1.22,1.2312,1.221,1.2413,1.2546,1.2534,1.2112,1.1677,1.1235,1.0712,0.9927,0.9061,0.9061,0.8536,0.7753,0.8281,0.8193,0.7669,0.0,0.5204,0.5137,0.5137,0.5301,0.5492,0.567,0.5425,0.5301,0.5501,0.5368,0.5272,0.5291,0.5369,0.5521,0.5827,0.7143,0.824,0.0,1.1028,1.2494,1.3014,1.3949,1.4541,1.4722,1.4846,1.4926,1.4926,1.4926,1.4926,1.4971,1.4926,1.4926,1.4971,1.4971,1.4915,1.4731,1.4869,1.4777,1.4593,1.4129,1.3941,1.3873,1.3287,1.2846,1.2645,1.3007,1.284,0.0,0.0,1.2093,1.2132,1.1863,1.1923,1.1881,1.0616,1.0714,1.1095,1.0167,0.0,0.0,1.0246,1.0553,1.0969,1.087,1.0942,1.1035,1.1035,1.0887,1.0717,1.0566,1.0338,1.0174,1.0047,1.0217,1.0233,0.9841,0.9968,0.9976,0.9578,0.9646,0.9868,1.0125,1.1299,1.2018,1.1964,1.2003,1.2003,1.2003,1.1409,1.1031,1.1031,1.1192,1.1279,1.136,1.1811,1.194,1.1922,1.2275,1.2392,1.2283,1.2386,1.2215,1.194,1.1516,1.0987,1.0453,0.9753,0.8973,0.8105,0.8105,0.7665,0.7139,0.7841,0.7665,0.7139,0.0,0.0,0.5195,0.5195,0.5215,0.5215,0.5215,0.5263,0.5291,0.531,0.5243,0.5224,0.5291,0.5369,0.536,0.5234,0.6815,0.7763,0.7657,1.0146,1.1625,1.1647,1.2973,1.3707,1.3762,1.4178,1.4419,1.4419,1.4419,1.4512,1.4708,1.4512,1.4523,1.4708,1.4708,1.4408,1.3873,1.4269,1.4035,1.3409,1.3016,1.2861,1.2773,1.1874,1.1546,1.1668,1.2645,0.0,0.0,0.0,1.0647,1.017,1.0161,1.0075,0.0,1.0074,1.0277,1.0163,0.0,0.0,1.0482,0.9953,1.0098,1.0483,1.0737,1.082,1.0753,1.0492,1.0442,1.0302,1.0046,0.9977,0.9983,0.9983,1.0093,1.0114,0.9841,0.9837,0.9778,0.9514,0.949,0.9598,0.0,1.0411,1.0888,1.1087,1.1111,1.1111,1.1111,1.1111,1.1031,1.0789,1.1273,1.1279,1.0944,1.1606,1.1918,1.1753,1.2163,1.2283,1.2043,1.2307,1.1537,0.9989,1.0911,1.0284,0.8544,0.8544,0.8017,0.7139,0.7139,0.7139,0.7139,0.7139,0.7139,0.7139,0.0,0.0,0.0,0.5137,0.5137,0.5137,0.5137,0.5156,0.5175,0.5224,0.5068,0.0,0.0,0.0,0.0,0.0,0.5786,0.6589,0.7158,0.905,1.0511,1.1303,1.2378,1.3195,1.3685,1.385,1.4102,1.4373,1.4373,1.4326,1.4107,1.4025,1.3884,1.3742,1.3967,1.3826,1.3447,1.3826,1.3742,1.3218,1.2716,1.257,1.2599,1.1911,1.1192,1.0585,0.0,0.0,0.0,0.9313,0.9164,0.9178,0.8815,0.0,0.0,0.9739,0.9605,0.9317,0.9585,0.0,1.0141,0.9764,0.993,1.0172,1.0328,1.0275,1.0098,0.9951,0.9938,0.9784,0.9386,0.9456,0.9575,0.9451,0.9855,1.0171,0.991,1.0182,1.0297,0.9796,0.9742,0.0,0.0,0.0,0.0,1.0828,1.1015,1.1111,1.1111,1.0962,1.0962,1.1025,1.1061,1.1224,1.1356,1.1685,1.1791,1.1682,1.1327,1.089,1.0458,1.0626,1.0458,0.9859,0.9589,0.9065,0.8456,0.7841,0.7404,0.7139,0.7139,0.7139,0.7139,0.7139,0.7139,0.7139,0.0,0.0,0.0,0.0,0.0,0.0,0.0,0.0,0.0,0.0,0.0,0.0,0.0,0.0,0.0,0.0,0.0,0.5736,0.6294,0.0,0.9023,0.9815,1.0795,1.1579,1.211,1.2162,1.2425,1.301,1.301,1.3038,1.3047,1.2966,1.2827,1.2699,1.3093,1.2977,1.255,1.2966,1.2835,1.2349,1.1902,1.1705,1.1603,1.0973,1.0198,0.0,0.0,0.0,0.0,0.778,0.7905,0.827,0.0,0.0,0.8546,0.8892,0.8936,0.8954,0.9383,0.9674,0.9784,0.9512,0.9541,0.9707,0.9933,0.9712,0.9537,0.9488,0.9436,0.9251,0.8946,0.9051,0.9138,0.9114,0.9723,1.0134,0.9892,1.0393,1.0562,1.0134,1.0012,1.0146,0.0,0.0,0.0,1.084,1.1015,1.1079,1.1105,1.1097,1.1055,1.1135,1.0905,1.0891,1.0979,1.0804,1.0748,1.0814,1.041,0.9878,0.9226,0.968,0.9501,0.8882,0.8627,0.8281,0.7929,0.7316,0.7139,0.7139,0.7139,0.7139,0.7139,0.7139,0.7139,0.7139,0.0,0.0,0.0,0.0,0.0,0.0,0.0,0.0,0.0,0.0,0.0,0.0,0.0,0.0,0.0,0.0,0.0,0.0,0.0,0.0,0.0,0.7345,0.8367,0.9031,0.9235,0.9327,0.9734,1.0456,1.0456,1.0822,1.1561,1.132,1.132,1.1538,1.1969,1.1788,1.1192,1.1547,1.1379,1.072,1.046,1.0171,0.9833,0.9136,0.0,0.0,0.0,0.0,0.0,0.0,0.0,0.0,0.0,0.0,0.0,0.7759,0.8349,0.9004,0.854,0.8966,0.9532,0.9205,0.915,0.9216,0.9406,0.9256,0.912,0.9089,0.8831,0.8651,0.0,0.0,0.8741,0.9047,0.9502,0.9874,0.9892,1.0411,1.0641,0.0,0.0,0.0,0.0,0.0,0.0,1.1037,0.0,1.1081,1.1128,1.1298,1.1259,1.1157,1.0703,1.0268,0.988,0.924,0.8978,0.9109,0.9389,0.913,0.8436,0.9354,0.8744,0.7139,0.8017,0.7929,0.7051,0.7139,0.7139,0.7139,0.7139,0.7139,0.7139,0.7139,0.7139,0.7139,0.0,0.0,0.0,0.0,0.0,0.0,0.0,0.0,0.0,0.0,0.0,0.0,0.0,0.0,0.0,0.0,0.0,0.0,0.0,0.0,0.0,0.0,0.0,0.8313,0.8538,0.8912,0.9355,0.0,0.0,0.9839,0.9776,0.9694,0.9529,0.9323,0.9718,0.9666,0.9209,0.9436,0.9263,0.8783,0.0,0.8514,0.8535,0.0,0.0,0.0,0.0,0.0,0.0,0.0,0.0,0.0,0.0,0.7314,0.7573,0.0,0.0,0.8404,0.9298,0.9402,0.9278,0.9373,0.9376,0.934,0.9202,0.918,0.9017,0.8567,0.8435,0.8323,0.0,0.0,0.0,0.8477,0.9262,0.0,1.02,1.0683,0.0,1.0653,0.0,1.0622,1.0622,1.0096,0.0,0.0,1.0073,1.0008,1.0172,0.9506,0.9187,0.9409,0.9175,0.9007,0.9067,0.8937,0.8644,0.8201,0.8448,0.8093,0.7214,0.7669,0.7408,0.6609,0.7228,0.7228,0.6881,0.7054,0.7139,0.7139,0.7139,0.7139,0.7139,0.7139,0.7139,0.7139,0.0,0.0,0.0,0.0,0.0,0.0,0.0,0.0,0.0,0.0,0.0,0.0,0.0,0.0,0.0,0.0,0.0,0.0,0.0,0.0,0.0,0.0,0.606,0.6519,0.6774,0.689,0.7173,0.0,0.0,0.0,0.0,0.804,0.7973,0.785,0.8252,0.8262,0.7942,0.8022,0.0,0.0,0.0,0.0,0.0,0.0,0.0,0.0,0.0,0.0,0.0,0.0,0.0,0.6872,0.7255,0.7455,0.7638,0.8366,0.0,0.8476,0.9336,0.9463,0.9286,0.9442,0.9388,0.9232,0.8956,0.8723,0.8441,0.8082,0.79,0.0,0.748,0.7713,0.0,0.0,0.0,0.0,0.928,0.9663,0.9961,0.0,0.986,0.0,0.9701,0.9257,0.9025,0.0,0.9121,0.9189,0.9337,0.886,0.8647,0.8994,0.8414,0.782,0.7467,0.7705,0.7595,0.7149,0.7471,0.7291,0.6779,0.6789,0.6612,0.6432,0.0,0.6881,0.6792,0.7054,0.7139,0.7139,0.7139,0.7139,0.7139,0.7139,0.7139,0.7051,0.0,0.0,0.0,0.0,0.0,0.0,0.0,0.0,0.0,0.0,0.0,0.0,0.0,0.0,0.0,0.0,0.0,0.0,0.0,0.0,0.0,0.0,0.441,0.4472,0.4631,0.4421,0.4536,0.0,0.0,0.0,0.0,0.0,0.0,0.0,0.0,0.0,0.0,0.0,0.0,0.0,0.0,0.0,0.0,0.0,0.0,0.0,0.0,0.0,0.0,0.0,0.6823,0.7,0.7498,0.7762,0.7961,0.8255,0.8501,0.8741,0.9101,0.9298,0.9484,0.9484,0.9274,0.9047,0.8693,0.8249,0.7811,0.7607,0.0,0.7146,0.7158,0.7394,0.7494,0.73,0.0,0.8068,0.813,0.8327,0.8537,0.8675,0.8699,0.8618,0.838,0.825,0.819,0.8062,0.8188,0.835,0.859,0.8501,0.8602,0.8756,0.7786,0.6805,0.5733,0.6186,0.6358,0.634,0.6691,0.6779,0.6694,0.6529,0.6441,0.6343,0.6615,0.6795,0.6792,0.6966,0.7139,0.7139,0.7139,0.7153,0.717,0.717,0.7091,0.684,0.0,0.0,0.0,0.0,0.0,0.0,0.0,0.0,0.0,0.0,0.4274,0.4183,0.0,0.0,0.0,0.0,0.0,0.0,0.0,0.0,0.0,0.0,0.3723,0.3873,0.381,0.0,0.0,0.0,0.0,0.0,0.0,0.0,0.0,0.0,0.0,0.0,0.0,0.0,0.0,0.0,0.0,0.0,0.0,0.0,0.0,0.0,0.0,0.0,0.0,0.0,0.6914,0.7516,0.7786,0.7865,0.7997,0.8471,0.8645,0.8783,0.928,0.9448,0.9484,0.9484,0.9274,0.8944,0.8465,0.8123,0.0,0.0,0.714,0.6996,0.6868,0.7176,0.7338,0.7031,0.0,0.0,0.0,0.0,0.8537,0.0,0.0,0.0,0.0,0.0,0.0,0.0,0.677,0.6858,0.7325,0.6997,0.6727,0.6612,0.6441,0.6174,0.5733,0.618,0.6346,0.6145,0.6779,0.6792,0.6272,0.6548,0.6367,0.5819,0.6529,0.0,0.652,0.6962,0.7139,0.7139,0.7139,0.7217,0.7329,0.7329,0.685,0.6197,0.0,0.0,0.0,0.0,0.0,0.0,0.0,0.3952,0.39,0.3944,0.4021,0.4096,0.4119,0.4015,0.3939,0.0,0.0,0.0,0.0,0.0,0.0,0.0,0.0,0.0,0.0,0.0,0.0,0.0,0.0,0.0,0.0,0.0,0.0,0.0,0.0,0.0,0.0,0.0,0.0,0.0,0.0,0.0,0.0,0.0,0.0,0.0,0.0,0.0,0.0,0.0,0.6687,0.7548,0.7817,0.7901,0.7973,0.8363,0.8573,0.8765,0.916,0.937,0.9448,0.9304,0.9064,0.8687,0.7749,0.0,0.0,0.0,0.5952,0.5874,0.5852,0.6074,0.0,0.0,0.0,0.0,0.0,0.0,0.0,0.0,0.0,0.0,0.0,0.0,0.0,0.6204,0.6114,0.6177,0.6589,0.634,0.611,0.5908,0.5908,0.5822,0.5733,0.6091,0.6177,0.6077,0.6441,0.6447,0.6097,0.6189,0.6008,0.5733,0.6263,0.6435,0.6432,0.6789,0.6966,0.7149,0.7227,0.7305,0.738,0.6897,0.6397,0.5873,0.0,0.0,0.0,0.0,0.0,0.0,0.0,0.3848,0.3808,0.3769,0.383,0.3981,0.4264,0.4105,0.396,0.0,0.0,0.0,0.0,0.0,0.0,0.0,0.0,0.0,0.0,0.0,0.0,0.0,0.0,0.0,0.0,0.0,0.0,0.0,0.0,0.0,0.0,0.0,0.0,0.0,0.0,0.0,0.0,0.0,0.0,0.0,0.0,0.0,0.0,0.0,0.6116,0.6924,0.7229,0.76,0.7955,0.8213,0.8477,0.8735,0.9053,0.9274,0.9418,0.9136,0.8873,0.8414,0.7153,0.6652,0.0,0.0,0.4837,0.4733,0.4908,0.0,0.5083,0.0,0.5115,0.0,0.0,0.0,0.0,0.0,0.0,0.0,0.0,0.0,0.0,0.0,0.5818,0.5976,0.6077,0.6083,0.5908,0.5733,0.5733,0.5733,0.5733,0.6005,0.6097,0.6008,0.6091,0.6091,0.6005,0.5824,0.5735,0.5733,0.5997,0.6171,0.6346,0.6438,0.6723,0.7118,0.7018,0.7184,0.7349,0.6581,0.5959,0.5303,0.0,0.0,0.0,0.0,0.0,0.0,0.0,0.3703,0.3789,0.4274,0.3877,0.3712,0.4153,0.4077,0.3897,0.0,0.0,0.0,0.0,0.0,0.0,0.0,0.0,0.0,0.0,0.0,0.0,0.0,0.0,0.0,0.0,0.0,0.0,0.0,0.0,0.0,0.0,0.0,0.0,0.0,0.0,0.0,0.0,0.0,0.0,0.0,0.0,0.0,0.0,0.0,0.0,0.5266,0.5409,0.6596,0.7955,0.8213,0.0,0.0,0.9053,0.9274,0.9418,0.9136,0.8873,0.8414,0.7153,0.0,0.0,0.4999,0.4562,0.4457,0.4751,0.4947,0.4983,0.0,0.0,0.5301,0.0,0.0,0.0,0.0,0.0,0.0,0.0,0.0,0.0,0.0,0.5935,0.6071,0.6083,0.5908,0.5733,0.5733,0.5733,0.5733,0.5733,0.6005,0.6005,0.5735,0.616,0.616,0.5735,0.6005,0.5916,0.5733,0.6005,0.6186,0.0,0.5549,0.6071,0.7008,0.5877,0.6256,0.7611,0.7485,0.5911,0.3898,0.0,0.0,0.0,0.0,0.0,0.0,0.3703,0.364,0.3615,0.3604,0.3519,0.3465,0.3518,0.3586,0.3583,0.3423,0.0,0.0,0.0,0.0,0.0,0.0,0.0,0.0,0.0,0.0,0.0,0.0,0.0,0.0,0.0,0.0,0.0,0.0,0.0,0.0,0.0,0.0,0.0,0.0,0.0,0.0,0.0,0.0,0.0,0.0,0.0,0.0,0.0,0.0,0.0,0.0,0.4578,0.5316,0.0,0.0,0.7552,0.7807,0.8057,0.8306,0.8381,0.7763,0.7518,0.7094,0.585,0.0,0.4883,0.4035,0.362,0.3563,0.3887,0.3924,0.3979,0.4203,0.4305,0.453,0.4823,0.0,0.0,0.0,0.0,0.0,0.0,0.0,0.0,0.0,0.6025,0.5997,0.5908,0.5733,0.5733,0.5733,0.5733,0.5733,0.5733,0.5824,0.5824,0.5733,0.5905,0.5911,0.566,0.5841,0.5841,0.5749,0.5841,0.5292,0.0,0.3935,0.4405,0.5358,0.4518,0.4593,0.5237,0.5358,0.4524,0.328,0.0,0.0,0.0,0.0,0.0,0.3744,0.3612,0.3507,0.3391,0.3211,0.3216,0.3203,0.3141,0.3182,0.3205,0.3153,0.3111,0.0,0.0,0.0,0.0,0.0,0.0,0.0,0.0,0.0,0.0,0.0,0.0,0.0,0.0,0.0,0.0,0.0,0.0,0.0,0.0,0.0,0.0,0.0,0.0,0.0,0.0,0.0,0.0,0.0,0.0,0.0,0.0,0.0,0.0,0.0,0.0,0.0,0.0,0.0,0.6566,0.6861,0.7084,0.7428,0.7485,0.6797,0.6573,0.6239,0.0,0.4522,0.4142,0.3322,0.295,0.2888,0.3274,0.3262,0.3336,0.3668,0.3788,0.3952,0.4336,0.4552,0.0,0.0,0.0,0.0,0.0,0.0,0.0,0.0,0.6083,0.5997,0.5733,0.5735,0.5738,0.5738,0.5738,0.5738,0.5738,0.5741,0.5741,0.5652,0.5114,0.5119,0.567,0.5126,0.4853,0.4942,0.5492,0.4942,0.0,0.2505,0.2423,0.2984,0.2961,0.281,0.2546,0.2761,0.2578,0.2187,0.0,0.0,0.0,0.0,0.0,0.0,0.3591,0.3323,0.3177,0.3377,0.3045,0.2906,0.3179,0.2954,0.2816,0.2816,0.2982,0.0,0.0,0.0,0.0,0.0,0.0,0.0,0.0,0.0,0.3073,0.3206,0.326,0.0,0.0,0.0,0.0,0.0,0.0,0.0,0.0,0.0,0.0,0.0,0.0,0.0,0.0,0.0,0.0,0.0,0.0,0.0,0.0,0.0,0.0,0.0,0.0,0.0,0.0,0.0,0.5775,0.6256,0.6355,0.6725,0.6949,0.6678,0.6521,0.6081,0.0,0.4334,0.3825,0.312,0.2749,0.2657,0.3122,0.3214,0.3308,0.3544,0.3726,0.3866,0.4097,0.4315,0.0,0.0,0.0,0.0,0.0,0.0,0.0,0.5725,0.5908,0.0,0.5733,0.5741,0.5657,0.5657,0.5657,0.5657,0.5657,0.5665,0.567,0.567,0.378,0.387,0.567,0.3767,0.2957,0.3047,0.4862,0.5684,0.0,0.1615,-0.0,0.0092,0.1085,0.0818,-0.0,-0.0,-0.0,0.0179,0.0,0.0,0.0,0.0,0.0,0.0,0.0,0.3175,0.3075,0.3001,0.288,0.2842,0.2917,0.2858,0.2794,0.2794,0.2859,0.0,0.0,0.0,0.0,0.0,0.0,0.0,0.0,0.0,0.2967,0.3206,0.3211,0.3298,0.3409,0.3262,0.0,0.0,0.0,0.0,0.0,0.0,0.0,0.0,0.0,0.0,0.0,0.0,0.0,0.0,0.0,0.0,0.0,0.0,0.0,0.0,0.0,0.0,0.0,0.0,0.0,0.0,0.5017,0.5193,0.5169,0.4707,0.4599,0.4426,0.3869,0.3497,0.3165,0.2868,0.2653,0.2629,0.2998,0.315,0.3291,0.3574,0.3646,0.0,0.0,0.0,0.0,0.0,0.0,0.0,0.0,0.0,0.0,0.5985,0.6083,0.6,0.5741,0.5657,0.5657,0.5657,0.4484,0.3765,0.3765,0.3767,0.4399,0.567,0.378,0.2518,0.1887,0.3871,0.3419,0.0987,0.1527,0.1798,0.1708,0.0539,-0.0,-0.0,0.0365,0.0276,-0.0,-0.0,-0.0,-0.0,0.0,0.0,0.0,0.0,0.0,0.0,0.0,0.3025,0.2939,0.2816,0.2794,0.2794,0.2794,0.2794,0.2794,0.2794,0.2794,0.0,0.0,0.0,0.0,0.0,0.0,0.0,0.0,0.2816,0.2999,0.3322,0.3347,0.3388,0.3453,0.3473,0.3303,0.3002,0.0,0.0,0.0,0.0,0.0,0.0,0.0,0.0,0.0,0.0,0.0,0.0,0.0,0.0,0.0,0.0,0.0,0.0,0.0,0.0,0.0,0.0,0.2893,0.0,0.0,0.4112,0.4111,0.3776,0.3627,0.3529,0.3289,0.2999,0.2799,0.2667,0.2555,0.2618,0.2944,0.3077,0.3179,0.3396,0.3507,0.3529,0.0,0.0,0.0,0.0,0.0,0.0,0.0,0.0,0.0,0.5908,0.5641,0.5466,0.5662,0.5665,0.5668,0.5668,0.4582,0.323,0.1793,0.1793,0.2423,0.3504,0.2337,0.1169,0.009,0.243,0.225,-0.0,-0.0,-0.0,0.0,-0.0,-0.0,-0.0,-0.0,-0.0,-0.0,-0.0,-0.0,-0.0,0.0,0.0,0.0,0.0,0.0,0.0,0.0,0.2918,0.2794,0.2794,0.2794,0.2794,0.2794,0.2794,0.2794,0.2794,0.0,0.0,0.0,0.0,0.0,0.0,0.0,0.0,0.2794,0.2864,0.3074,0.3472,0.3537,0.3504,0.3398,0.37,0.3432,0.2731,0.3027,0.0,0.0,0.0,0.0,0.0,0.0,0.0,0.0,0.0,0.0,0.0,0.0,0.0,0.0,0.0,0.0,0.0,0.0,0.0,0.0,0.0,0.0,0.0,0.0,0.3414,0.0,0.3621,0.347,0.3305,0.3108,0.287,0.0,0.2512,0.2495,0.2578,0.2903,0.2991,0.3046,0.3164,0.3319,0.3229,0.0,0.0,0.0,0.0,0.0,0.0,0.0,0.0,0.4546,0.5468,0.4743,0.4656,0.567,0.5681,0.5684,0.5687,0.5412,0.3599,-0.0,-0.0,-0.0,-0.0,-0.0,-0.0,-0.0,-0.0,-0.0,0.0,-0.0,-0.0,-0.0,-0.0,-0.0,-0.0,-0.0,-0.0,-0.0,-0.0,-0.0,-0.0,0.0,0.0,0.0,0.0,0.0,0.0,0.0,0.0,0.0,0.0,0.2745,0.2745,0.2794,0.2745,0.2745,0.0,0.0,0.0,0.0,0.0,0.0,0.0,0.0,0.0,0.2794,0.2816,0.2928,0.3114,0.3136,0.3226,0.3398,0.3152,0.2972,0.279,0.2801,0.26,0.0,0.0,0.0,0.0,0.0,0.0,0.0,0.0,0.0,0.0,0.0,0.1729,0.0,0.0,0.0,0.0,0.0,0.0,0.0,0.0,0.2329,0.2357,0.2616,0.0,0.2841,0.2841,0.2838,0.2782,0.0,0.2537,0.2371,0.2342,0.0,0.2426,0.2408,0.2824,0.3141,0.3126,0.3346,0.3493,0.3255,0.0,0.0,0.0,0.0,0.0,0.0,0.0,0.3271,0.4017,0.3587,0.3969,0.5586,0.5684,0.5687,0.5695,0.288,0.0899,-0.0,-0.0,-0.0,-0.0,-0.0,-0.0,-0.0,-0.0,-0.0,-0.0,-0.0,-0.0,-0.0,-0.0,-0.0,-0.0,-0.0,-0.0,-0.0,-0.0,-0.0,-0.0,0.0,0.0,0.0,0.0,0.0,0.0,0.0,0.0,0.0,0.0,0.0,0.2551,0.2616,0.2621,0.0,0.0,0.0,0.0,0.0,0.0,0.0,0.0,0.0,0.2707,0.2794,0.2707,0.2764,0.3,0.3,0.3112,0.3308,0.3082,0.2938,0.288,0.2686,0.2358,0.0,0.0,0.0,0.0,0.0,0.0,0.0,0.0,0.0,0.0,0.1485,0.1582,0.0,0.1872,0.1996,0.2141,0.0,0.0,0.0,0.0,0.233,0.235,0.2385,0.2604,0.2832,0.2873,0.2832,0.2818,0.2763,0.0,0.0,0.0,0.0,0.0,0.0,0.0,0.0,0.0,0.3069,0.0,0.0,0.0,0.0,0.0,0.0,0.0,0.0,0.0,0.1483,0.1878,0.2074,0.2447,0.3012,0.4709,0.4912,0.3151,0.1069,-0.0,-0.0,-0.0,-0.0,-0.0,-0.0,-0.0,-0.0,-0.0,-0.0,-0.0,-0.0,-0.0,-0.0,-0.0,-0.0,-0.0,-0.0,-0.0,-0.018,-0.1979,-0.2608,-0.2604,0.0,0.0,0.0,0.0,0.0,0.0,0.0,0.0,0.0,0.0,0.0,0.0,0.0,0.0,0.0,0.0,0.0,0.0,0.0,0.0,0.0,0.0,0.0,0.2575,0.271,0.2526,0.2599,0.2918,0.2977,0.3048,0.3115,0.3149,0.3073,0.2846,0.2522,0.2164,0.0,0.0,0.0,0.0,0.0,0.0,0.0,0.0,0.0,0.0,0.0,0.0,0.0,0.1726,0.1911,0.2141,0.2311,0.0,0.0,0.0,0.0,0.0,0.2401,0.276,0.3155,0.3138,0.311,0.306,0.2935,0.0,0.0,0.0,0.0,0.0,0.0,0.1999,0.0,0.0,0.0,0.0,0.0,0.0,0.0,0.0,0.0,0.0,0.0646,0.0162,-0.0,-0.0,0.0768,0.0863,-0.0,0.3038,0.3327,0.0089,-0.0,-0.0,-0.0,-0.0,-0.0,-0.0,-0.0,-0.0,-0.0,-0.0,-0.0,-0.0,-0.0,0.0,-0.0,-0.0,-0.0,-0.0,-0.0,-0.0,-0.036,-0.3605,-0.5233,-0.5676,0.0,0.0,0.0,0.0,0.0,0.0,0.0,0.0,0.0,0.0,0.0,0.0,0.0,0.0,0.0,0.0,0.0,0.0,0.0,0.0,0.0,0.256,0.2517,0.2458,0.2379,0.2228,0.2307,0.2586,0.2851,0.292,0.2798,0.2937,0.2737,0.2228,0.1877,0.1764,0.1781,0.0,0.0,0.0,0.0,0.0,0.0,0.0,0.0,0.0,0.0,0.0,0.0,0.1636,0.1844,0.2126,0.2209,0.0,0.0,0.0,0.0,0.0,0.2809,0.3108,0.3267,0.295,0.3037,0.3134,0.2878,0.0,0.0,0.0,0.0,0.0,0.0,0.2654,0.3299,0.0,0.0,0.1936,0.0,0.0,0.0,0.2256,0.0,0.1494,0.2525,0.1026,-0.0,-0.0,0.0164,0.0166,-0.0,0.0593,0.0594,-0.0,-0.0,-0.0,-0.0,-0.0,-0.0,-0.0,-0.0,-0.0,-0.0,-0.0,-0.0,-0.0,0.0,-0.0,-0.0,-0.0,-0.0,-0.0,-0.0,-0.0,-0.009,-0.0629,-0.288,-0.5689,0.0,0.0,0.0,0.0,0.0,0.0,0.0,0.0,0.0,0.0,0.0,0.0,0.0,0.0,0.0,0.0,0.0,0.0,0.0,0.0,0.0,0.2285,0.2285,0.2285,0.2294,0.241,0.26,0.2869,0.2948,0.3047,0.3179,0.2939,0.2511,0.1919,0.1769,0.1665,0.1585,0.1455,0.0,0.0,0.0,0.0,0.0,0.0,0.0,0.0,0.0,0.0,0.0,0.0,0.186,0.2088,0.2009,0.0,0.0,0.0,0.0,0.0,0.2708,0.3047,0.3233,0.2759,0.2873,0.3138,0.3353,0.0,0.0,0.0,0.0,0.0,0.0,0.0,0.2102,0.1449,0.0,0.2236,0.1598,0.1651,0.1786,0.0,0.0,0.11,0.1413,0.0549,-0.0,-0.0,-0.0,-0.0,-0.0,-0.0,-0.0,-0.0,-0.0,-0.0,-0.0,-0.0,-0.0,-0.0,-0.0,-0.0,-0.0,-0.0,-0.0,-0.0,0.0,-0.0,-0.0,-0.0,-0.0,-0.0,-0.0,-0.1259,-0.297,-0.1975,-0.3323,-0.5673,0.0,0.0,0.0,0.0,0.0,0.0,0.0,0.0,0.0,0.0,0.0,0.0,0.0,0.0,0.0,0.0,0.0,0.0,0.0,0.0,0.2198,0.2102,0.2102,0.2161,0.2301,0.2495,0.28,0.3142,0.3101,0.3259,0.3602,0.2878,0.2274,0.1805,0.1757,0.1624,0.141,0.141,0.141,0.0,0.0,0.0,0.0,0.0,0.0,0.0,0.0,0.0,0.0,0.0,0.0,0.0,0.0,0.0,0.0,0.2106,0.226,0.2518,0.2614,0.2957,0.3197,0.287,0.0,0.323,0.3459,0.0,0.0,0.0,0.0,0.0,0.0,0.1441,0.0,0.1123,0.1924,0.2188,0.1268,0.1618,0.1833,0.1332,0.1335,0.1021,0.0236,0.0079,-0.0,-0.0,-0.0,-0.0,-0.0,-0.0,-0.0,-0.0,-0.0,-0.0,-0.0,-0.0,-0.0,-0.0,-0.0,-0.0,-0.0,-0.0,-0.0,-0.0,-0.0,-0.0,-0.009,-0.0989,-0.1348,-0.1348,-0.1348,-0.2879,-0.4959,-0.3952,-0.4486,-0.5657,0.0,0.0,0.0,0.0,0.0,0.0,0.0,0.0,0.0,0.0,0.0,0.0,0.0,0.0,0.0,0.0,0.0,0.0,0.0,0.0,0.2118,0.2102,0.2102,0.2169,0.2283,0.213,0.2366,0.3003,0.3266,0.3462,0.357,0.2592,0.2012,0.1804,0.1675,0.1522,0.141,0.141,0.141,0.141,0.0,0.0,0.0,0.0,0.0,0.0,0.0,0.0,0.0,0.0,0.0,0.0,0.0,0.0,0.1749,0.2016,0.2036,0.2116,0.2864,0.3072,0.3196,0.3611,0.3738,0.0,0.2444,0.2587,0.0,0.1745,0.0,0.0,0.0,0.1951,0.1833,0.1841,0.1521,0.1199,0.1231,0.0,0.1299,0.1332,0.1335,0.11,0.0628,0.0236,-0.0,-0.0,-0.0,-0.0,-0.0,-0.0,-0.0,-0.0,-0.0,-0.0,-0.0,-0.0,-0.0,-0.0,-0.0,-0.0,-0.0,-0.0,-0.0,-0.0,-0.0,-0.0,-0.027,-0.3787,-0.5328,-0.532,-0.532,-0.4408,-0.3317,-0.4942,-0.5576,-0.5657,0.0,0.0,0.0,0.0,0.0,0.0,0.0,0.0,0.0,0.0,0.0,0.0,0.0,0.0,0.0,0.0,0.0,0.0,0.0,0.1847,0.1894,0.1843,0.1887,0.1997,0.2182,0.2544,0.2946,0.337,0.347,0.3263,0.2789,0.2202,0.1876,0.1779,0.1563,0.1496,0.1525,0.143,0.1453,0.1517,0.1442,0.0,0.0,0.0,0.0,0.0,0.0,0.0,0.0,0.0,0.1576,0.1485,0.1388,0.1482,0.1618,0.1753,0.1845,0.2043,0.2671,0.2683,0.2526,0.2546,0.2659,0.0,0.0,0.2294,0.1808,0.2329,0.1641,0.0,0.0,0.0,0.1358,0.1358,0.1213,0.1153,0.1165,0.1209,0.1244,0.1334,0.1335,0.11,0.0628,0.0236,-0.0,-0.0,-0.0,-0.0,-0.0,-0.0,-0.0,-0.0,-0.0,-0.0,-0.0,-0.0,-0.0,-0.0,-0.0,-0.0,-0.0,-0.0,-0.1258,-0.3509,-0.3509,-0.2875,-0.1884,-0.3323,-0.3954,-0.4043,-0.522,-0.5305,-0.4755,-0.5481,-0.5657,-0.5738,0.0,0.0,0.0,0.0,0.0,0.0,0.0,0.0,0.0,0.0,0.0,0.0,0.0,0.0,0.0,0.0,0.0,0.0,0.1601,0.1714,0.1781,0.1711,0.1692,0.1765,0.1938,0.2632,0.3075,0.3328,0.3239,0.289,0.237,0.2022,0.1845,0.1785,0.1598,0.1565,0.1596,0.1509,0.1501,0.1528,0.1445,0.141,0.0,0.0,0.0,0.0,0.0,0.0,0.0,0.0,0.1501,0.129,0.1231,0.1195,0.1266,0.1482,0.168,0.1912,0.2353,0.2498,0.2396,0.1972,0.0,0.0,0.2739,0.1946,0.1337,0.211,0.1735,0.0,0.0,0.0,0.0,0.0,0.1095,0.1166,0.1166,0.1295,0.1335,0.1335,0.1335,0.1178,0.0864,0.0314,-0.0,-0.0,-0.0,-0.0,-0.0,-0.0,-0.0,-0.0,-0.0,-0.0475,-0.1528,-0.154,-0.1311,-0.0749,-0.0778,-0.1148,-0.178,-0.1156,-0.232,-0.486,-0.5407,-0.4949,-0.3767,-0.3767,-0.3767,-0.3944,-0.5208,-0.566,-0.5744,-0.5744,-0.5738,-0.5733,0.0,0.0,0.0,0.0,0.0,0.0,0.0,0.0,0.0,0.0,0.0,0.0,0.0,0.0,0.0,0.0,0.0,0.0,0.1803,0.1803,0.1759,0.1689,0.1496,0.1457,0.1594,0.2191,0.257,0.2708,0.2431,0.2368,0.2491,0.2166,0.1936,0.1793,0.1809,0.1715,0.159,0.1604,0.1517,0.1413,0.141,0.141,0.0,0.0,0.0,0.0,0.0,0.0,0.0,0.0,0.1406,0.0956,0.1298,0.0943,0.0541,0.1205,0.1503,0.1642,0.1914,0.2537,0.2915,0.0,0.0,0.0,0.1685,0.1583,0.147,0.0996,0.0,0.1665,0.1106,0.0,0.0,0.1093,0.1108,0.1166,0.1166,0.1294,0.1335,0.1335,0.1335,0.1257,0.1335,0.055,-0.0,-0.0,-0.0,-0.0,-0.0,-0.0,-0.0079,-0.0079,-0.0,-0.1649,-0.4964,-0.5002,-0.4151,-0.2513,-0.2488,-0.3657,-0.5591,-0.3738,-0.2897,-0.3045,-0.4853,-0.567,-0.567,-0.567,-0.5665,-0.5657,-0.5738,-0.5733,-0.5733,-0.5733,-0.5733,-0.5733,0.0,0.0,0.0,0.0,0.0,0.0,0.0,0.0,0.0,0.0,0.0,0.0,0.0,0.0,0.0,0.0,0.0,0.0,0.1474,0.1673,0.1692,0.143,0.141,0.141,0.1457,0.173,0.2132,0.2714,0.2518,0.2284,0.2006,0.19,0.1772,0.1671,0.1654,0.1638,0.1594,0.1503,0.1499,0.1531,0.1445,0.141,0.0,0.0,0.0,0.0,0.0,0.0,0.0,0.0,0.0,0.0,0.1207,0.0,0.0789,0.1059,0.127,0.1573,0.2073,0.21,0.0,0.1996,0.0,0.0,0.0,0.1154,0.0,0.0,0.1529,0.1826,0.1146,0.0,0.0,0.1032,0.109,0.1134,0.1134,0.1168,0.1194,0.1194,0.0985,0.0919,0.1302,0.0544,-0.0,-0.0,-0.0,-0.0,-0.0,-0.22,-0.3538,-0.3538,-0.2352,-0.2271,-0.3214,-0.4432,-0.4767,-0.4284,-0.4227,-0.4582,-0.5199,-0.5016,-0.4802,-0.4741,-0.5442,-0.5657,-0.5741,-0.5741,-0.5741,-0.5738,-0.5735,-0.5733,-0.5733,-0.5733,-0.5733,-0.5733,0.0,0.0,0.0,0.0,0.0,0.0,0.0,0.0,0.0,0.0,0.0,0.0,0.0,0.0,0.0,0.0,0.0,0.0,0.0,0.1563,0.1541,0.1321,0.1343,0.1457,0.1683,0.1733,0.1998,0.2467,0.2291,0.2058,0.172,0.1838,0.1793,0.1669,0.1765,0.1762,0.1672,0.1593,0.1545,0.1512,0.144,0.141,0.141,0.0,0.0,0.0,0.0,0.0,0.0,0.0,0.0,0.0,0.1147,0.0,0.0873,0.0939,0.1268,0.167,0.174,0.1911,0.0,0.1618,0.1324,0.1136,0.0978,0.0,0.0,0.0,0.0,0.1554,0.1114,0.1042,0.0,0.105,0.1091,0.1121,0.1121,0.1147,0.1166,0.1166,0.0813,0.0674,0.0757,0.0304,-0.0,-0.0,-0.0,-0.0544,-0.1884,-0.3934,-0.4964,-0.504,-0.4001,-0.3524,-0.3522,-0.447,-0.5026,-0.5026,-0.5021,-0.5018,-0.5002,-0.5368,-0.5447,-0.5494,-0.5616,-0.5577,-0.5665,-0.5714,-0.5733,-0.5733,-0.5733,-0.5733,-0.5733,-0.5733,-0.5733,-0.5733,0.0,0.0,0.0,0.0,0.0,0.0,0.0,0.0,0.0,0.0,0.1019,0.0,0.0,0.0,0.0,0.0,0.0,0.0,0.0,0.0,0.1366,0.1296,0.1321,0.1569,0.2023,0.2001,0.2001,0.2031,0.1868,0.1708,0.1578,0.1865,0.1897,0.1795,0.1989,0.1961,0.177,0.1763,0.1616,0.141,0.141,0.141,0.141,0.141,0.0,0.0,0.0,0.0,0.0,0.0,0.0,0.0,0.118,0.1011,0.0858,0.0909,0.1427,0.1839,0.1233,0.0,0.0,0.1201,0.1196,0.0,0.1089,0.0988,0.1005,0.1063,0.0,0.1045,0.1071,0.1055,0.1047,0.1074,0.11,0.1117,0.1117,0.1141,0.1158,0.1158,0.087,0.044,0.0075,-0.0,-0.0074,-0.0389,-0.0459,-0.168,-0.4611,-0.4873,-0.4956,-0.5015,-0.5023,-0.5026,-0.5018,-0.5018,-0.5018,-0.5018,-0.5018,-0.5018,-0.5021,-0.5135,-0.5254,-0.5374,-0.5485,-0.5454,-0.5472,-0.567,-0.5725,-0.5733,-0.5733,-0.5733,-0.5733,-0.5733,-0.5733,-0.5733,0.0,0.0,0.0,0.0,0.0,0.0,0.0,0.0,0.0,0.0,0.0,0.0,0.0,0.0,0.0,0.0,0.0,0.0,0.0,0.0,0.1366,0.1296,0.1547,0.1648,0.1558,0.1735,0.1748,0.1547,0.1616,0.1569,0.1441,0.172,0.178,0.1665,0.1812,0.1775,0.1635,0.1524,0.1457,0.141,0.141,0.141,0.141,0.141,0.141,0.0,0.0,0.0,0.0,0.0,0.0,0.0,0.1476,0.1284,0.1117,0.1062,0.1432,0.1786,0.1586,0.1845,0.0,0.0,0.1242,0.1018,0.1033,0.0988,0.1005,0.1063,0.1071,0.1068,0.1074,0.1072,0.1071,0.1076,0.1083,0.1088,0.1088,0.1094,0.1098,0.1098,0.1047,0.0709,0.0071,-0.0,-0.0952,-0.3193,-0.3689,-0.3541,-0.2742,-0.4151,-0.4982,-0.4814,-0.4974,-0.5018,-0.5018,-0.5018,-0.5018,-0.5018,-0.5018,-0.5018,-0.5021,-0.5135,-0.5254,-0.5371,-0.5398,-0.5464,-0.5464,-0.5491,-0.5646,-0.5733,-0.5733,-0.5733,-0.5733,-0.5733,-0.5733,-0.5733,0.0,0.0,0.0,0.0,0.0,0.0,0.0,0.0,0.0,0.0,0.0,0.0,0.0,0.0,0.0,0.0,0.0,0.0,0.0,0.1383,0.1274,0.1296,0.1616,0.1784,0.1747,0.1785,0.1781,0.1731,0.1569,0.1492,0.1504,0.1699,0.1796,0.1797,0.1879,0.183,0.1686,0.1564,0.1457,0.141,0.141,0.141,0.141,0.141,0.141,0.141,0.148,0.0,0.0,0.0,0.0,0.0,0.0,0.0,0.1119,0.0998,0.1227,0.1509,0.1514,0.0,0.0,0.1328,0.0,0.091,0.0956,0.0977,0.1001,0.1046,0.1066,0.1076,0.1076,0.1078,0.1079,0.1078,0.1078,0.1012,0.0809,0.0809,0.0877,0.1079,0.1092,0.0277,-0.1824,-0.2036,-0.2414,-0.3205,-0.4096,-0.4239,-0.3276,-0.4182,-0.4745,-0.4757,-0.4868,-0.4931,-0.4931,-0.4988,-0.5018,-0.5018,-0.5018,-0.5018,-0.5018,-0.5078,-0.522,-0.5361,-0.5423,-0.5487,-0.5468,-0.5526,-0.559,-0.5564,-0.5621,-0.5646,-0.5654,-0.5711,-0.5733,-0.5733,0.0,0.0,0.0,0.0,0.0,0.0,0.0,0.0,0.0,0.0,0.0,0.0,0.0,0.0,0.0,0.0,0.0,0.0,0.0,0.1338,0.1185,0.1296,0.1661,0.1898,0.1956,0.1894,0.1886,0.1983,0.1594,0.148,0.1645,0.1744,0.1865,0.1996,0.1973,0.1909,0.1797,0.1631,0.1502,0.141,0.141,0.141,0.141,0.141,0.141,0.141,0.148,0.1547,0.1591,0.167,0.0,0.0,0.0,0.0,0.1055,0.0939,0.1057,0.1194,0.1236,0.0,0.1321,0.0977,0.0894,0.0,0.0877,0.0962,0.099,0.1027,0.1056,0.1076,0.1076,0.1078,0.1079,0.1079,0.1012,0.0809,0.0607,0.0472,0.0539,0.0877,0.0472,-0.1019,-0.3978,-0.4316,-0.378,-0.2576,-0.3611,-0.4383,-0.4454,-0.4496,-0.4576,-0.4693,-0.4738,-0.4803,-0.4803,-0.4925,-0.4985,-0.4985,-0.5004,-0.5015,-0.5018,-0.5015,-0.5168,-0.5326,-0.5433,-0.5494,-0.5523,-0.5629,-0.5601,-0.5463,-0.5565,-0.5617,-0.5561,-0.5662,-0.5714,-0.5733,0.0,0.0,0.0,0.0,0.0,0.0,0.0,0.0,0.0,0.0,0.0,0.1474,0.1828,0.1894,0.0,0.0,0.0,0.0,0.1872,0.0,0.0,0.1296,0.1787,0.1854,0.1405,0.1843,0.1869,0.1502,0.1433,0.1531,0.0,0.0,0.1859,0.1996,0.188,0.1825,0.1797,0.1533,0.141,0.141,0.141,0.141,0.141,0.141,0.141,0.141,0.148,0.1502,0.1524,0.1648,0.1673,0.0,0.0,0.0,0.1056,0.1262,0.1257,0.1156,0.0,0.0,0.0877,0.0,0.0878,0.0905,0.0,0.0,0.0905,0.0,0.1056,0.1076,0.1076,0.1078,0.1079,0.1079,0.0539,0.0337,0.0944,0.0472,0.0067,0.0135,-0.2089,-0.3789,-0.4282,-0.433,-0.419,-0.4006,-0.4293,-0.4444,-0.4355,-0.4542,-0.4605,-0.4499,-0.4613,-0.4748,-0.4748,-0.4798,-0.493,-0.5081,-0.5189,-0.5168,-0.5018,-0.5168,-0.5243,-0.5321,-0.5338,-0.541,-0.5514,-0.569,-0.5767,-0.571,-0.5889,-0.5879,-0.5892,-0.5909,-0.5813,-0.5733,0.0,0.0,0.0,0.0,0.0,0.0,0.0,0.0,0.0,0.0,0.0,0.1696,0.1872,0.1964,0.0,0.0,0.0,0.0,0.1516,0.1385,0.0,0.0,0.1696,0.1806,0.1538,0.1784,0.1832,0.1629,0.1477,0.0,0.0,0.1871,0.1957,0.0,0.1944,0.1876,0.1778,0.0,0.141,0.141,0.141,0.1488,0.1617,0.1461,0.1491,0.1615,0.1527,0.1502,0.1524,0.1658,0.168,0.1635,0.1496,0.0,0.0,0.0,0.0875,0.0,0.0746,0.0937,0.1086,0.0,0.0916,0.088,0.0911,0.0,0.0891,0.0916,0.1006,0.1037,0.1069,0.1078,0.1079,0.1079,0.0472,0.0135,0.0404,0.0202,-0.0607,-0.2225,-0.3511,-0.4325,-0.4314,-0.4308,-0.4306,-0.43,-0.4352,-0.4357,-0.4303,-0.4398,-0.4431,-0.4376,-0.449,-0.4621,-0.4621,-0.4745,-0.4987,-0.528,-0.5185,-0.5251,-0.5326,-0.5321,-0.5398,-0.5479,-0.5553,-0.5665,-0.572,-0.5795,-0.5756,-0.5663,-0.581,-0.5791,-0.5696,-0.5837,-0.5754,-0.564,0.0,0.0,0.0,0.0,0.0,0.0,0.0,0.0,0.0,0.0,0.0,0.0,0.1942,0.0,0.0,0.0,0.0,0.0,0.1361,0.0,0.0,0.0,0.0,0.1736,0.1604,0.1724,0.1769,0.1696,0.0,0.0,0.1792,0.1931,0.2047,0.0,0.2055,0.1932,0.0,0.0,0.0,0.1458,0.1488,0.1628,0.1772,0.1632,0.1697,0.1846,0.1659,0.1572,0.1585,0.0,0.1661,0.1569,0.1274,0.1163,0.0,0.0,0.0,0.0,0.0,0.0,0.1145,0.0895,0.0888,0.0912,0.0,0.0,0.0875,0.0,0.0961,0.0992,0.1044,0.1061,0.107,0.0943,0.0472,0.0067,-0.0,-0.0,-0.1078,-0.3986,-0.4325,-0.4319,-0.4303,-0.43,-0.43,-0.43,-0.43,-0.43,-0.43,-0.43,-0.43,-0.43,-0.4382,-0.4494,-0.4494,-0.483,-0.5104,-0.538,-0.5262,-0.5478,-0.5889,-0.5767,-0.6015,-0.6325,-0.6018,-0.6015,-0.6244,-0.6325,-0.617,-0.6032,-0.6212,-0.6118,-0.5938,-0.5889,-0.6002,-0.6073,0.0,0.0,0.0,0.0,0.0,0.0,0.0,0.0,0.0,0.0,0.0,0.0,0.0,0.0,0.0,0.0,0.0,0.0,0.0,0.0,0.0,0.0,0.0,0.0,0.1319,0.1629,0.1673,0.1433,0.0,0.0,0.1793,0.1938,0.2047,0.2117,0.2109,0.198,0.1783,0.0,0.0,0.0,0.0,0.1803,0.1808,0.1996,0.2087,0.2066,0.1854,0.1794,0.0,0.0,0.0,0.1388,0.1163,0.094,0.0764,0.0,0.0,0.0,0.0,0.0578,0.0,0.0703,0.0,0.0,0.0,0.0,0.0,0.0878,0.0885,0.0955,0.0987,0.1016,0.0915,0.0604,0.0472,0.0337,0.0067,-0.0,-0.1078,-0.3986,-0.4319,-0.4311,-0.4303,-0.43,-0.43,-0.43,-0.43,-0.43,-0.43,-0.43,-0.43,-0.43,-0.4306,-0.4372,-0.457,-0.504,-0.5246,-0.524,-0.5513,-0.5949,-0.6552,-0.6935,-0.7544,-0.8152,-0.6553,-0.6398,-0.7165,-0.7326,-0.7326,-0.7165,-0.7334,-0.736,-0.7103,-0.6163,-0.6747,-0.7754,0.0,0.0,0.0,0.0,0.0,0.0,0.0,0.0,0.0,0.0,0.0,0.0,0.0,0.21,0.2162,0.2289,0.2092,0.0,0.0,0.0,0.0,0.0,0.0,0.0,0.0,0.1582,0.1626,0.141,0.0,0.1503,0.1667,0.1801,0.1884,0.1922,0.1983,0.2001,0.1907,0.159,0.0,0.0,0.0,0.1927,0.2103,0.2114,0.2208,0.2307,0.2071,0.0,0.0,0.0,0.0,0.0989,0.116,0.1053,0.0811,0.0651,0.0507,0.0,0.0,0.0,0.0,0.0648,0.0729,0.0851,0.0819,0.0862,0.09,0.0911,0.0914,0.0923,0.0954,0.0984,0.1014,0.0914,0.0459,-0.0528,-0.2488,-0.2765,-0.3169,-0.4175,-0.4308,-0.4306,-0.43,-0.43,-0.43,-0.43,-0.43,-0.43,-0.43,-0.43,-0.43,-0.43,-0.43,-0.4434,-0.4694,-0.5007,-0.5238,-0.5457,-0.5856,-0.641,-0.6982,-0.7492,-0.8041,-0.8542,-0.7931,-0.7855,-0.8165,-0.8241,-0.8241,-0.8165,-0.8246,-0.8128,-0.7966,-0.7383,-0.7566,-0.7939,0.0,0.0,0.0,0.0,0.0,0.0,0.0,0.0,0.0,0.1942,0.0,0.0,0.0,0.0,0.2184,0.2202,0.2026,0.1762,0.1321,0.0,0.0,0.0,0.0,0.0,0.0,0.1496,0.1541,0.141,0.141,0.1472,0.0,0.1693,0.1748,0.1797,0.1846,0.1925,0.0,0.0,0.0,0.1873,0.0,0.0,0.2304,0.2384,0.2483,0.2599,0.0,0.0,0.0,0.0,0.0,0.0,0.145,0.1249,0.0833,0.0495,0.0395,0.0,0.0408,0.0,0.0,0.0,0.0,0.0734,0.0793,0.0,0.087,0.088,0.089,0.0904,0.0924,0.0944,0.1032,0.0885,0.0509,-0.0899,-0.3848,-0.4268,-0.4276,-0.4298,-0.43,-0.43,-0.43,-0.43,-0.43,-0.43,-0.43,-0.43,-0.43,-0.43,-0.43,-0.4431,-0.4434,-0.4631,-0.4894,-0.509,-0.5406,-0.5848,-0.6241,-0.6867,-0.7816,-0.8311,-0.8827,-0.935,-0.9497,-0.9382,-0.9084,-0.9084,-0.9084,-0.9084,-0.9084,-0.9003,-0.8861,-0.8156,-0.8237,-0.8581,0.0,0.0,0.0,0.0,0.0,0.0,0.0,0.0,0.21,0.21,0.0,0.0,0.0,0.0,0.0,0.203,0.2008,0.1809,0.1343,0.1433,0.0,0.0,0.0,0.0,0.0,0.1366,0.141,0.141,0.141,0.1469,0.1584,0.1584,0.1672,0.1791,0.1674,0.174,0.2001,0.0,0.1977,0.2023,0.0,0.2293,0.2355,0.0,0.2968,0.0,0.2737,0.2618,0.0,0.2218,0.0,0.0,0.202,0.154,0.0814,0.0497,0.0407,0.0,0.0,0.0,0.0,0.0,0.0,0.0,0.0774,0.0,0.0813,0.0897,0.0874,0.0896,0.0897,0.0898,0.0802,0.0488,0.0431,-0.0685,-0.3865,-0.4271,-0.4308,-0.4278,-0.4295,-0.4295,-0.4295,-0.4298,-0.43,-0.43,-0.43,-0.43,-0.43,-0.43,-0.4364,-0.4625,-0.4761,-0.4894,-0.5087,-0.5292,-0.5752,-0.64,-0.6578,-0.741,-0.8923,-0.9314,-0.9974,-1.0731,-1.0991,-1.0657,-0.9922,-0.9922,-0.9922,-0.9922,-0.9922,-0.9922,-0.9765,-0.8394,-0.8826,-0.998,0.0,0.0,0.0,0.0,0.0,0.2078,0.2056,0.2078,0.21,0.0,0.0,0.0,0.2224,0.2289,0.2245,0.2078,0.1986,0.1765,0.1388,0.1585,0.1626,0.1446,0.1673,0.174,0.1582,0.1604,0.1541,0.141,0.141,0.1426,0.1461,0.1461,0.1539,0.1649,0.1627,0.1707,0.1838,0.1635,0.0,0.2066,0.2077,0.2297,0.0,0.0,0.0,0.0,0.0,0.2882,0.2842,0.0,0.2566,0.2316,0.0,0.0,0.0245,0.0245,0.0336,0.0,0.0411,0.0,0.0,0.0,0.0,0.0,0.0,0.0,0.0,0.0809,0.0826,0.0845,0.089,0.0898,0.0564,-0.0345,-0.1587,-0.2837,-0.3799,-0.3942,-0.395,-0.4034,-0.4115,-0.4167,-0.4167,-0.4249,-0.43,0.0,-0.43,-0.43,-0.43,-0.43,-0.4364,-0.4625,-0.4761,-0.4894,-0.5087,-0.5292,-0.5752,-0.64,-0.6915,-0.7812,-0.8907,-0.9531,-1.0148,-1.0725,-1.0797,-1.0789,-1.0738,-1.0738,-1.0738,-1.0738,-1.0738,-1.0738,-1.0663,-0.9981,-0.9903,-1.0137,0.0,0.0,0.0,0.21,0.21,0.21,0.21,0.21,0.21,0.0,0.0,0.0,0.2289,0.2336,0.2285,0.2108,0.203,0.1854,0.1541,0.174,0.1759,0.1516,0.1828,0.1872,0.1582,0.1692,0.1626,0.141,0.141,0.141,0.141,0.141,0.1435,0.152,0.1522,0.1558,0.1614,0.1458,0.0,0.0,0.2172,0.0,0.0,0.2846,0.2968,0.0,0.0,0.0,0.3072,0.308,0.2937,0.0,0.0,0.0,0.0,0.0135,0.0284,0.0,0.0,0.0,0.0,0.0,0.0,0.0,0.0633,0.0671,0.0,0.0,0.0799,0.0821,0.087,0.0879,0.0607,-0.0224,-0.2166,-0.3627,-0.3795,-0.3811,-0.3827,-0.3867,-0.3998,-0.4042,-0.4042,-0.4107,-0.4148,-0.4148,-0.4148,-0.417,-0.4221,-0.4273,-0.4431,-0.4694,-0.4761,-0.496,-0.5223,-0.562,-0.6145,-0.6859,-0.7512,-0.8299,-0.9168,-0.9681,-1.0036,-1.0405,-1.0622,-1.081,-1.096,-1.1063,-1.1111,-1.1111,-1.1111,-1.1111,-1.1037,-1.0663,-1.0301,-1.0076,0.0,0.0,0.21,0.21,0.21,0.21,0.21,0.21,0.21,0.0,0.2142,0.2199,0.2346,0.239,0.2339,0.2166,0.2134,0.2008,0.1759,0.1916,0.1898,0.1613,0.1898,0.1876,0.1477,0.1714,0.1696,0.141,0.141,0.141,0.141,0.141,0.141,0.141,0.141,0.141,0.1413,0.1417,0.0,0.2038,0.2327,0.2542,0.0,0.0,0.3148,0.3203,0.3266,0.319,0.3054,0.3059,0.3039,0.0,0.0,0.0,0.0,0.0211,0.0378,0.0,0.0,0.0,0.0,0.0,0.0,0.0,0.0673,0.0638,0.0642,0.0,0.077,0.0798,0.0779,0.084,0.0744,0.0439,-0.1831,-0.3621,-0.3787,-0.3807,-0.3784,-0.3884,-0.3906,-0.3914,-0.3914,-0.3925,-0.3872,-0.3872,-0.3872,-0.3982,-0.4091,-0.42,-0.4397,-0.474,-0.4872,-0.5077,-0.5491,-0.6207,-0.6859,-0.7517,-0.8166,-0.8818,-0.949,-0.9724,-0.9844,-0.9898,-1.0466,-1.0695,-1.0737,-1.1003,-1.1111,-1.1111,-1.1111,-1.1111,-1.1037,-1.0663,-1.0293,-0.9954,0.0,0.21,0.21,0.21,0.21,0.21,0.21,0.21,0.21,0.21,0.234,0.256,0.2677,0.2621,0.2543,0.2509,0.2358,0.218,0.1964,0.2136,0.2245,0.2228,0.2337,0.2267,0.1975,0.2019,0.1825,0.141,0.141,0.141,0.141,0.141,0.141,0.141,0.141,0.141,0.1401,0.1565,0.0,0.202,0.2146,0.0,0.2612,0.271,0.2909,0.3219,0.3189,0.2752,0.2075,0.2071,0.2702,0.3333,0.0,0.0,0.0,0.1042,0.0875,0.0453,0.0502,0.0,0.0,0.0,0.0,0.0,0.0559,0.0589,0.0601,0.0,0.0619,0.068,0.0781,0.0621,0.049,0.0393,-0.1868,-0.361,-0.366,-0.3621,-0.3629,-0.3651,-0.3732,-0.3848,-0.3848,-0.3876,-0.3872,-0.3872,-0.3872,-0.3883,-0.3969,-0.3993,-0.4176,-0.4595,-0.5233,-0.5739,-0.6203,-0.6859,-0.7577,-0.8296,-0.8425,-0.8818,-0.9484,-0.9538,-0.9676,-0.9886,-1.0272,-1.0526,-1.0737,-1.1003,-1.1111,-1.1111,-1.1111,-1.1111,-1.1111,-1.1037,-1.0738,-1.0402,0.21,0.21,0.21,0.21,0.21,0.21,0.21,0.21,0.2132,0.2239,0.2531,0.2754,0.2754,0.2724,0.2681,0.2619,0.2471,0.2359,0.225,0.2398,0.2459,0.2355,0.2446,0.2337,0.1953,0.1953,0.1781,0.141,0.141,0.141,0.141,0.141,0.1397,0.1401,0.1392,0.141,0.1396,0.0,0.1665,0.1863,0.2046,0.0,0.2684,0.2194,0.2187,0.2567,0.318,0.2323,0.1002,0.1613,0.2205,0.0,0.3139,0.2311,0.1129,0.0,0.0608,0.0417,0.0557,0.0,0.0,0.0596,0.0,0.0,0.0,0.0347,0.0321,0.0472,0.0495,0.057,0.0728,0.0649,0.0513,0.0428,-0.1321,-0.2664,-0.2497,-0.3123,-0.3585,-0.3585,-0.3634,-0.3727,-0.3727,-0.3724,-0.3759,-0.3759,-0.3811,-0.3844,-0.3844,-0.3901,-0.4083,-0.4457,-0.4898,-0.5545,-0.627,-0.701,-0.7777,-0.849,-0.8818,-0.9151,-0.9484,-0.9484,-0.9556,-0.9694,-0.9952,-1.0284,-1.0544,-1.081,-1.0997,-1.1111,-1.1111,-1.1111,-1.1111,-1.1111,-1.0887,-1.0536,0.21,0.21,0.21,0.21,0.21,0.21,0.21,0.21,0.2198,0.2428,0.2704,0.2875,0.2938,0.2946,0.2948,0.2923,0.2705,0.259,0.2659,0.2633,0.2545,0.2355,0.2398,0.2224,0.1803,0.1803,0.1673,0.141,0.141,0.141,0.141,0.141,0.1392,0.1403,0.1407,0.1399,0.0,0.0,0.0,0.1658,0.0,0.2345,0.2661,0.1969,0.1582,0.1594,0.2573,0.1629,0.0167,0.1139,0.1449,0.1699,0.3142,0.3155,0.0,0.0,0.0,0.0369,0.0,0.0,0.0,0.0,0.0,0.0663,0.0,0.0,0.0,0.0272,0.034,0.0,0.0,0.0,0.0,0.0,0.0,0.0,0.0,-0.2713,0.0,-0.3512,-0.3555,-0.3574,-0.3553,-0.355,-0.3558,-0.3583,-0.3704,-0.3754,-0.3776,-0.3814,-0.3996,-0.4321,-0.4612,-0.5258,-0.6392,-0.7182,-0.7926,-0.8689,-0.9215,-0.9484,-0.9484,-0.9484,-0.9484,-0.9496,-0.976,-0.9994,-1.0278,-1.0592,-1.0846,-1.1039,-1.1093,-1.1111,-1.1111,-1.1111,-1.0887,-1.0588,0.21,0.21,0.21,0.21,0.21,0.21,0.21,0.21,0.2243,0.2603,0.2712,0.3023,0.3765,0.3646,0.3663,0.0,0.3251,0.2927,0.3277,0.2708,0.2393,0.2478,0.2263,0.204,0.1803,0.1803,0.1673,0.141,0.141,0.141,0.141,0.141,0.1396,0.1389,0.1405,0.0,0.0,0.0,0.1411,0.0,0.1912,0.2128,0.0,0.2572,0.1688,0.0206,0.0384,0.0224,-0.0,0.0,0.0223,0.0609,0.0,0.3525,0.3351,0.2746,0.0,0.0,0.0,0.0,0.0,0.0,0.0679,0.0,0.0,0.0,-0.0,0.0041,0.0,0.0,0.0,0.0,0.0,0.0,0.0,0.0,-0.2728,-0.2882,-0.3047,-0.3248,-0.3452,-0.3542,-0.3433,-0.3422,-0.3468,-0.3574,-0.3496,-0.3487,-0.3599,-0.3615,-0.3843,-0.4185,-0.49,-0.5811,-0.7068,-0.7845,-0.86,-0.9414,-0.9484,-0.9484,-0.9484,-0.9484,-0.9484,-0.9496,-0.976,-0.9886,-0.9952,-1.0514,-1.0737,-1.0791,-1.1021,-1.1111,-1.1111,-1.1111,-1.1037,-1.1037,0.21,0.21,0.21,0.21,0.21,0.21,0.21,0.21,0.2251,0.2658,0.2859,0.3321,0.4132,0.0,0.0,0.0,0.0,0.3461,0.0,0.0,0.2608,0.2784,0.2319,0.2007,0.1913,0.1692,0.1519,0.141,0.141,0.141,0.141,0.141,0.1462,0.1568,0.1457,0.0,0.16,0.0,0.1165,0.0,0.0,0.2034,0.0,0.1575,0.0689,-0.0,-0.0,-0.0,-0.0,0.0,-0.0,0.0,0.0,0.0,0.0,0.335,0.0,0.0,0.0,0.0,0.0,0.0,0.0,0.0,0.0225,0.0,-0.0,0.0,0.0,0.0,0.0,0.0,0.0,0.0,-0.2457,0.0,0.0,0.0,-0.2965,0.0,0.0,0.0,-0.3392,-0.3335,-0.3376,-0.3569,-0.3403,-0.3431,-0.368,-0.3688,-0.3884,-0.4166,-0.464,-0.5373,-0.6467,-0.7259,-0.8064,-0.8952,-0.9285,-0.9484,-0.9484,-0.9484,-0.9484,-0.949,-0.9598,-0.973,-0.9904,-1.0339,-1.0586,-1.0749,-1.1009,-1.1111,-1.1111,-1.1111,-1.1111,-1.1111,0.21,0.0,0.21,0.21,0.21,0.21,0.21,0.2263,0.2572,0.3089,0.3171,0.3407,0.3999,0.4265,0.0,0.0,0.4191,0.3921,0.0,0.0,0.28,0.2818,0.2408,0.2094,0.1893,0.1592,0.1445,0.141,0.141,0.141,0.141,0.141,0.148,0.1622,0.1548,0.1518,0.1451,0.0,0.084,0.1369,0.1103,0.1465,0.1971,0.0519,-0.0,-0.0,-0.0,-0.0,-0.0,-0.0,-0.0,0.0,-0.0,0.121,0.2633,0.0,0.0,0.0,-0.0,0.0,0.0,0.0,0.0,0.0,0.0,0.0,0.0,0.0,0.0,0.0,0.0,0.0,0.0,0.0,0.0,-0.2598,0.0,-0.2572,0.0,0.0,0.0,0.0,0.0,-0.3213,-0.3224,-0.352,-0.3289,-0.3326,-0.3787,-0.3776,-0.391,-0.4193,-0.4345,-0.5002,-0.6289,-0.6852,-0.7684,-0.8753,-0.9285,-0.9484,-0.9484,-0.9484,-0.9484,-0.9484,-0.9484,-0.9592,-0.9784,-1.0048,-1.0381,-1.0641,-1.09,-1.1051,-1.1111,-1.1111,-1.1111,-1.1111,0.21,0.21,0.21,0.21,0.21,0.21,0.21,0.2701,0.3427,0.4172,0.363,0.0,0.0,0.0,0.0,0.0,0.0,0.4155,0.3825,0.0,0.2794,0.2326,0.2546,0.2355,0.0,0.1594,0.1528,0.141,0.141,0.141,0.141,0.141,0.1393,0.1414,0.1675,0.1388,0.069,0.0232,0.0557,0.1304,0.0389,0.0052,0.011,0.0,-0.0,-0.0,-0.0,0.0,0.0,-0.0,-0.0,-0.0,0.0,0.0,0.0,0.0,0.0,0.0,0.0,0.0,0.0,-0.0,0.0,0.0,0.0,0.0,-0.0,0.0,0.0,0.0,0.0,0.0,0.0,0.0,0.0,0.0,0.0,0.0,0.0,0.0,0.0,0.0,0.0,-0.3111,-0.3072,0.0,-0.3172,-0.3254,-0.3758,-0.3784,-0.391,-0.4193,-0.42,-0.5121,-0.6933,-0.7002,-0.7843,-0.9484,-0.9484,-0.9484,-0.9484,-0.9484,-0.9484,-0.9484,-0.9484,-0.9484,-0.9514,-0.9778,-1.0036,-1.0369,-1.0628,-1.0888,-1.1111,-1.1111,-1.1111,-1.1111,0.0,0.0,0.21,0.0,0.0,0.21,0.21,0.2725,0.3297,0.0,0.3358,0.0,0.0,0.4556,0.473,0.0,0.0,0.3877,0.3918,0.3328,0.0,0.2769,0.2551,0.2273,0.0,0.1852,0.1753,0.1531,0.1531,0.1531,0.1528,0.1448,0.1493,0.1648,0.1559,0.1322,0.0,0.0,0.0,0.0,0.0,-0.0,-0.0,0.0,-0.0,-0.0,-0.0,-0.0,0.0,-0.0,-0.0,-0.0,-0.0,-0.0,-0.0,-0.0,-0.0,-0.0,0.0,0.0,-0.0,-0.0,0.0,0.0,0.0,0.0,0.0,0.0,0.0,0.0,0.0,0.0,0.0,0.0,0.0,0.0,0.0,0.0,0.0,0.0,0.0,0.0,0.0,0.0,-0.3291,-0.3703,-0.3443,0.0,-0.4372,-0.4165,-0.419,-0.4411,-0.4408,-0.4727,-0.5459,-0.6515,-0.7325,-0.8007,-0.9006,-0.9484,-0.9484,-0.9484,-0.9484,-0.9484,-0.9484,-0.9484,-0.9502,-0.9766,-1.0091,-1.0357,-1.0622,-1.0882,-1.1111,-1.1111,-1.1111,-1.1111,0.2112,0.21,0.21,0.0,0.21,0.2184,0.246,0.2882,0.3208,0.0,0.3087,0.0,0.3989,0.0,0.4415,0.0,0.3416,0.3348,0.3404,0.3122,0.0,0.2813,0.262,0.0,0.2049,0.2045,0.1899,0.1602,0.1694,0.1677,0.1525,0.1491,0.1555,0.1734,0.1609,0.1341,0.0921,0.0256,-0.0,0.0,0.0,-0.0108,0.0,0.0,-0.0168,-0.0,0.0,-0.0,-0.0,-0.0,-0.0,-0.0,-0.0,-0.0,-0.0,-0.0,-0.0,-0.0,-0.0,-0.0,-0.0,-0.0,-0.0,0.0,-0.0,0.0,-0.0,0.0,0.0,0.0,0.0,0.0,0.0,0.0,0.0,0.0,0.0,-0.2337,0.0,0.0,0.0,0.0,0.0,0.0,-0.3085,-0.3634,-0.3572,0.0,0.0,-0.4509,-0.4519,-0.4519,-0.4519,-0.4699,-0.5031,-0.6366,-0.7225,-0.7633,-0.8897,-0.9484,-0.9484,-0.9484,-0.9484,-0.9484,-0.9484,-0.9484,-0.9496,-0.9664,-0.9946,-1.0345,-1.0514,-1.0797,-1.1111,-1.1111,-1.1111,-1.1111,0.2132,0.21,0.2112,0.2148,0.2124,0.0,0.0,0.0,0.3199,0.0,0.2918,0.2914,0.3471,0.3527,0.3527,0.3527,0.3026,0.2617,0.2442,0.2785,0.0,0.0,0.2698,0.2576,0.2116,0.2125,0.1938,0.1623,0.1859,0.1791,0.1429,0.1544,0.1598,0.1606,0.1828,0.0,0.0702,0.0185,-0.0,-0.0,-0.0,-0.0336,-0.0898,-0.0898,-0.0561,-0.0056,-0.0,-0.0,-0.0056,-0.0,-0.0,-0.0,-0.0,-0.0,-0.0,-0.0,-0.0,-0.0,-0.0,-0.0,-0.0,-0.0,-0.0,-0.0,0.0,0.0,-0.0,0.0,0.0,0.0,0.0,0.0,0.0,0.0,0.0,0.0,0.0,0.0,0.0,0.0,0.0,0.0,0.0,-0.2551,-0.2582,-0.3147,-0.3553,0.0,0.0,-0.4752,-0.4929,-0.457,-0.4519,-0.4916,-0.5637,-0.6524,-0.739,-0.8236,-0.907,-0.9472,-0.9484,-0.9484,-0.9484,-0.9484,-0.9484,-0.9484,-0.9484,-0.9484,-0.979,-1.0327,-1.0327,-1.0647,-1.1111,-1.1111,-1.1111,-1.1111,0.2152,0.21,0.2267,0.2813,0.2472,0.2359,0.0,0.0,0.0,0.0,0.2735,0.2747,0.2914,0.2914,0.2914,0.2914,0.2802,0.0,0.0,0.0,0.0,0.2844,0.2811,0.2664,0.2307,0.2291,0.2152,0.1987,0.188,0.1786,0.1696,0.1726,0.1722,0.1679,0.0,0.1659,0.1152,0.0128,-0.0198,-0.0,-0.0,-0.0336,-0.0898,0.0,-0.0785,-0.0617,-0.0168,-0.028,-0.0617,-0.0168,-0.0,-0.0,-0.0,-0.0,-0.0,-0.0,-0.0,-0.0,-0.0,-0.0,-0.0,-0.0,-0.0,-0.0,-0.0,-0.0,0.0,0.0,0.0,0.0,0.0,0.0,0.0,0.0,0.0,0.0,0.0,0.0,0.0,-0.2676,0.0,0.0,0.0,-0.2726,-0.3066,-0.3335,-0.3588,0.0,-0.5122,-0.519,-0.5164,-0.5109,-0.5117,-0.5026,-0.4793,-0.6089,-0.6929,-0.732,-0.8606,-0.928,-0.9484,-0.9484,-0.9484,-0.9484,-0.9484,-0.9484,-0.9484,-0.9484,-0.979,-1.0327,-1.0327,-1.0647,-1.1111,-1.1111,-1.1111,-1.1111,0.2166,0.2371,0.2709,0.3139,0.0,0.0,0.305,0.3208,0.0,0.2756,0.2691,0.0,0.2691,0.2691,0.2691,0.2691,0.2691,0.0,0.2691,0.0,0.0,0.2769,0.2777,0.2652,0.2503,0.2408,0.0,0.2069,0.1974,0.1828,0.1657,0.1542,0.1565,0.1707,0.0,0.1656,0.1599,0.0044,-0.0507,-0.0393,-0.0224,-0.0449,0.0,-0.0898,-0.0785,-0.0617,-0.028,-0.0336,-0.0505,-0.0393,-0.0224,-0.0,-0.0,-0.0,-0.0,-0.0,-0.0,-0.0,-0.0,-0.0,-0.0,-0.0,-0.0,-0.0,-0.0,-0.0,-0.0,-0.0,-0.0821,-0.173,-0.2247,0.0,0.0,0.0,0.0,0.0,0.0,0.0,0.0,0.0,-0.2857,0.0,0.0,-0.2609,-0.2911,-0.3155,-0.3734,0.0,0.0,-0.5572,-0.5626,-0.516,-0.5512,-0.5336,-0.4519,-0.6187,-0.7024,-0.7002,-0.8442,-0.9214,-0.9484,-0.9484,-0.9484,-0.9484,-0.9484,-0.9484,-0.9484,-0.9484,-0.979,-1.0351,-1.058,-1.0852,-1.1111,-1.1111,-1.1111,-1.1111,0.2172,0.2765,0.0,0.0,0.0,0.0,0.0,0.3488,0.0,0.2963,0.0,0.2854,0.2742,0.2691,0.2691,0.2691,0.2691,0.2691,0.2691,0.2691,0.2644,0.254,0.2636,0.2654,0.2628,0.2553,0.2366,0.0,0.2016,0.1816,0.1461,0.1198,0.1214,0.0,0.0,0.0,0.0,-0.0047,-0.0842,-0.0898,-0.0561,-0.0617,-0.0898,-0.0898,-0.0729,-0.0449,-0.0393,-0.0224,-0.0112,-0.0729,-0.0561,-0.0112,-0.0,-0.0,-0.0,-0.0,-0.0,-0.0,-0.0,-0.0,-0.0,-0.0,-0.0,-0.0,-0.0,-0.0,-0.0,-0.0,-0.1925,-0.3607,-0.3591,0.0,0.0,0.0,0.0,0.0,0.0,0.0,0.0,0.0,0.0,0.0,0.0,0.0,0.0,0.0,0.0,0.0,0.0,0.0,-0.6177,-0.5172,-0.5833,-0.5719,-0.4736,-0.6412,-0.7203,-0.7121,-0.8387,-0.9152,-0.9484,-0.9484,-0.9484,-0.9484,-0.9484,-0.9484,-0.9484,-0.9484,-0.979,-1.0381,-1.0906,-1.1111,-1.1111,-1.1111,-1.1111,-1.1111,0.2201,0.3196,0.0,0.0,0.0,0.1796,0.4534,0.4927,0.4703,0.4087,0.4,0.3668,0.2824,0.2691,0.2691,0.2691,0.2691,0.0,0.0,0.0,0.0,0.266,0.2679,0.2683,0.2668,0.2538,0.2401,0.2151,0.1749,0.143,0.1239,0.103,0.0727,0.0,0.0,0.0,0.0654,-0.0145,0.0,-0.0898,-0.0842,-0.0842,-0.0898,-0.0898,-0.0842,-0.0785,-0.0505,-0.0393,-0.0393,-0.0785,-0.0842,-0.0673,-0.0168,-0.0,-0.0,-0.0,-0.0,-0.0,-0.0,-0.0,-0.0,-0.0,-0.0,-0.0,-0.0,-0.0,-0.0,-0.0,-0.1902,-0.3583,-0.359,0.0,0.0,0.0,0.0,0.0,0.0,0.0,0.0,0.0,0.0,-0.311,0.0,0.0,0.0,0.0,0.0,0.0,0.0,0.0,-0.6255,0.0,-0.6265,-0.61,0.0,-0.591,-0.6567,-0.772,-0.8082,-0.8714,-0.9484,-0.9484,-0.9484,-0.9484,-0.9484,-0.9484,-0.9484,-0.9484,-0.979,-1.0381,-1.0906,-1.1111,-1.1111,-1.1111,-1.1111,-1.1111,0.2399,0.0,0.0,0.0,0.0,0.0,0.0,0.3014,0.3433,0.4677,0.4033,0.3267,0.2783,0.2691,0.2691,0.2691,0.2691,0.2691,0.2691,0.2691,0.2691,0.2691,0.2691,0.2691,0.2691,0.2634,0.2487,0.2248,0.1568,0.1236,0.1178,0.0677,0.0,0.0152,0.0,0.0197,0.0,0.0,-0.0749,-0.0898,-0.0898,-0.1065,-0.1344,-0.1344,-0.1176,-0.0896,-0.0728,-0.0672,-0.0673,-0.0842,-0.0898,-0.0842,-0.0561,-0.0336,-0.0168,-0.0056,-0.0,-0.0,-0.0,-0.0,-0.0,-0.0,-0.0,-0.0,-0.0,-0.0,-0.0336,-0.1628,-0.2815,-0.3572,-0.3447,-0.3314,-0.3255,0.0,0.0,0.0,0.0,0.0,0.0,0.0,0.0,0.0,0.0,0.0,0.0,0.0,0.0,-0.4313,-0.5054,-0.5964,-0.6476,0.0,0.0,0.0,-0.5714,0.0,-0.6793,-0.7418,-0.7537,-0.8269,-0.9484,-0.9151,-0.9151,-0.9484,-0.9484,-0.9484,-0.9502,-0.9772,-1.0103,-1.0381,-1.0906,-1.1111,-1.1111,-1.1111,-1.1111,-1.1111,0.2652,0.2834,0.0,0.0,0.2029,0.0789,0.0883,0.0898,0.1846,0.4408,0.358,0.2691,0.2691,0.2691,0.2691,0.2691,0.2691,0.2691,0.2691,0.2691,0.2691,0.2691,0.2691,0.2691,0.2691,0.2652,0.2521,0.2295,0.1506,0.1091,0.0974,0.0251,0.0,0.0,0.0,0.0,0.0,0.0,-0.0924,-0.0898,-0.0898,-0.1288,-0.179,-0.1789,-0.1564,-0.1284,-0.1118,-0.1174,-0.1232,-0.1009,-0.0898,-0.0898,-0.0898,-0.0729,-0.0449,-0.028,-0.0112,-0.0,-0.0,-0.0,-0.0,-0.0,-0.0,-0.0112,-0.0673,-0.0785,-0.1291,-0.3212,-0.361,-0.3566,-0.3329,-0.3297,-0.3329,0.0,0.0,0.0,0.0,0.0,0.0,0.0,0.0,0.0,-0.2775,0.0,0.0,0.0,0.0,-0.4207,-0.4676,-0.5843,-0.6481,-0.6497,-0.7252,-0.7057,-0.5815,0.0,-0.7065,-0.7121,-0.7154,-0.781,-0.9022,-0.8689,-0.8818,-0.9285,-0.9285,-0.935,-0.952,-1.0048,-1.0327,-1.0381,-1.0906,-1.1111,-1.1111,-1.1111,-1.1111,-1.1111,0.2831,0.0,0.0,0.0,0.0,0.0885,0.0896,0.0898,0.1401,0.2745,0.2802,0.2691,0.2691,0.2691,0.2691,0.2691,0.2691,0.2691,0.2691,0.2691,0.2691,0.2691,0.2691,0.2691,0.2691,0.2527,0.2354,0.0,0.0,0.0888,0.0267,-0.0233,-0.049,0.0,0.0,-0.0745,-0.0906,-0.0891,-0.0924,-0.0898,-0.0898,-0.1288,-0.1789,-0.1785,-0.212,-0.2458,-0.19,-0.2068,-0.2347,-0.1288,-0.0898,-0.0898,-0.0898,-0.0898,-0.0842,-0.0842,-0.0449,-0.0,-0.0,-0.0,-0.0,-0.0,-0.0,-0.0561,-0.2757,-0.3268,-0.3327,-0.3554,-0.3599,-0.355,-0.3326,-0.3433,-0.3531,0.0,0.0,0.0,0.0,0.0,-0.347,-0.3563,0.0,0.0,0.0,-0.283,0.0,0.0,-0.3616,-0.445,-0.5291,-0.5411,-0.5938,-0.708,-0.6935,-0.7019,-0.7371,-0.644,-0.6506,-0.7617,-0.7487,-0.7432,-0.7647,-0.8231,-0.8554,-0.8619,-0.8619,-0.8952,-0.952,-1.0048,-1.0327,-1.0381,-1.0906,-1.1111,-1.1111,-1.1111,-1.1111,-1.1111,0.2874,0.0,0.0,0.0,0.0,0.0,0.0,0.0898,0.1065,0.1569,0.2242,0.2411,0.1682,0.2242,0.2691,0.2691,0.2691,0.2691,0.2691,0.2691,0.2691,0.2691,0.2691,0.2352,0.1621,0.1524,0.14,0.0,0.0,0.0091,0.017,-0.037,-0.0669,-0.0712,-0.0753,-0.0795,-0.0889,-0.092,-0.1108,-0.1456,-0.1458,-0.2014,-0.2896,-0.2892,-0.3007,-0.3236,-0.2959,-0.2792,-0.2625,-0.2124,-0.1734,-0.14,-0.1009,-0.1177,-0.1456,-0.1568,-0.1008,-0.028,-0.0056,-0.0,-0.0,-0.0,-0.1345,-0.2865,-0.3439,-0.3037,-0.2751,-0.3434,-0.3593,-0.3569,-0.3471,-0.3493,-0.352,-0.3599,0.0,0.0,0.0,0.0,0.0,-0.3752,0.0,-0.336,0.0,0.0,0.0,0.0,0.0,-0.399,-0.4605,-0.5454,-0.6179,-0.672,0.0,-0.7298,-0.7036,-0.6976,-0.7012,-0.7136,-0.6931,-0.699,-0.7386,-0.7712,-0.8296,-0.9087,-0.9087,-0.928,-0.952,-1.0048,-1.0327,-1.0381,-1.0906,-1.1111,-1.1111,-1.1111,-1.1111,-1.1111,0.3128,0.3712,0.4298,0.0,0.307,0.1734,0.1009,0.0898,0.0898,0.0898,0.1625,0.185,0.1009,0.1682,0.2298,0.2691,0.2691,0.2691,0.2691,0.2691,0.2691,0.2691,0.2691,0.0,0.1118,0.0838,0.0656,0.0521,-0.0353,-0.0542,-0.0097,-0.0513,-0.0753,-0.0841,-0.0811,-0.0837,-0.0921,-0.0888,-0.1232,-0.179,-0.1792,-0.2514,-0.3616,-0.3613,-0.3729,-0.3849,-0.368,-0.3458,-0.3186,-0.288,-0.2608,-0.2266,-0.1628,-0.1734,-0.2125,-0.235,-0.197,-0.1357,-0.0896,-0.0675,-0.0566,-0.0617,-0.2186,-0.3713,-0.3719,-0.2977,-0.2575,-0.3423,-0.3588,-0.3585,-0.3585,-0.3515,-0.3522,-0.3681,0.0,0.0,0.0,-0.4062,0.0,-0.3826,-0.3664,-0.3458,-0.3128,-0.3173,0.0,0.0,0.0,-0.3999,-0.4485,-0.5511,-0.6306,0.0,0.0,0.0,-0.6991,-0.7435,-0.7493,-0.7076,-0.7058,-0.7186,-0.7386,-0.7647,-0.8296,-0.9215,-0.942,-0.9484,-0.952,-1.0048,-1.0327,-1.0381,-1.0906,-1.1111,-1.1111,-1.1111,-1.1111,-1.1111,0.3574,0.358,0.3805,0.4408,0.446,0.3624,0.1288,0.0898,0.0898,0.0898,0.0898,0.0898,0.0898,0.0898,0.1401,0.2579,0.2691,0.2691,0.2691,0.2691,0.2691,0.0,0.0,0.2296,0.151,0.0728,0.028,0.028,0.0,-0.0817,-0.0778,-0.0817,-0.0845,-0.0905,-0.0905,-0.0923,-0.0897,-0.0898,-0.1232,-0.1789,-0.1785,-0.2508,-0.3624,-0.3616,-0.395,-0.4405,-0.3793,-0.3959,-0.4317,-0.3247,-0.3282,-0.3671,-0.2934,-0.2681,-0.2792,-0.3188,-0.3437,-0.3442,-0.2819,-0.2229,-0.1858,-0.208,-0.2011,-0.224,-0.3655,-0.3761,-0.3583,-0.3585,-0.3585,-0.3585,-0.3585,-0.3583,-0.3545,-0.3422,-0.3718,0.0,0.0,-0.3805,0.0,-0.3813,-0.335,-0.311,-0.3382,-0.305,0.0,0.0,0.0,0.0,0.0,0.0,-0.6,-0.7546,-0.7589,-0.7595,-0.7595,-0.7661,-0.7671,-0.7677,-0.8201,-0.8102,-0.7451,-0.8161,-0.849,-0.8554,-0.9215,-0.9484,-0.952,-1.0048,-1.0327,-1.0381,-1.0906,-1.1111,-1.1111,-1.1111,-1.1111,-1.1111,0.3585,0.3585,0.3638,0.3858,0.4242,0.4239,0.3458,0.1958,0.0898,0.0898,0.0898,0.0898,0.0898,0.0898,0.1065,0.0,0.1457,0.1457,0.0,0.2242,0.2691,0.2691,0.2691,0.2408,0.1734,0.1063,0.028,-0.0505,0.0,-0.0872,-0.086,-0.0857,-0.0866,-0.0883,-0.0883,-0.0888,-0.0954,-0.1344,-0.1928,-0.2604,-0.3022,-0.3671,-0.4507,-0.4511,-0.4601,-0.4735,-0.4569,-0.4595,-0.472,-0.4408,-0.4363,-0.4534,-0.4252,-0.3938,-0.3582,-0.3762,-0.3849,-0.3934,-0.4261,-0.3495,-0.2751,-0.3307,-0.3419,-0.3532,-0.3872,-0.3808,-0.3744,-0.3744,-0.3744,-0.3744,-0.3744,-0.3635,-0.3572,-0.3531,-0.3776,0.0,-0.3963,0.0,-0.4032,-0.3929,-0.3794,-0.3652,-0.3547,-0.3407,0.0,0.0,0.0,0.0,0.0,0.0,-0.6752,-0.7054,-0.7538,-0.7731,-0.7595,-0.8111,-0.8145,-0.7677,-0.8264,-0.8361,-0.8161,-0.8425,-0.8753,-0.9215,-0.9414,-0.9586,-0.9772,-1.0119,-1.0435,-1.0628,-1.0979,-1.1111,-1.1111,-1.1111,-1.1111,-1.1111,0.3585,0.3585,0.3585,0.3585,0.3913,0.4242,0.4463,0.2458,0.0898,0.0898,0.0898,0.0898,0.0898,0.0898,0.0,0.0898,0.0898,0.0898,0.0898,0.2018,0.2691,0.2691,0.2691,0.2521,0.2127,0.1341,0.0447,-0.0561,-0.0785,-0.0898,-0.0898,-0.0898,-0.0898,-0.0898,-0.0898,-0.1009,-0.1289,-0.1701,-0.2422,-0.329,-0.3711,-0.4258,-0.49,-0.488,-0.4887,-0.4877,-0.4908,-0.4918,-0.4928,-0.4982,-0.4999,-0.5009,-0.5067,-0.4832,-0.4493,-0.4396,-0.4399,-0.4491,-0.4945,-0.4406,-0.3808,-0.408,-0.4171,-0.4154,-0.3987,-0.3858,-0.3796,-0.3852,-0.3855,-0.3852,-0.3796,-0.3744,-0.3635,-0.3585,-0.3802,-0.391,-0.391,-0.4015,-0.4,0.0,0.0,-0.3847,-0.3715,-0.3698,-0.3727,0.0,0.0,0.0,0.0,-0.6189,-0.683,-0.691,-0.754,-0.7865,-0.7846,-0.8438,-0.8545,-0.8226,-0.8691,-0.8882,-0.8882,-0.8882,-0.9087,-0.9484,-0.9484,-0.9634,-0.9892,-1.0224,-1.0484,-1.0749,-1.1009,-1.1111,-1.1111,-1.1111,-1.1111,-1.1111,0.3585,0.3585,0.3585,0.3585,0.3585,0.3805,0.4353,0.2569,0.1065,0.0842,0.0898,0.0898,0.0898,0.0898,0.0898,0.0898,0.0,0.0,0.0898,0.1962,0.2635,0.2691,0.2691,0.2691,0.2635,0.151,0.0615,-0.0,-0.0617,-0.0898,-0.0898,-0.0898,-0.0898,-0.09,-0.0957,-0.1296,-0.1863,-0.2038,-0.2773,-0.3845,-0.4022,-0.4391,-0.4935,-0.4914,-0.4941,-0.4942,-0.4917,-0.4948,-0.4969,-0.5101,-0.5145,-0.5172,-0.5315,-0.5428,-0.5308,-0.503,-0.5043,-0.5118,-0.4986,-0.4918,-0.4822,-0.4608,-0.4354,-0.4195,-0.4067,-0.3916,-0.3852,-0.3965,-0.4024,-0.3965,-0.3852,-0.3796,-0.3744,-0.3638,-0.3688,-0.3796,-0.3796,-0.3803,-0.3828,-0.3819,0.0,-0.3836,-0.3817,-0.3936,-0.4046,0.0,0.0,0.0,0.0,-0.578,-0.6385,-0.7063,-0.7645,-0.8045,-0.8285,-0.8567,-0.8837,-0.9162,-0.9358,-0.9484,-0.9484,-0.9484,-0.9484,-0.9484,-0.9484,-0.964,-0.9916,-1.023,-1.0496,-1.0773,-1.1015,-1.1111,-1.1111,-1.1111,-1.1111,-1.1111,0.3585,0.3585,0.3585,0.3585,0.3585,0.3638,0.3805,0.3741,0.2845,0.0504,0.0617,0.0898,0.0898,0.0898,0.0898,0.0898,0.0898,0.0898,0.0898,0.1178,0.1737,0.2635,0.2691,0.2577,0.224,0.1566,0.0727,-0.028,-0.0729,-0.0898,-0.0898,-0.0898,-0.091,-0.0932,-0.17,-0.2019,-0.2111,-0.3095,-0.3758,-0.4148,-0.465,-0.5041,-0.5288,-0.5312,-0.527,-0.5287,-0.5264,-0.5257,-0.5264,-0.5294,-0.5308,-0.5315,-0.5415,-0.5428,-0.5415,-0.5277,-0.5281,-0.5301,-0.5267,-0.5071,-0.4931,-0.4918,-0.4673,-0.4445,-0.441,-0.4266,-0.4135,-0.4138,-0.4138,-0.4135,-0.3965,-0.3852,-0.3744,-0.3638,-0.3688,-0.3796,-0.3796,-0.3883,-0.3935,0.0,-0.4047,-0.4058,-0.3939,-0.4226,-0.418,-0.3785,0.0,-0.4517,-0.4829,-0.559,-0.6355,-0.7074,-0.7813,-0.8225,-0.8291,-0.8747,-0.9112,-0.9382,-0.9454,-0.9484,-0.9484,-0.9484,-0.9484,-0.9484,-0.9484,-0.9742,-1.0242,-1.0303,-1.0604,-1.1021,-1.1087,-1.1111,-1.1111,-1.1111,-1.1111,-1.1111,0.353,0.3585,0.3585,0.3585,0.2685,0.1958,0.1958,0.2233,0.2232,0.1734,0.0952,0.0617,0.0898,0.0898,0.0898,0.0898,0.0898,0.0898,0.0898,0.0898,0.1177,0.185,0.185,0.2017,0.2352,0.1454,0.0395,-0.0861,-0.0976,-0.1041,-0.1057,-0.0998,-0.0947,-0.0964,-0.1874,-0.2378,-0.2588,-0.3618,-0.4301,-0.462,-0.5051,-0.5329,-0.5428,-0.5428,-0.5428,-0.5428,-0.5428,-0.5428,-0.5428,-0.5428,-0.5428,-0.5428,-0.5428,-0.5428,-0.5428,-0.5428,-0.5428,-0.5428,-0.5428,-0.5239,-0.5094,-0.5085,-0.4774,-0.4532,-0.4584,-0.4454,-0.4326,-0.4314,-0.4356,-0.4301,-0.4135,-0.3965,-0.3855,-0.3691,-0.3691,-0.3691,-0.3691,-0.3747,-0.3831,-0.392,-0.4033,-0.4078,-0.4085,-0.4314,-0.4415,-0.4223,-0.4411,-0.4729,-0.5155,-0.5868,-0.6463,-0.6858,-0.7816,-0.8288,-0.8293,-0.8932,-0.9334,-0.9484,-0.9484,-0.9484,-0.9484,-0.9484,-0.9484,-0.9484,-0.9484,-0.9778,-1.0327,-1.0327,-1.0641,-1.1111,-1.1111,-1.1111,-1.1111,-1.1111,-1.1111,-1.1111,0.336,0.3474,0.336,0.3079,0.1343,-0.0,-0.0,-0.0,0.0728,0.2798,0.1287,0.0168,0.0729,0.0842,0.0898,0.0898,0.0898,0.0898,0.0898,0.0898,0.0898,0.0898,0.0898,0.1457,0.2691,0.1182,-0.0172,-0.1359,-0.1303,-0.1264,-0.1297,-0.1235,-0.1176,-0.1181,-0.2047,-0.2733,-0.3248,-0.4091,-0.4711,-0.5176,-0.5308,-0.5428,-0.5428,-0.5428,-0.5428,-0.5428,-0.5428,-0.5428,-0.5428,-0.5428,-0.5428,-0.5428,-0.5428,-0.5428,-0.5428,-0.5428,-0.5428,-0.5428,-0.5428,-0.5428,-0.5328,-0.5199,-0.4862,-0.4604,-0.4726,-0.4663,-0.4535,-0.4524,-0.4532,-0.4463,-0.4249,-0.4079,-0.3965,-0.3852,-0.3691,-0.3638,-0.3585,-0.3585,-0.3638,-0.3796,-0.391,-0.4079,-0.4301,-0.4519,-0.4736,-0.5062,-0.5062,-0.5281,-0.5937,-0.6372,-0.6657,-0.6802,-0.7812,-0.8374,-0.8491,-0.9188,-0.9484,-0.9484,-0.9484,-0.9484,-0.9484,-0.9484,-0.9484,-0.9484,-0.9484,-0.9778,-1.0327,-1.0327,-1.0641,-1.1111,-1.1111,-1.1111,-1.1111,-1.1111,-1.1111,-1.1111,0.2802,0.2858,0.2352,0.084,0.0224,-0.0,-0.0,-0.0,0.0112,0.0504,0.0224,0.0056,0.0112,0.0617,0.0898,0.0898,0.0898,0.0898,0.0898,0.0898,0.0898,0.0898,0.0898,0.1457,0.2691,0.0406,-0.0831,-0.1074,-0.1334,-0.1412,-0.1298,-0.1851,-0.2064,-0.1985,-0.3448,-0.414,-0.4167,-0.5042,-0.5384,-0.5328,-0.5418,-0.5428,-0.5428,-0.5428,-0.5428,-0.5428,-0.5428,-0.5428,-0.5428,-0.5428,-0.5428,-0.5428,-0.5428,-0.5428,-0.5428,-0.5428,-0.5428,-0.5428,-0.5428,-0.5428,-0.5422,-0.5332,-0.5209,-0.5028,-0.5004,-0.487,-0.4684,-0.466,-0.4551,-0.4463,-0.4249,-0.4193,-0.4079,-0.3852,-0.3796,-0.3744,-0.3638,-0.3585,-0.3638,-0.3796,-0.3796,-0.4125,-0.4889,-0.4999,-0.5218,-0.5764,-0.5714,-0.5991,-0.6691,-0.6642,-0.6947,-0.7656,-0.8305,-0.8855,-0.9289,-0.9442,-0.9484,-0.9484,-0.9484,-0.9484,-0.9484,-0.9484,-0.9484,-0.9484,-0.9484,-0.9778,-1.0327,-1.0327,-1.0641,-1.1111,-1.1111,-1.1111,-1.1111,-1.1111,-1.1111,-1.1111,0.2691,0.2691,0.241,0.1624,0.0392,-0.0393,-0.0056,-0.0,-0.0,-0.0,-0.0,-0.0,-0.0,0.0224,0.0561,0.0898,0.0956,0.0994,0.0994,0.0933,0.0898,0.0898,0.0898,0.1217,0.1797,-0.0442,-0.158,-0.1546,-0.163,-0.1655,-0.1618,-0.1747,-0.1759,-0.1913,-0.3355,-0.3974,-0.409,-0.5286,-0.5686,-0.5488,-0.5495,-0.5495,-0.5428,-0.5428,-0.5428,-0.5428,-0.5428,-0.5428,-0.5428,-0.5428,-0.5428,-0.5428,-0.5428,-0.5428,-0.5428,-0.5428,-0.5428,-0.5428,-0.5428,-0.5428,-0.5428,-0.5428,-0.5308,-0.5233,-0.5148,-0.5026,-0.4884,-0.4724,-0.4633,-0.4562,-0.4369,-0.4249,-0.4138,-0.4024,-0.391,-0.3796,-0.3688,-0.3638,-0.3691,-0.3959,-0.4128,-0.4349,-0.4846,-0.5222,-0.5605,-0.5878,-0.61,-0.648,-0.6972,-0.7039,-0.7381,-0.808,-0.8515,-0.8965,-0.9478,-0.9484,-0.9484,-0.9484,-0.9484,-0.9484,-0.9484,-0.9484,-0.9484,-0.9484,-0.9484,-0.9778,-1.0327,-1.0327,-1.0641,-1.1111,-1.1111,-1.1111,-1.1111,-1.1111,-1.1111,-1.1111,0.2691,0.2691,0.2691,0.2691,0.1175,-0.0112,-0.0168,-0.0112,-0.0,-0.0,-0.0,-0.0,-0.0,-0.0576,-0.082,-0.0351,0.0575,0.0874,0.0336,0.0247,0.0411,0.0939,0.0469,0.0245,0.0335,-0.1344,-0.2124,-0.2063,-0.1947,-0.1909,-0.1884,-0.1748,-0.1747,-0.1814,-0.3086,-0.3687,-0.3823,-0.5156,-0.562,-0.5418,-0.5557,-0.5564,-0.5428,-0.5428,-0.5428,-0.5428,-0.5428,-0.5428,-0.5428,-0.5428,-0.5428,-0.5428,-0.5428,-0.5428,-0.5428,-0.5428,-0.5428,-0.5428,-0.5428,-0.5428,-0.5428,-0.5428,-0.5428,-0.5328,-0.5209,-0.5155,-0.5067,-0.484,-0.4765,-0.4697,-0.4545,-0.4406,-0.4287,-0.4196,-0.3965,-0.3799,-0.3744,-0.3691,-0.3747,-0.4181,-0.4346,-0.457,-0.4963,-0.5504,-0.5937,-0.61,-0.648,-0.683,-0.7165,-0.7404,-0.7805,-0.8456,-0.8728,-0.9092,-0.9478,-0.9484,-0.9484,-0.9484,-0.9484,-0.9484,-0.9484,-0.9484,-0.9484,-0.9484,-0.9484,-0.9778,-1.0327,-1.0327,-1.0641,-1.1111,-1.1111,-1.1111,-1.1111,-1.1111,-1.1111,-1.1111,0.2691,0.2691,0.2691,0.2691,0.2577,0.168,-0.0505,-0.0336,-0.0,-0.0,-0.0,-0.0,-0.0,-0.2361,-0.3982,-0.3914,-0.0867,0.0202,-0.1817,-0.1936,-0.1062,0.0996,-0.0863,-0.1935,-0.1951,-0.2087,-0.2218,-0.2211,-0.2146,-0.2082,-0.1884,-0.2554,-0.2686,-0.2417,-0.3482,-0.3818,-0.362,-0.4686,-0.5017,-0.4882,-0.5415,-0.5624,-0.5564,-0.5428,-0.5428,-0.5428,-0.5428,-0.5428,-0.5428,-0.5428,-0.5428,-0.5428,-0.5428,-0.5428,-0.5428,-0.5428,-0.5428,-0.5428,-0.5428,-0.5428,-0.5428,-0.5428,-0.5428,-0.5425,-0.5415,-0.5233,-0.5125,-0.5101,-0.4992,-0.4857,-0.4701,-0.4674,-0.4515,-0.4098,-0.4021,-0.3913,-0.3638,-0.3585,-0.3747,-0.4181,-0.4233,-0.4677,-0.5782,-0.5946,-0.6273,-0.6977,-0.7031,-0.7127,-0.7357,-0.7661,-0.8224,-0.9022,-0.9304,-0.9466,-0.9484,-0.9484,-0.9484,-0.9484,-0.9484,-0.9484,-0.9484,-0.9484,-0.9484,-0.9484,-0.9484,-0.9778,-1.0327,-1.0327,-1.0641,-1.1111,-1.1111,-1.1111,-1.1111,-1.1111,-1.1111,-1.1111,0.2579,0.2691,0.2691,0.2691,0.2691,0.1903,-0.0505,-0.0393,-0.0,-0.0,-0.0,-0.0,-0.0,-0.2568,-0.43,-0.43,-0.3019,-0.2616,-0.3429,-0.269,-0.1817,-0.1008,-0.1749,-0.2221,-0.2221,-0.2221,-0.2221,-0.2221,-0.2221,-0.2154,-0.2087,-0.222,-0.2285,-0.2285,-0.3021,-0.3286,-0.3418,-0.4553,-0.4888,-0.4755,-0.5686,-0.6007,-0.5891,-0.5635,-0.5684,-0.5849,-0.5706,-0.5674,-0.5637,-0.5555,-0.5504,-0.5488,-0.5459,-0.5428,-0.5428,-0.5428,-0.5428,-0.5428,-0.5428,-0.5428,-0.5428,-0.5428,-0.5428,-0.5428,-0.5428,-0.5315,-0.5247,-0.5148,-0.5087,-0.5006,-0.486,-0.4755,-0.4612,-0.4441,-0.4191,-0.4079,-0.4249,-0.4076,-0.4239,-0.4956,-0.5066,-0.5289,-0.5845,-0.6218,-0.6485,-0.6539,-0.7214,-0.7566,-0.7491,-0.7837,-0.8393,-0.8989,-0.9163,-0.9285,-0.9484,-0.9484,-0.9484,-0.9484,-0.9484,-0.9484,-0.9484,-0.9484,-0.9484,-0.9484,-0.9484,-0.9778,-1.0327,-1.0679,-1.1133,-1.1632,-1.1632,-1.1632,-1.1632,-1.126,-1.1111,-1.1111,0.1231,0.1455,0.1568,0.1568,0.1568,0.1008,-0.0673,-0.0561,-0.0224,-0.0,-0.0,-0.0,-0.0,-0.2562,-0.43,-0.43,-0.43,-0.43,-0.43,-0.296,-0.2221,-0.2221,-0.2221,-0.2221,-0.2221,-0.2221,-0.2221,-0.2221,-0.2221,-0.2221,-0.2221,-0.2085,-0.2018,-0.2154,-0.2488,-0.2686,-0.2817,-0.3751,-0.4289,-0.4631,-0.5996,-0.6521,-0.641,-0.6165,-0.6062,-0.6078,-0.5922,-0.5855,-0.5808,-0.5711,-0.5657,-0.5637,-0.5532,-0.5467,-0.5433,-0.5433,-0.5466,-0.5428,-0.5428,-0.5428,-0.5428,-0.5428,-0.5428,-0.5428,-0.5428,-0.5428,-0.5332,-0.5158,-0.5138,-0.5159,-0.4954,-0.484,-0.4813,-0.471,-0.4346,-0.4198,-0.465,-0.4432,-0.4567,-0.5508,-0.5622,-0.5677,-0.5905,-0.6277,-0.6465,-0.6308,-0.7119,-0.7676,-0.7824,-0.8104,-0.8593,-0.9145,-0.9081,-0.9151,-0.9484,-0.9484,-0.9484,-0.9484,-0.9484,-0.9484,-0.9484,-0.9484,-0.9484,-0.9484,-0.967,-1.0042,-1.0604,-1.1224,-1.1777,-1.2224,-1.2077,-1.2003,-1.1929,-1.1335,-1.1111,-1.1111,-0.1459,-0.1291,-0.0898,-0.0898,-0.0898,-0.0898,-0.0898,-0.0898,-0.0673,-0.0112,-0.0,-0.0,-0.0,-0.2552,-0.43,-0.43,-0.43,-0.43,-0.43,-0.3025,-0.2221,-0.2221,-0.2221,-0.2221,-0.2221,-0.2221,-0.2221,-0.2221,-0.2221,-0.2221,-0.2221,-0.2221,-0.2087,-0.1951,-0.2087,-0.2085,-0.1817,-0.2087,-0.3021,-0.4442,-0.6246,-0.7032,-0.707,-0.6878,-0.6541,-0.6124,-0.6106,-0.5986,-0.5803,-0.5803,-0.5803,-0.5803,-0.58,-0.5705,-0.5593,-0.5589,-0.5484,-0.5428,-0.5428,-0.5428,-0.5428,-0.5428,-0.5428,-0.5428,-0.5428,-0.5428,-0.5359,-0.5156,-0.5292,-0.5318,-0.498,-0.5008,-0.5021,-0.4755,-0.4433,-0.4345,-0.4632,-0.4442,-0.4567,-0.5513,-0.5622,-0.5786,-0.6178,-0.6178,-0.6262,-0.6459,-0.6825,-0.7486,-0.8561,-0.8573,-0.8835,-0.9484,-0.9215,-0.9151,-0.9484,-0.9484,-0.9484,-0.9484,-0.9484,-0.9484,-0.9484,-0.9484,-0.9484,-0.9548,-1.0053,-1.0634,-1.123,-1.1778,-1.2347,-1.2826,-1.2224,-1.2003,-1.1929,-1.1335,-1.1111,-1.1186,-0.1459,-0.1291,-0.0898,-0.0898,-0.0898,-0.0898,-0.0898,-0.0898,-0.0842,-0.0673,-0.0243,-0.0,-0.0,-0.074,-0.2087,-0.4126,-0.4311,-0.43,-0.43,-0.3897,-0.3228,-0.2221,-0.2221,-0.2221,-0.2221,-0.2221,-0.2221,-0.2221,-0.2221,-0.2221,-0.2221,-0.2221,-0.242,-0.2817,-0.2354,-0.2488,-0.3021,-0.2421,-0.2421,-0.3115,-0.6124,-0.7401,-0.7388,-0.7294,-0.7116,-0.6779,-0.6538,-0.6353,-0.6108,-0.6,-0.5962,-0.5942,-0.5833,-0.5772,-0.5718,-0.562,-0.5559,-0.5498,-0.5459,-0.5428,-0.5428,-0.5428,-0.5428,-0.5428,-0.5428,-0.5428,-0.5362,-0.5292,-0.5359,-0.5348,-0.5239,-0.5142,-0.5051,-0.5011,-0.5118,-0.5273,-0.5339,-0.5559,-0.5819,-0.6023,-0.6009,-0.6064,-0.6178,-0.6304,-0.6407,-0.6468,-0.7333,-0.8259,-0.915,-0.936,-0.9594,-1.0053,-1.0028,-1.0218,-1.0548,-0.9862,-0.9484,-0.9484,-0.9484,-0.9484,-0.9484,-0.9862,-1.0053,-1.0123,-1.0904,-1.1414,-1.1792,-1.2622,-1.3167,-1.347,-1.2893,-1.2886,-1.3178,-1.2077,-1.2003,-1.2378,-0.0505,-0.0842,-0.0898,-0.0898,-0.0898,-0.0898,-0.0898,-0.0898,-0.0898,-0.0898,-0.0626,-0.0337,-0.0,-0.0,-0.0674,-0.2432,-0.3636,-0.43,-0.43,-0.43,-0.3899,-0.3094,-0.2691,-0.2357,-0.2221,-0.2221,-0.2221,-0.2221,-0.2221,-0.2221,-0.2221,-0.2255,-0.2679,-0.3494,-0.3496,-0.3799,-0.4407,-0.4331,-0.4285,-0.4451,-0.6625,-0.7484,-0.7484,-0.7484,-0.7407,-0.7176,-0.6876,-0.6567,-0.6398,-0.6152,-0.6122,-0.6105,-0.601,-0.5942,-0.5874,-0.5789,-0.5681,-0.5569,-0.5477,-0.5406,-0.5428,-0.5428,-0.5428,-0.5428,-0.5428,-0.5428,-0.5362,-0.5292,-0.5359,-0.5425,-0.5624,-0.5542,-0.5542,-0.5921,-0.6025,-0.6115,-0.6369,-0.6461,-0.6515,-0.6546,-0.6482,-0.6389,-0.6304,-0.6482,-0.6695,-0.6953,-0.7952,-0.8857,-0.9588,-0.9716,-1.0034,-1.0555,-1.0528,-1.0654,-1.0982,-1.0421,-1.011,-1.011,-1.011,-1.011,-1.011,-1.0428,-1.0555,-1.0631,-1.1517,-1.202,-1.2405,-1.3278,-1.3823,-1.4057,-1.3477,-1.347,-1.3688,-1.2739,-1.2599,-1.2893,0.0898,-0.0,-0.0785,-0.0898,-0.0898,-0.0898,-0.0898,-0.0898,-0.0901,-0.0855,-0.1135,-0.1144,-0.0472,-0.0471,-0.0471,-0.0404,-0.2755,-0.43,-0.43,-0.43,-0.43,-0.4233,-0.3433,-0.276,-0.2287,-0.2221,-0.2288,-0.2356,-0.2356,-0.2356,-0.2223,-0.2505,-0.3043,-0.3834,-0.4891,-0.5545,-0.5865,-0.6992,-0.7484,-0.7484,-0.7484,-0.7484,-0.7407,-0.7403,-0.7407,-0.733,-0.7034,-0.6721,-0.6563,-0.6338,-0.6338,-0.6338,-0.6338,-0.6166,-0.6047,-0.6034,-0.584,-0.5623,-0.5596,-0.5488,-0.5446,-0.5432,-0.5428,-0.5428,-0.5428,-0.5428,-0.5359,-0.5156,-0.5292,-0.5557,-0.6013,-0.6017,-0.6214,-0.719,-0.6976,-0.6849,-0.7581,-0.7218,-0.6958,-0.7109,-0.6973,-0.6776,-0.652,-0.6752,-0.7147,-0.7741,-0.8573,-0.9268,-0.9837,-0.9901,-1.0281,-1.1045,-1.0843,-1.0843,-1.1115,-1.1115,-1.1108,-1.0982,-1.0982,-1.0982,-1.0982,-1.1045,-1.1045,-1.1129,-1.199,-1.257,-1.2931,-1.3791,-1.4347,-1.4569,-1.3977,-1.3833,-1.3833,-1.3185,-1.3039,-1.3112,0.0898,0.0673,0.0224,-0.0729,-0.0898,-0.0898,-0.0898,-0.0898,-0.0757,-0.0257,-0.2195,-0.3511,-0.336,-0.3889,-0.402,-0.3426,-0.3964,-0.43,-0.43,-0.43,-0.4164,-0.3758,-0.3897,-0.3694,-0.3017,-0.2487,-0.2758,-0.383,-0.383,-0.3295,-0.2221,-0.4456,-0.4508,-0.2682,-0.426,-0.5571,-0.6721,-0.7266,-0.7484,-0.7484,-0.7484,-0.7099,-0.6567,-0.6945,-0.6868,-0.6567,-0.6644,-0.6567,-0.6338,-0.6338,-0.6338,-0.6338,-0.6338,-0.6237,-0.6186,-0.6064,-0.5983,-0.5884,-0.5654,-0.5566,-0.5511,-0.5459,-0.5428,-0.5428,-0.5428,-0.5428,-0.5362,-0.5359,-0.5362,-0.5624,-0.6207,-0.6079,-0.6148,-0.6859,-0.7353,-0.7595,-0.7298,-0.7855,-0.805,-0.7393,-0.7294,-0.7126,-0.679,-0.7218,-0.7746,-0.8292,-0.9111,-0.9779,-1.0174,-1.0919,-1.1428,-1.1615,-1.1988,-1.2174,-1.2243,-1.2243,-1.1802,-1.0982,-1.0982,-1.0982,-1.0982,-1.1428,-1.1615,-1.1707,-1.2814,-1.338,-1.349,-1.4198,-1.4498,-1.4569,-1.3977,-1.4049,-1.4346,-1.384,-1.384,-1.4274,-0.1671,-0.0447,0.0673,0.0056,-0.1453,-0.2738,-0.3032,-0.306,-0.2943,-0.2594,-0.3569,-0.4317,-0.4303,-0.4634,-0.4697,-0.4367,-0.43,-0.43,-0.43,-0.4746,-0.4878,-0.4503,-0.4834,-0.4815,-0.4254,-0.4374,-0.4659,-0.5292,-0.5686,-0.5477,-0.4746,-0.6271,-0.615,-0.4814,-0.5113,-0.601,-0.7216,-0.7403,-0.7787,-0.8246,-0.771,-0.7253,-0.6872,-0.7099,-0.6945,-0.6721,-0.6714,-0.6791,-0.6949,-0.733,-0.7484,-0.7484,-0.7484,-0.7484,-0.731,-0.684,-0.6682,-0.6434,-0.5913,-0.5698,-0.5569,-0.5491,-0.5416,-0.5428,-0.5428,-0.5428,-0.5491,-0.5818,-0.5881,-0.6207,-0.7181,-0.6994,-0.6933,-0.7777,-0.7977,-0.7947,-0.7766,-0.8265,-0.8368,-0.7634,-0.7639,-0.7514,-0.7144,-0.7686,-0.8313,-0.8823,-0.9594,-1.0288,-1.0996,-1.149,-1.1934,-1.2182,-1.2436,-1.2621,-1.2621,-1.2621,-1.2313,-1.174,-1.174,-1.174,-1.174,-1.1926,-1.212,-1.2212,-1.297,-1.336,-1.3497,-1.4307,-1.4569,-1.4569,-1.4274,-1.4346,-1.4569,-1.4274,-1.4346,-1.4569,-0.3901,-0.2171,-0.0168,-0.0168,-0.2723,-0.4963,-0.5349,-0.5428,-0.5428,-0.5428,-0.4897,-0.4434,-0.43,-0.43,-0.43,-0.43,-0.43,-0.4364,-0.4556,-0.5387,-0.5789,-0.5519,-0.58,-0.5852,-0.5672,-0.6368,-0.6761,-0.6576,-0.7373,-0.7602,-0.7486,-0.7647,-0.771,-0.7633,-0.6553,-0.6633,-0.7484,-0.7484,-0.8093,-0.9008,-0.8241,-0.7859,-0.7859,-0.7936,-0.7787,-0.7403,-0.7322,-0.7403,-0.771,-0.8551,-0.8856,-0.8856,-0.8699,-0.8703,-0.8546,-0.7863,-0.7601,-0.7319,-0.6626,-0.6281,-0.6069,-0.6011,-0.5894,-0.5789,-0.5763,-0.5624,-0.5752,-0.6268,-0.6465,-0.6985,-0.8291,-0.7972,-0.7782,-0.8759,-0.8371,-0.8117,-0.8382,-0.8511,-0.8436,-0.7991,-0.8068,-0.8047,-0.7912,-0.8376,-0.8894,-0.946,-1.0168,-1.0926,-1.174,-1.1872,-1.212,-1.2567,-1.2621,-1.2621,-1.2621,-1.2621,-1.2621,-1.2621,-1.2621,-1.2621,-1.256,-1.2436,-1.2428,-1.2583,-1.286,-1.3063,-1.3346,-1.426,-1.4569,-1.4569,-1.4569,-1.4569,-1.4569,-1.4569,-1.4569,-1.4569,-0.1512,-0.3123,-0.4457,-0.4457,-0.5374,-0.5982,-0.5481,-0.5428,-0.5428,-0.5428,-0.5296,-0.503,-0.4367,-0.43,-0.43,-0.43,-0.43,-0.4683,-0.5632,-0.5793,-0.5881,-0.5811,-0.6048,-0.6283,-0.6631,-0.6752,-0.7024,-0.7451,-0.8144,-0.816,-0.7488,-0.8197,-0.8551,-0.8475,-0.7633,-0.733,-0.7484,-0.7484,-0.8093,-0.916,-0.9448,-0.9442,-0.9372,-0.9744,-0.9448,-0.8775,-0.8694,-0.8318,-0.8016,-0.9003,-0.9387,-0.9311,-0.8851,-0.8703,-0.8703,-0.8546,-0.8528,-0.8468,-0.8213,-0.8125,-0.8001,-0.7573,-0.7464,-0.74,-0.7166,-0.6666,-0.6268,-0.64,-0.6859,-0.7517,-0.8361,-0.7972,-0.7722,-0.8447,-0.8247,-0.7987,-0.8052,-0.8571,-0.8941,-0.9099,-0.879,-0.8871,-0.9448,-0.9332,-0.9524,-1.0268,-1.1101,-1.1677,-1.1802,-1.2251,-1.2498,-1.2621,-1.2621,-1.2621,-1.2621,-1.2621,-1.2621,-1.2621,-1.2621,-1.2621,-1.2621,-1.256,-1.256,-1.2653,-1.306,-1.3275,-1.3346,-1.426,-1.4569,-1.4569,-1.4569,-1.4569,-1.4569,-1.4569,-1.4569,-1.4569,-0.101,-0.1956,-0.337,-0.509,-0.5634,-0.5756,-0.5428,-0.5428,-0.5428,-0.5428,-0.5428,-0.5296,-0.4964,-0.4567,-0.4761,-0.6013,-0.6079,-0.6264,-0.6767,-0.6789,-0.6675,-0.635,-0.6806,-0.7207,-0.7389,-0.7606,-0.8019,-0.8687,-0.8702,-0.8322,-0.7484,-0.7863,-0.8016,-0.8016,-0.7633,-0.7484,-0.7484,-0.7484,-0.847,-0.9981,-1.0276,-1.0351,-1.0426,-1.0201,-0.9674,-0.915,-0.9231,-0.9079,-0.8927,-1.0062,-1.0363,-1.0363,-1.0132,-1.0056,-0.9981,-0.9539,-0.9387,-0.9286,-0.8736,-0.8551,-0.8384,-0.8079,-0.7917,-0.7702,-0.7433,-0.7512,-0.7572,-0.7572,-0.7837,-0.8231,-0.8952,-0.8501,-0.8247,-0.87,-0.8177,-0.7852,-0.8247,-0.8759,-0.9396,-0.9894,-0.9576,-0.9256,-0.9192,-0.9576,-0.9958,-1.0205,-1.1226,-1.1934,-1.2243,-1.2498,-1.2621,-1.2621,-1.2621,-1.2621,-1.2621,-1.2621,-1.2621,-1.2621,-1.2621,-1.2621,-1.2621,-1.2498,-1.2498,-1.2653,-1.2924,-1.327,-1.3696,-1.4363,-1.4569,-1.4569,-1.4569,-1.4569,-1.4569,-1.4569,-1.4569,-1.4569]},{"header":{"parameterUnit":"m.s-1","parameterCategory":1,"la1":30.6,"la2":28.766,"lo1":-90.7593,"lo2":-88.6598,"dy":0.0162,"dx":0.0183,"nx":116,"ny":114,"refTime":"2024-05-17T12:00:00:Z","depth":0,"parameterNumber":3,"parameterNumberName":"V-component_of_WINDS"},"data":[0.0,0.0,0.0,0.0,0.0,0.0,0.0,0.0,0.0,0.0,0.0,0.0,0.0,0.0,0.0,0.0,0.0,0.0,0.0,0.0,0.0,0.0,0.0,0.0,0.0,0.0,0.0,0.0,0.0,0.0,0.0,0.0,0.0,0.0,0.0,0.0,0.0,0.0,0.0,0.0,0.0,0.0,0.0,0.0,0.0,0.0,0.0,0.0,0.0,0.0,0.0,0.0,0.0,0.0,0.0,0.0,0.0,0.0,0.0,0.0,0.0,0.0,0.0,0.0,0.0,0.0,0.0,0.0,0.0,0.0,0.0,0.0,0.0,0.0,0.0,0.0,0.0,0.0,0.0,0.0,0.0,0.0,0.0,0.0,0.0,0.0,0.0,0.0,0.0,0.0,0.0,0.0,0.0,0.0,0.0,0.0,0.0,0.0,0.0,0.0,0.0,0.0,0.0,0.0,0.0,0.0,0.0,0.0,0.0,0.0,0.0,0.0,0.0,0.0,0.0,0.0,0.0,0.0,0.0,0.0,0.0,0.0,0.0,0.0,0.0,0.0,0.0,0.0,0.0,0.0,0.0,0.0,0.0,0.0,0.0,0.0,0.0,0.0,0.0,0.0,0.0,0.0,0.0,0.0,0.0,0.0,0.0,0.0,0.0,0.0,0.0,0.0,0.0,0.0,0.0,0.0,0.0,0.0,0.0,0.0,0.0,0.0,0.0,0.0,0.0,0.0,0.0,0.0,0.0,0.0,0.0,0.0,0.0,0.0,0.0,0.0,0.0,0.0,0.0,0.0,0.0,0.0,0.0,0.0,0.0,0.0,0.0,0.0,0.0,0.0,0.0,0.0,0.0,0.0,0.0,0.0,0.0,0.0,0.0,0.0,0.0,0.0,0.0,0.0,0.0,0.0,0.0,0.0,0.0,0.0,0.0,0.0,0.0,0.0,0.0,0.0,0.0,0.0,0.0,0.0,0.0,0.0,0.0,0.0,0.0,0.0,0.0,0.0,0.0,0.0,0.0,0.0,0.0,0.0,0.0,0.0,0.0,0.0,0.0,0.0,0.0,0.0,0.0,0.0,0.0,0.0,0.0,0.0,0.0,0.0,0.0,0.0,0.0,0.0,0.0,0.0,0.0,0.0,0.0,0.0,0.0,0.0,0.0,0.0,0.0,0.0,0.0,0.0,0.0,0.0,0.0,0.0,0.0,0.0,0.0,0.0,0.0,0.0,0.0,0.0,0.0,0.0,0.0,0.0,0.0,0.0,0.0,0.0,0.0,0.0,0.0,0.0,0.0,0.0,0.0,0.0,0.0,0.0,0.0,0.0,0.0,0.0,0.0,0.0,0.0,0.0,0.0,0.0,0.0,0.0,0.0,0.0,0.0,0.0,0.0,0.0,0.0,0.0,0.0,0.0,0.0,0.0,0.0,0.0,0.0,0.0,0.0,0.0,0.0,0.0,0.0,0.0,0.0,0.0,0.0,0.0,0.0,0.0,0.0,0.0,0.0,0.0,0.0,0.0,0.0,0.0,0.0,0.0,0.0,0.0,0.0,0.0,0.0,0.0,0.0,0.0,0.0,0.0,0.0,0.0,0.0,0.0,0.0,0.0,0.0,0.0,0.0,0.0,0.0,0.0,0.0,0.0,0.0,0.0,0.0,0.0,0.0,0.0,0.0,0.0,0.0,0.0,0.0,0.0,0.0,0.0,0.0,0.0,0.0,0.0,0.0,0.0,0.0,0.0,0.0,0.0,0.0,0.0,0.0,0.0,0.0,0.0,0.0,0.0,0.0,0.0,0.0,0.0,0.0,0.0,0.0,0.0,0.0,0.0,0.0,0.0,0.0,0.0,0.0,0.0,0.0,0.0,0.0,0.0,0.0,0.0,0.0,0.0,0.0,0.0,0.0,0.0,0.0,0.0,0.0,0.0,0.0,0.0,0.0,0.0,0.0,0.0,0.0,0.0,0.0,0.0,0.0,0.0,0.0,0.0,0.0,0.0,0.0,0.0,0.0,0.0,0.0,0.0,0.0,0.0,0.0,0.0,0.0,0.0,0.0,0.0,0.0,0.0,0.0,0.0,0.0,0.0,0.0,0.0,0.0,0.0,0.0,0.0,0.0,0.0,0.0,0.0,0.0,0.0,0.0,0.0,0.0,0.0,0.0,0.0,0.0,0.0,0.0,0.0,0.0,0.0,0.0,0.0,0.0,0.0,0.0,0.0,0.0,0.0,0.0,0.0,0.0,0.0,0.0,0.0,0.0,0.0,0.0,0.0,0.0,0.0,0.0,0.0,0.0,0.0,0.0,0.0,0.0,0.0,0.0,0.0,0.0,0.0,0.0,0.0,0.0,0.0,0.0,0.0,0.0,0.0,0.0,0.0,0.0,0.0,0.0,0.0,0.0,0.0,0.0,0.0,0.0,0.0,0.0,0.0,0.0,0.0,0.0,0.0,0.0,0.0,0.0,0.0,0.0,0.0,0.0,0.0,0.0,0.0,0.0,0.0,0.0,0.0,0.0,0.0,0.0,0.0,0.0,0.0,0.0,0.0,0.0,0.0,0.0,0.0,0.0,0.0,0.0,0.0,0.0,0.0,0.0,0.0,0.0,0.0,0.0,0.0,0.0,0.0,0.0,0.0,0.0,0.0,0.0,0.0,0.0,0.0,0.0,0.0,0.0,0.0,0.0,0.0,0.0,0.0,0.0,0.0,0.0,0.0,0.0,0.0,0.0,0.0,0.0,0.0,0.0,0.0,0.0,0.0,0.0,0.0,0.0,0.0,0.0,0.0,0.0,0.0,0.0,0.0,0.0,0.0,0.0,0.0,0.0,0.0,0.0,0.0,0.0,0.0,0.0,0.0,0.0,0.0,0.0,0.0,0.0,0.0,0.0,0.0,0.0,0.0,0.0,0.0,0.0,0.0,0.0,0.0,0.0,0.0,0.0,0.0,0.0,0.0,0.0,0.0,0.0,0.0,0.0,0.0,0.0,0.0,0.0,0.0,0.0,0.0,0.0,0.0,0.0,0.0,0.0,0.0,0.0,0.0,0.0,0.0,0.0,0.0,0.0,0.0,0.0,0.0,0.0,0.0,0.0,0.0,0.0,0.0,0.0,0.0,0.0,0.0,0.0,0.0,0.0,0.0,0.0,0.0,0.0,0.0,0.0,0.0,0.0,0.0,0.0,0.0,0.0,0.0,0.0,0.0,0.0,0.0,0.0,0.0,0.0,0.0,0.0,0.0,0.0,0.0,0.0,0.0,0.0,0.0,0.0,0.0,0.0,0.0,0.0,0.0,0.0,0.0,0.0,0.0,0.0,0.0,0.0,0.0,0.0,0.0,0.0,0.0,0.0,0.0,0.0,0.0,0.0,0.0,0.0,0.0,0.0,0.0,0.0,0.0,0.0,0.0,0.0,0.0,0.0,0.0,0.0,0.0,0.0,0.0,0.0,0.0,0.0,0.0,0.0,0.0,0.0,0.0,0.0,0.0,0.0,0.0,0.0,0.0,0.0,0.0,0.0,0.0,0.0,0.0,0.0,0.0,0.0,0.0,0.0,0.0,0.0,0.0,0.0,0.0,0.0,0.0,0.0,0.0,0.0,0.0,0.0,0.0,0.0,0.0,0.0,0.0,0.0,0.0,0.0,0.0,0.0,0.0,0.0,0.0,0.0,0.0,0.0,0.0,0.0,0.0,0.0,0.0,0.0,0.0,0.0,0.0,0.0,0.0,0.0,0.0,0.0,0.0,0.0,0.0,0.0,0.0,0.0,0.0,0.0,0.0,0.0,0.0,0.0,0.0,0.0,0.0,0.0,0.0,0.0,0.0,0.0,0.0,0.0,0.0,0.0,0.0,0.0,0.0,0.0,0.0,0.0,0.0,0.0,0.0,0.0,0.0,0.0,0.0,0.0,0.0,0.0,0.0,0.0,0.0,0.0,0.0,0.0,0.0,0.0,0.0,0.0,0.0,0.0,0.0,0.0,0.0,0.0,0.0,0.0,0.0,0.0,0.0,0.0,0.0,0.0,0.0,0.0,0.0,0.0,0.0,0.0,0.0,0.0,0.0,0.0,0.0,0.0,0.0,0.0,0.0,0.0,0.0,0.0,0.0,0.0,0.0,0.0,0.0,0.0,0.0,0.0,0.0,0.0,0.0,0.0,0.0,0.0,0.0,0.0,0.0,0.0,0.0,0.0,0.0,0.0,0.0,0.0,0.0,0.0,0.0,0.0,0.0,0.0,0.0,0.0,0.0,0.0,0.0,0.0,0.0,0.0,0.0,0.0,0.0,0.0,0.0,0.0,0.0,0.0,0.0,0.0,0.0,0.0,0.0,0.0,0.0,0.0,0.0,0.0,0.0,0.0,0.0,0.0,0.0,0.0,0.0,0.0,0.0,0.0,0.0,0.0,0.0,0.0,0.0,0.0,0.0,0.0,0.0,0.0,0.0,0.0,0.0,0.0,0.0,0.0,0.0,0.0,0.0,0.0,0.0,0.0,0.0,0.0,0.0,0.0,0.0,0.0,0.0,0.0,0.0,0.0,0.0,0.0,0.0,0.0,0.0,0.0,0.0,0.0,0.0,0.0,0.0,0.0,0.0,0.0,0.0,0.0,0.0,0.0,0.0,0.0,0.0,0.0,0.0,0.0,0.0,0.0,0.0,0.0,0.0,0.0,0.0,0.0,0.0,0.0,0.0,0.0,0.0,0.0,0.0,0.0,0.0,0.0,0.0,0.0,0.0,0.0,0.0,0.0,0.0,0.0,0.0,0.0,0.0,0.0,0.0,0.0,0.0,0.0,0.0,0.0,0.0,0.0,0.0,0.0,0.0,0.0,0.0,0.0,0.0,0.0,0.0,0.0,0.0,0.0,0.0,0.0,0.0,0.0,0.0,0.0,0.0,0.0,0.0,0.0,0.0,0.0,0.0,0.0,0.0,0.0,0.0,0.0,0.0,0.0,0.0,0.0,0.0,0.0,0.0,0.0,0.0,0.0,0.0,0.0,0.0,0.0,0.0,0.0,0.0,0.0,0.0,0.0,0.0,0.0,0.0,0.0,0.0,0.0,0.0,0.0,0.0,0.0,0.0,0.0,0.0,0.0,0.0,0.0,0.0,0.0,0.0,0.0,0.0,0.0,0.0,0.0,0.0,0.0,0.0,0.0,0.0,0.0,0.0,0.0,0.0,0.0,0.0,0.0,0.0,0.0,0.0,0.0,0.0,0.0,0.0,0.0,0.0,0.0,0.0,0.0,0.0,0.0,0.0,0.0,0.0,0.0,0.0,0.0,0.0,0.0,0.0,0.0,0.0,0.0,0.0,0.0,0.0,0.0,0.0,0.0,0.0,0.0,0.0,0.0,0.0,0.0,0.0,0.0,0.0,0.0,0.0,0.0,0.0,0.0,0.0,0.0,0.0,0.0,0.0,0.0,0.0,0.0,0.0,0.0,0.0,0.0,0.0,0.0,0.0,0.0,0.0,0.0,0.0,0.0,0.0,0.0,0.0,0.0,0.0,0.0,0.0,0.0,0.0,0.0,0.0,0.0,0.0,0.0,0.0,0.0,0.0,0.0,0.0,0.0,0.0,0.0,0.0,0.0,0.0,0.0,0.0,0.0,0.0,0.0,0.0,0.0,0.0,0.0,0.0,0.0,0.0,0.0,0.0,0.0,0.0,0.0,0.0,0.0,0.0,0.0,0.0,0.0,0.0,0.0,0.0,0.0,0.0,0.0,0.0,0.0,0.0,0.0,0.0,0.0,0.0,0.0,0.0,0.0,0.0,0.0,0.0,0.0,0.0,0.0,0.0,0.0,0.0,0.0,0.0,0.0,0.0,0.0,0.0,0.0,0.0,0.0,0.0,0.0,0.0,0.0,0.0,0.0,0.0,0.0,0.0,0.0,0.0,0.0,0.0,0.0,0.0,0.0,0.0,0.0,0.0,0.0,0.0,0.0,0.0,0.0,0.0,0.0,0.0,0.0,0.0,0.0,0.0,0.0,0.0,0.0,0.0,0.0,0.0,0.0,0.0,0.0,0.0,0.0,0.0,0.0,0.0,0.0,0.0,0.0,0.0,0.0,0.0,0.0,0.0,0.0,0.0,0.0,0.0,0.0,0.0,-1.4035,0.0,0.0,0.0,0.0,0.0,0.0,0.0,0.0,0.0,0.0,0.0,0.0,0.0,0.0,0.0,0.0,0.0,0.0,0.0,0.0,0.0,0.0,0.0,0.0,-0.6589,-0.7017,-0.6824,-0.6828,-0.6765,-0.6549,0.0,0.0,0.0,0.0,0.0,-0.643,-0.643,-0.6561,-0.6818,-0.7136,-0.7585,-0.8135,-0.7655,-0.7269,-0.6931,0.0,0.0,0.0,0.0,0.0,0.0,0.0,0.0,0.0,0.0,0.0,0.0,0.0,0.0,0.0,0.0,0.0,0.0,0.0,0.0,0.0,0.0,0.0,0.0,0.0,0.0,0.0,0.0,0.0,0.0,0.0,0.0,0.0,0.0,0.0,0.0,0.0,0.0,0.0,0.0,0.0,0.0,0.0,0.0,0.0,0.0,0.0,0.0,0.0,0.0,0.0,0.0,0.0,0.0,0.0,0.0,0.0,0.0,0.0,0.0,0.0,0.0,0.0,0.0,0.0,0.0,0.0,0.0,0.0,0.0,0.0,-1.5731,0.0,0.0,0.0,0.0,0.0,0.0,0.0,0.0,0.0,0.0,0.0,0.0,0.0,0.0,0.0,0.0,0.0,0.0,0.0,0.0,0.0,-0.5686,-0.6256,-0.678,-0.702,-0.6874,-0.6944,-0.6944,-0.6781,-0.6927,0.0,0.0,0.0,-0.6967,-0.6924,-0.6908,-0.7166,-0.7705,-0.7914,-0.8625,-0.9786,-0.8932,-0.8652,-0.874,-0.7481,0.0,0.0,0.0,0.0,0.0,0.0,0.0,0.0,0.0,0.0,0.0,0.0,0.0,0.0,0.0,0.0,0.0,0.0,0.0,0.0,0.0,0.0,0.0,0.0,0.0,0.0,0.0,0.0,0.0,0.0,0.0,0.0,0.0,0.0,0.0,0.0,0.0,0.0,0.0,0.0,0.0,0.0,0.0,0.0,0.0,0.0,0.0,0.0,0.0,0.0,0.0,0.0,0.0,0.0,0.0,0.0,0.0,0.0,0.0,0.0,0.0,0.0,0.0,-2.0335,-2.034,-2.0175,-2.0228,-2.1038,-2.2272,-1.9656,-1.9052,-1.9804,-1.7918,0.0,0.0,0.0,0.0,0.0,0.0,0.0,0.0,0.0,0.0,0.0,0.0,0.0,0.0,0.0,0.0,0.0,0.0,0.0,-0.6229,-0.6367,-0.6816,-0.7091,-0.7058,-0.7075,-0.7072,-0.705,-0.7066,0.0,0.0,-0.7,-0.6997,-0.6997,-0.6937,-0.7166,-0.7705,-0.8743,-0.9852,-1.0978,-1.0847,-1.1227,-1.1838,-0.8424,-0.691,-0.6903,0.0,0.0,0.0,0.0,0.0,0.0,0.0,0.0,0.0,0.0,0.0,0.0,0.0,0.0,0.0,0.0,0.0,0.0,0.0,0.0,0.0,0.0,0.0,0.0,0.0,0.0,0.0,0.0,0.0,0.0,0.0,0.0,0.0,0.0,0.0,0.0,0.0,0.0,0.0,0.0,0.0,-1.0683,-1.1466,0.0,0.0,0.0,0.0,0.0,0.0,0.0,0.0,0.0,0.0,0.0,0.0,0.0,-1.6114,-1.8626,-2.2151,-2.3848,-2.3725,-2.4222,-2.4423,-2.4388,-2.4408,-2.4584,-2.482,-2.4398,0.0,-2.1737,-2.1436,0.0,0.0,0.0,0.0,0.0,0.0,0.0,0.0,0.0,0.0,0.0,0.0,0.0,0.0,0.0,0.0,0.0,0.0,0.0,0.0,0.0,-0.7416,-0.7721,-0.7721,-0.7951,-0.7969,-0.7631,-0.7604,-0.7438,-0.7066,-0.705,-0.7046,-0.6997,-0.7305,-0.8074,-0.9325,-1.078,-1.1913,-1.2712,-1.2696,-1.3103,-1.3838,-1.2381,-1.139,-1.073,-1.006,0.0,0.0,0.0,0.0,0.0,0.0,0.0,0.0,0.0,0.0,0.0,0.0,0.0,0.0,0.0,0.0,0.0,0.0,0.0,0.0,0.0,0.0,0.0,0.0,0.0,0.0,0.0,0.0,0.0,0.0,0.0,0.0,0.0,0.0,0.0,0.0,0.0,0.0,0.0,-1.1136,-1.2458,-1.2716,-1.3067,-1.3086,0.0,0.0,0.0,0.0,0.0,0.0,0.0,0.0,0.0,-1.9154,-1.9314,-2.0398,-2.2529,-2.4667,-2.5401,-2.484,-2.515,-2.5509,-2.5946,-2.6581,-2.7141,-2.7635,-2.823,-2.7799,-2.6509,-2.4432,-2.2998,-2.1996,0.0,0.0,0.0,0.0,-2.106,-2.0914,0.0,0.0,0.0,0.0,0.0,0.0,0.0,0.0,0.0,0.0,0.0,0.0,-0.7606,-0.7965,-0.8223,-0.8411,-0.8722,-0.8698,-0.8257,-0.8118,-0.7828,-0.7357,-0.7196,-0.7166,-0.7243,-0.8131,-0.9453,-1.1269,-1.2638,-1.365,-1.4404,-1.4349,-1.4603,-1.5142,-1.5421,-1.4923,-1.3712,-1.2611,-1.1124,0.0,0.0,0.0,0.0,0.0,0.0,0.0,0.0,0.0,0.0,0.0,0.0,0.0,0.0,0.0,0.0,0.0,0.0,0.0,0.0,0.0,0.0,0.0,0.0,0.0,0.0,0.0,0.0,0.0,0.0,0.0,0.0,0.0,0.0,0.0,0.0,0.0,0.0,-1.2614,-1.4126,-1.406,-1.5082,-1.5386,0.0,0.0,0.0,0.0,0.0,0.0,-1.7979,-1.9009,-2.0373,-2.2209,-2.2946,-2.388,-2.5125,-2.633,-2.6545,-2.5817,-2.63,-2.6847,-2.7461,-2.8362,-2.9109,-2.973,-3.0622,-3.0821,-3.0296,-2.7326,-2.5756,-2.5132,-2.4366,-2.3651,-2.3194,-2.443,-2.4597,-2.4505,0.0,0.0,0.0,0.0,0.0,0.0,0.0,0.0,0.0,0.0,0.0,-0.7567,-0.8354,-0.8184,-0.8286,-0.9005,-0.8968,-0.8887,0.0,-0.8446,-0.8122,-0.7964,-0.7455,-0.7441,-0.795,-0.9595,-1.1322,-1.3071,-1.3712,-1.4606,-1.5691,-1.5705,-1.5731,-1.5771,-1.5784,-1.5049,-1.3731,-1.291,-1.1677,-1.0157,0.0,0.0,0.0,0.0,0.0,0.0,0.0,0.0,0.0,0.0,0.0,0.0,0.0,0.0,0.0,0.0,0.0,0.0,0.0,0.0,0.0,0.0,0.0,0.0,0.0,0.0,0.0,0.0,0.0,0.0,0.0,0.0,0.0,0.0,0.0,0.0,0.0,0.0,0.0,-1.5817,-1.7538,0.0,0.0,0.0,0.0,-1.8294,-1.841,-1.9488,-2.1891,-2.2078,-2.2976,-2.4843,-2.5432,-2.5559,-2.5181,-2.7805,-2.8587,-2.7505,-2.9084,-2.9894,-2.9935,-3.0243,-3.042,-3.0483,-3.0858,-3.1134,-3.1256,-3.0301,-2.9462,-2.8676,-2.7846,-2.7405,-2.7141,-2.6661,-2.6948,-2.7595,0.0,0.0,0.0,0.0,0.0,-0.5026,-0.5809,-0.6323,-0.6768,-0.72,-0.7759,-0.8247,-0.853,-0.9503,-1.0186,-1.03,-1.0634,-1.0596,-1.0085,-0.9254,-0.9013,-0.9515,-0.8832,-0.9199,-1.0845,-1.1845,-1.3044,-1.4492,-1.538,-1.6042,-1.6458,-1.6756,-1.689,-1.689,-1.689,-1.6594,-1.5982,-1.4692,-1.3393,-1.2076,-1.1255,-1.0121,0.0,0.0,0.0,0.0,0.0,0.0,0.0,0.0,0.0,0.0,0.0,0.0,0.0,0.0,0.0,0.0,0.0,0.0,0.0,0.0,0.0,0.0,0.0,0.0,0.0,0.0,0.0,0.0,0.0,0.0,0.0,0.0,0.0,0.0,0.0,0.0,0.0,-1.8184,-1.9443,0.0,-1.8866,-1.9411,-2.0153,-2.0921,-2.1572,-2.2576,-2.395,-2.4087,-2.4637,-2.5761,-2.6574,-2.7168,-2.75,-2.9026,-2.9624,-2.9206,-2.9787,-3.0176,-3.0386,-3.1217,-3.1708,-3.1913,-3.2699,-3.3093,-3.3167,-3.2889,-3.1982,-3.0783,-3.0506,-3.0017,-2.9525,-2.9813,-2.9802,-2.9691,0.0,0.0,0.0,0.0,-0.4974,-0.5493,-0.6504,-0.6879,-0.7184,-0.7577,-0.817,-0.8735,-0.9188,-1.0441,-1.1395,-1.1724,-1.1864,-1.1746,-1.1206,-1.0177,-0.9859,-1.0403,-1.0363,-1.1155,-1.2939,-1.375,-1.4768,-1.6027,-1.6701,-1.7232,-1.7592,-1.7875,-1.8028,-1.8028,-1.8028,-1.8004,-1.7838,-1.6806,-1.5449,-1.3902,-1.2941,-1.1841,-1.0696,0.0,0.0,0.0,0.0,0.0,0.0,0.0,0.0,0.0,0.0,0.0,0.0,0.0,0.0,0.0,0.0,0.0,0.0,0.0,0.0,0.0,0.0,0.0,0.0,0.0,0.0,0.0,0.0,0.0,0.0,0.0,0.0,0.0,0.0,0.0,-1.9395,-1.986,-2.111,-2.1667,-2.0988,-2.1847,-2.263,-2.317,-2.3863,-2.4568,-2.5345,-2.5709,-2.6283,-2.7031,-2.7919,-2.8644,-2.9236,-3.0056,-3.0454,-3.048,-3.0735,-3.0973,-3.116,-3.2117,-3.2661,-3.2892,-3.3815,-3.4197,-3.4197,-3.4197,-3.3566,-3.2581,-3.2302,-3.1875,-3.1429,-3.1689,-3.1615,-3.1485,0.0,0.0,0.0,-0.4794,-0.5424,-0.605,-0.6722,-0.7327,-0.7709,-0.7694,-0.8181,-0.9025,-1.0343,-1.0935,-1.1751,-1.3066,-1.2522,-1.2105,-1.2105,-1.1161,-1.0605,-1.061,-1.2043,-1.3213,-1.4025,-1.5241,-1.6471,-1.765,-1.765,-1.8161,-1.9101,-1.9101,-1.9101,-1.9101,-1.9101,-1.9101,-1.9101,-1.9101,-1.7813,-1.5594,-1.3988,-1.3333,-1.3084,0.0,0.0,0.0,0.0,0.0,0.0,0.0,0.0,0.0,0.0,0.0,0.0,0.0,0.0,0.0,0.0,0.0,0.0,0.0,0.0,0.0,0.0,0.0,0.0,0.0,0.0,0.0,0.0,0.0,0.0,0.0,0.0,0.0,-1.6503,-1.8603,-2.0331,-2.0733,-2.262,-2.3755,-2.3573,-2.443,-2.5023,-2.5023,-2.5144,-2.553,-2.6259,-2.7083,-2.7958,-2.8819,-2.954,-2.9974,-3.0141,-3.0861,-3.1245,-3.1258,-3.2036,-3.2388,-3.2457,-3.3037,-3.3335,-3.3415,-3.3993,-3.4234,-3.4234,-3.4234,-3.4216,-3.4123,-3.3324,-3.3027,-3.2934,-3.2154,-3.2358,-3.3027,0.0,0.0,-0.4791,-0.5444,-0.6091,-0.6751,-0.7428,-0.7665,-0.7753,-0.7709,-0.8626,-0.9438,-0.9817,-1.1176,-1.2172,-1.2442,-1.2288,-1.2163,-1.216,-1.1191,-1.1255,-1.2778,-1.4707,-1.6159,-1.6992,-1.7369,-1.7927,-1.8691,-1.8691,-1.8815,-1.9101,-1.9101,-1.9101,-1.9101,-1.9101,-1.925,-1.9508,-1.9213,-1.8907,-1.8479,-1.7182,-1.6175,-1.5329,0.0,0.0,0.0,0.0,0.0,0.0,0.0,0.0,0.0,0.0,0.0,0.0,0.0,0.0,0.0,0.0,0.0,0.0,0.0,0.0,0.0,0.0,0.0,0.0,0.0,0.0,0.0,0.0,0.0,0.0,0.0,0.0,-1.943,-1.9297,-2.0839,-2.2219,-2.2856,-2.3973,-2.4649,-2.4591,-2.5148,-2.5518,-2.5518,-2.7018,-2.8032,-2.8275,-2.8523,-2.8955,-2.9575,-3.0219,-3.0655,-3.0896,-3.1668,-3.2055,-3.2071,-3.2283,-3.2619,-3.3081,-3.3226,-3.3894,-3.4899,-3.5069,-3.5138,-3.5126,-3.5126,-3.4773,-3.4179,-3.3956,-3.3863,-3.3844,-3.3621,-3.3677,-3.3887,0.0,-0.4407,-0.5099,-0.573,-0.6392,-0.7069,-0.7737,-0.7827,-0.7783,-0.7739,-0.8823,-0.9713,-1.0073,-1.1549,-1.26,-1.2773,-1.2604,-1.2468,-1.2405,-1.1674,-1.2298,-1.4697,-1.6373,-1.762,-1.8381,-1.8661,-1.9,-1.9362,-1.9362,-1.9435,-1.9603,-1.9603,-1.9603,-1.9603,-1.9603,-1.9726,-1.994,-1.969,-1.9726,-1.9894,-1.9241,-1.8352,-1.7369,-1.6393,-1.5713,-1.5235,-1.4561,-1.4145,-1.3885,-1.358,0.0,0.0,0.0,0.0,0.0,0.0,0.0,0.0,0.0,0.0,0.0,0.0,0.0,0.0,0.0,0.0,0.0,0.0,0.0,0.0,0.0,0.0,0.0,0.0,-2.0344,-2.1625,-2.2399,-2.2868,-2.3574,-2.466,-2.5207,-2.5651,-2.5949,-2.658,-2.6957,-2.6957,-2.8467,-2.9283,-2.9094,-2.965,-3.0082,-3.0272,-3.104,-3.1547,-3.1703,-3.216,-3.2457,-3.2573,-3.2573,-3.3019,-3.3811,-3.3948,-3.4655,-3.5806,-3.5932,-3.601,-3.5999,-3.5999,-3.5702,0.0,0.0,0.0,0.0,0.0,-3.4871,-3.4951,0.0,-0.4561,-0.5238,-0.5914,-0.6583,-0.7225,-0.7809,-0.7855,-0.7827,-0.7827,-0.8891,-0.9924,-1.0624,-1.1859,-1.2832,-1.3381,-1.3041,-1.2787,0.0,0.0,-1.3752,-1.632,-1.7381,-1.8207,-1.8861,-1.9461,-1.9797,-1.9762,-1.9762,-1.994,-2.0304,-2.0304,-2.0304,-2.0304,-2.0304,-2.0304,-2.0304,-2.0304,-2.0304,-2.0304,-2.0304,-1.9869,-1.9097,-1.7647,-1.7386,-1.767,-1.6712,-1.6037,-1.5472,-1.4806,0.0,0.0,0.0,0.0,0.0,0.0,0.0,0.0,0.0,0.0,0.0,0.0,0.0,0.0,0.0,0.0,0.0,0.0,0.0,0.0,0.0,0.0,0.0,0.0,-2.2571,-2.3614,-2.5296,-2.4749,-2.4659,-2.5996,-2.6294,-2.6688,-2.7521,-2.8342,-2.8858,-2.8903,-2.9747,-3.0009,-2.9495,0.0,0.0,0.0,0.0,-3.242,-3.2456,-3.2456,-3.2588,-3.2876,-3.2948,-3.3548,-3.4558,-3.4965,-3.5585,-3.6407,-3.6712,-3.6838,-3.6835,-3.6835,-3.6779,-3.6538,-3.5052,-3.4476,-3.4617,-3.5589,-3.5942,-3.608,0.0,-0.5324,-0.6009,-0.6673,-0.7351,-0.7806,-0.7882,-0.7983,-0.8026,-0.7957,-0.9153,-1.0036,-1.0149,-1.1344,-1.2169,-1.229,-1.2227,-1.2445,0.0,0.0,-1.6144,-1.7293,-1.8514,-1.9432,-2.007,-2.0208,-2.0235,-2.02,-2.02,-2.0235,-2.0304,-2.0354,-2.0354,-2.0304,-2.0354,-2.0354,-2.0304,-2.0304,-2.0304,-2.0304,-2.0304,-2.02,-2.005,-1.9722,-1.9357,-1.8958,-1.8729,-1.8592,-1.8469,-1.833,-1.7792,-1.7071,-1.6397,0.0,0.0,0.0,0.0,0.0,0.0,0.0,0.0,0.0,0.0,0.0,0.0,0.0,0.0,0.0,0.0,0.0,0.0,0.0,0.0,-2.2632,-2.4007,-2.5234,-2.6237,-2.6419,-2.6473,-2.6493,-2.7098,-2.7848,-2.8699,-2.9216,-2.9744,-3.0264,-3.1604,-3.2214,-3.18,-3.2036,-3.2136,-3.2101,-3.2286,-3.2565,-3.2883,-3.2883,-3.2997,-3.3202,0.0,0.0,-3.4916,-3.5632,-3.6555,-3.7553,-3.7644,-3.7671,-3.7671,-3.7671,-3.7281,-3.6668,-3.6333,-3.6222,-3.6273,-3.6635,-3.6765,-3.6851,-0.6025,-0.6341,-0.6638,-0.703,-0.7649,-0.8069,-0.797,-0.8094,-0.8162,-0.8054,-0.8988,-0.9653,-0.9701,-1.0599,-1.1215,-1.1215,-1.1783,0.0,0.0,-1.5455,-1.7121,-1.8395,-1.9499,-2.0174,-2.0426,-2.0441,-2.0441,-2.0392,-2.0392,-2.0392,-2.0392,-2.0441,-2.0441,-2.0392,-2.0441,-2.0441,-2.0392,-2.0392,-2.0392,-2.0392,-2.0392,-2.0392,-2.0392,-2.0339,-2.0088,-1.9844,-1.9844,-1.9862,-1.9834,-1.9493,-1.9152,-1.8718,-1.8067,-1.6949,-1.5557,0.0,0.0,0.0,0.0,0.0,0.0,0.0,0.0,0.0,0.0,0.0,0.0,0.0,0.0,-1.9437,0.0,0.0,-2.3625,-2.5022,-2.5778,-2.6535,-2.7513,-2.7655,-2.7584,-2.7415,-2.7705,-2.8291,-2.9301,-2.9708,-3.0279,-3.1133,-3.2246,-3.2827,-3.2702,-3.2697,-3.275,-3.2852,-3.2565,-3.2679,-3.3273,-3.3508,-3.3796,-3.4152,-3.4652,-3.5428,-3.6463,-3.6731,-3.7461,-3.8488,-3.8488,-3.8488,-3.8488,-3.8488,-3.8327,-3.8109,-3.8109,-3.7605,-3.6919,-3.757,-3.7896,-3.8097,-0.7136,-0.7328,-0.7326,-0.743,-0.7907,-0.8205,-0.8097,-0.8245,-0.8309,-0.8189,-0.8826,-0.9339,-0.9426,-1.0049,-1.0446,0.0,0.0,0.0,0.0,-1.5665,-1.7594,-1.9257,-2.0162,-2.062,-2.0527,-2.0527,-2.0527,-2.0494,-2.0494,-2.0494,-2.0494,-2.0527,-2.0527,-2.0494,-2.0527,-2.0527,-2.0494,-2.0494,-2.0494,-2.0527,-2.0579,-2.0613,-2.0579,-2.0545,-2.0509,-2.0423,-2.0423,-2.0416,-2.0313,-1.9938,-1.9735,-1.961,-1.9215,-1.8629,-1.7769,-1.6169,-1.5558,0.0,0.0,0.0,0.0,0.0,0.0,0.0,0.0,0.0,-1.8138,-1.9837,-2.0923,-2.2011,-2.3443,-2.4492,-2.5632,-2.7145,-2.7367,-2.7659,-2.8578,-2.8533,-2.8394,-2.8394,-2.8407,-2.882,-2.9916,-3.0395,-3.1052,-3.1941,-3.2611,-3.3037,-3.31,-3.3141,-3.3234,-3.3462,-3.3009,-3.3073,-3.3723,-3.4379,-3.496,-3.5487,-3.5698,-3.6556,-3.792,-3.7856,-3.8302,-3.9129,-3.9101,-3.9129,-3.9183,-3.9183,-3.9331,-3.9556,-3.9556,-3.8757,-3.7734,-3.8586,-3.9052,-3.9352,0.0,-0.8013,-0.8329,-0.8354,-0.8406,-0.8428,-0.8364,-0.8483,-0.8533,-0.847,-0.9149,-0.9628,-0.9574,-1.0219,-1.0639,-1.0575,0.0,0.0,-1.2737,-1.5946,-1.832,-1.9345,-2.0289,-2.0745,-2.0693,-2.0693,-2.061,-2.0494,-2.0494,-2.0494,-2.0494,-2.061,-2.061,-2.0527,-2.061,-2.061,-2.0494,-2.0494,-2.0494,-2.0527,-2.0812,-2.0942,-2.0975,-2.126,-2.0991,-2.0494,-2.0494,-2.0253,-2.0051,-2.0639,-2.0572,-2.0381,-2.0994,-2.0698,-2.0045,-1.9469,0.0,-1.7332,-1.6764,-1.6701,-1.6974,-1.7642,-1.7862,-1.862,0.0,0.0,-2.0731,-2.321,-2.3837,-2.4304,-2.5618,-2.6332,-2.6892,-2.7314,-2.8021,-2.856,-2.8676,-2.8975,-2.9197,-2.9197,-2.958,-3.0191,-3.1027,-3.2053,-3.2787,-3.3092,-3.3468,-3.3651,-3.3556,-3.3532,-3.3716,-3.41,-3.4035,-3.4043,-3.4136,-3.5639,-3.6701,-3.7217,-3.7485,-3.7745,-3.8011,-3.8645,-3.9017,-3.9183,-3.9129,-3.9245,-3.9452,-3.9452,-3.9585,-3.9754,-3.9754,-3.9787,-3.9853,-3.9967,-4.0043,-4.0099,0.0,-0.8532,-0.8736,-0.8736,-0.8665,-0.8554,-0.8428,-0.862,-0.8717,-0.8579,-0.8916,-0.9176,-0.9138,-0.9409,-0.9741,-1.0092,-1.1214,0.0,-1.4168,-1.6777,-1.8582,-1.9375,-2.04,-2.0909,-2.0777,-2.0777,-2.0728,-2.0662,-2.0662,-2.0662,-2.0662,-2.0728,-2.0728,-2.0695,-2.0728,-2.0728,-2.0662,-2.0662,-2.0662,-2.0679,-2.1039,-2.1166,-2.123,-2.157,-2.1201,-2.0553,-2.0492,-2.0437,0.0,0.0,-2.0315,-2.0484,-2.0369,-2.043,-2.0301,-1.9059,-1.887,0.0,-1.9835,-1.9926,-1.9943,0.0,-2.1176,-2.2072,-2.286,-2.3334,-2.3921,-2.5006,-2.5707,-2.6291,-2.6848,-2.7645,-2.8281,0.0,-2.9163,-2.9536,-2.9118,-2.9603,-2.9842,-2.9421,-2.9965,-3.0692,-3.151,-3.1691,-3.2271,-3.3487,-3.3707,-3.3771,-3.3716,-3.385,-3.4023,-3.4197,-3.4204,-3.421,-3.4198,-3.6975,-3.8126,-3.7627,-3.8401,-3.8755,-3.8726,-3.9072,-3.9193,-3.9156,-3.9309,-3.942,-3.9508,-3.9632,-3.9816,-4.0042,-4.0042,-4.0157,-4.0356,-4.0251,-4.0269,-4.0392,0.0,-0.8835,-0.8897,-0.8897,-0.8823,-0.8705,-0.8567,-0.8724,-0.8823,-0.8677,-0.876,-0.8818,-0.8806,-0.8805,-0.9009,-0.9509,-1.059,-1.2159,0.0,-1.6661,-1.8264,-1.876,-2.0108,-2.0767,-2.0639,-2.0814,-2.0925,-2.0925,-2.0925,-2.0925,-2.0893,-2.0925,-2.0925,-2.0893,-2.0893,-2.0909,-2.1039,-2.0942,-2.1007,-2.1135,-2.1448,-2.157,-2.1568,-2.1682,-2.1379,-2.0838,-2.0615,-2.035,0.0,0.0,-1.9734,-2.019,-1.9645,-2.0042,-2.0475,-1.935,-1.994,-2.1088,-2.168,0.0,0.0,-2.2482,-2.3565,-2.4492,-2.413,-2.5016,-2.5997,-2.6315,-2.6946,-2.756,-2.789,-2.8599,-2.9134,-2.9178,-2.9884,-3.0146,-2.9413,-3.0009,-3.0253,-2.9479,-2.9909,-3.0597,-3.1396,-3.147,-3.2143,-3.3784,-3.3895,-3.3895,-3.3895,-3.4099,-3.4203,-3.4203,-3.4191,-3.4204,-3.4198,-3.7746,-3.9055,-3.81,-3.8931,-3.9303,-3.9256,-3.9285,-3.9339,-3.9362,-3.9508,-3.9618,-3.9702,-3.9859,-4.0062,-4.0286,-4.0286,-4.0372,-4.0489,-4.0339,-4.0372,-4.0489,0.0,0.0,-0.8908,-0.8908,-0.8897,-0.8897,-0.8897,-0.8846,-0.8806,-0.8794,-0.8857,-0.8869,-0.8806,-0.8805,-0.8833,-0.8931,-1.0151,-1.1087,-1.1514,-1.5042,-1.7154,-1.7187,-1.9143,-2.0226,-2.0213,-2.0922,-2.1277,-2.1277,-2.1277,-2.1214,-2.1103,-2.1214,-2.123,-2.1103,-2.1103,-2.1261,-2.1568,-2.1355,-2.1509,-2.1882,-2.2096,-2.2164,-2.2124,-2.1756,-2.16,-2.149,-2.0838,0.0,0.0,0.0,-1.9109,-1.9433,-1.9416,-2.0097,0.0,-2.1852,-2.2683,-2.3097,0.0,0.0,-2.3405,-2.3592,-2.423,-2.5,-2.5762,-2.5961,-2.6284,-2.7333,-2.7561,-2.7926,-2.8972,-2.9181,-2.92,-2.92,-2.9946,-3.0228,-2.9413,-3.0052,-3.0318,-2.95,-2.9425,-2.976,0.0,-3.2042,-3.3263,-3.4123,-3.4197,-3.4197,-3.4197,-3.4197,-3.4203,-3.4218,-3.4185,-3.4204,-3.4189,-3.7667,-3.9287,-3.9051,-3.9171,-3.9256,-3.9391,-3.933,-3.9583,-4.0063,-3.9679,-3.9766,-4.0196,-4.0196,-4.0304,-4.0489,-4.0489,-4.0489,-4.0489,-4.0489,-4.0489,-4.0489,0.0,0.0,0.0,-0.8897,-0.8897,-0.8897,-0.8897,-0.8886,-0.8875,-0.8869,-0.8959,0.0,0.0,0.0,0.0,0.0,-0.9488,-1.0392,-1.1854,-1.4841,-1.6739,-1.7158,-1.8789,-1.9841,-2.0194,-2.0437,-2.0809,-2.1309,-2.1309,-2.134,-2.1415,-2.1493,-2.1584,-2.1675,-2.1507,-2.1598,-2.1836,-2.1598,-2.1675,-2.1998,-2.2248,-2.233,-2.2269,-2.2401,-2.15,-2.012,0.0,0.0,0.0,-1.7986,-1.8281,-1.8818,-1.9013,0.0,0.0,-2.1125,-2.17,-2.2355,-2.3428,0.0,-2.4635,-2.5436,-2.6209,-2.6849,-2.7082,-2.7665,-2.8125,-2.7908,-2.7871,-2.7822,-2.765,-2.8059,-2.841,-2.8452,-3.0108,-3.1073,-3.0275,-3.1336,-3.1689,-3.0373,-3.0206,0.0,0.0,0.0,0.0,-3.3324,-3.39,-3.4197,-3.4197,-3.4245,-3.4245,-3.4184,-3.4296,-3.533,-3.7436,-3.8826,-3.9488,-3.9439,-3.9502,-3.9604,-3.9721,-3.9656,-3.9721,-3.9914,-3.9939,-4.0061,-4.0214,-4.0339,-4.0441,-4.0489,-4.0489,-4.0489,-4.0489,-4.0489,-4.0489,-4.0489,0.0,0.0,0.0,0.0,0.0,0.0,0.0,0.0,0.0,0.0,0.0,0.0,0.0,0.0,0.0,0.0,0.0,-1.0242,-1.1473,0.0,-1.5471,-1.5861,-1.7276,-1.8352,-1.9009,-1.8999,-1.9503,-2.052,-2.052,-2.0664,-2.0981,-2.1055,-2.1139,-2.1239,-2.1366,-2.1597,-2.1847,-2.158,-2.1681,-2.1939,-2.1807,-2.1558,-2.1259,-2.1305,-2.0232,0.0,0.0,0.0,0.0,-1.678,-1.7346,-1.8253,0.0,0.0,-2.1151,-2.1601,-2.2257,-2.3174,-2.4766,-2.5366,-2.5826,-2.6862,-2.7514,-2.7994,-2.8246,-2.8611,-2.8711,-2.8151,-2.7798,-2.7448,-2.6932,-2.7247,-2.7712,-2.8049,-2.9925,-3.1188,-3.0671,-3.1987,-3.2507,-3.1188,-3.1043,-3.1225,0.0,0.0,0.0,-3.3361,-3.39,-3.4351,-3.4692,-3.4407,-3.4277,-3.4271,-3.4325,-3.5904,-3.9255,-3.9628,-3.9764,-3.9665,-3.9894,-3.9989,-3.9964,-3.9937,-3.996,-4.0062,-4.0158,-4.0251,-4.0321,-4.0457,-4.0489,-4.0489,-4.0489,-4.0489,-4.0489,-4.0489,-4.0489,-4.0489,0.0,0.0,0.0,0.0,0.0,0.0,0.0,0.0,0.0,0.0,0.0,0.0,0.0,0.0,0.0,0.0,0.0,0.0,0.0,0.0,0.0,-1.3458,-1.4789,-1.5962,-1.6832,-1.6826,-1.7561,-1.9058,-1.9058,-1.9324,-1.9824,-2.0008,-2.0008,-1.9883,-2.0627,-2.1156,-2.15,-2.1267,-2.1401,-2.1739,-2.0865,-2.007,-1.9299,-1.8731,0.0,0.0,0.0,0.0,0.0,0.0,0.0,0.0,0.0,0.0,0.0,-2.3189,-2.4247,-2.5425,-2.5709,-2.6224,-2.6917,-2.7916,-2.816,-2.8364,-2.9165,-2.87,-2.8067,-2.7974,-2.7381,-2.6823,0.0,0.0,-2.7102,-2.7844,-2.9463,-3.0615,-3.0671,-3.2042,-3.2748,0.0,0.0,0.0,0.0,0.0,0.0,-3.4221,0.0,-3.4617,-3.5565,-3.4773,-3.4396,-3.4593,-3.447,-3.6107,-3.9627,-4.0021,-4.0081,-3.9851,-4.0267,-4.0347,-4.0119,-4.0115,-4.0273,-4.0489,-4.0304,-4.0321,-4.0504,-4.0489,-4.0489,-4.0489,-4.0489,-4.0489,-4.0489,-4.0489,-4.0489,-4.0489,0.0,0.0,0.0,0.0,0.0,0.0,0.0,0.0,0.0,0.0,0.0,0.0,0.0,0.0,0.0,0.0,0.0,0.0,0.0,0.0,0.0,0.0,0.0,-1.5311,-1.6143,-1.6674,-1.7411,0.0,0.0,-1.8504,-1.878,-1.8822,-1.8906,-1.9009,-1.9073,-1.9602,-2.0443,-1.9562,-1.9752,-2.0566,0.0,-1.9235,-1.8948,0.0,0.0,0.0,0.0,0.0,0.0,0.0,0.0,0.0,0.0,-2.1546,-2.2469,0.0,0.0,-2.5116,-2.6812,-2.75,-2.7933,-2.8847,-2.9072,-2.8961,-2.8533,-2.8253,-2.7751,-2.6563,-2.6154,-2.5615,0.0,0.0,0.0,-2.6284,-2.8719,0.0,-3.1392,-3.2878,0.0,-3.2785,0.0,-3.2692,-3.2692,-3.3022,0.0,0.0,-3.4843,-3.4902,-3.5769,-3.579,-3.6176,-3.7046,-3.7145,-3.8251,-4.0481,-4.031,-4.0234,-4.0307,-4.0176,-4.0229,-4.0396,-4.0392,-4.046,-4.0579,-4.0473,-4.0473,-4.0573,-4.0523,-4.0489,-4.0489,-4.0489,-4.0489,-4.0489,-4.0489,-4.0489,-4.0489,0.0,0.0,0.0,0.0,0.0,0.0,0.0,0.0,0.0,0.0,0.0,0.0,0.0,0.0,0.0,0.0,0.0,0.0,0.0,0.0,0.0,0.0,-1.2495,-1.3292,-1.4123,-1.4609,-1.521,0.0,0.0,0.0,0.0,-1.7047,-1.7294,-1.7735,-1.8003,-1.8449,-1.9056,-1.8449,0.0,0.0,0.0,0.0,0.0,0.0,0.0,0.0,0.0,0.0,0.0,0.0,0.0,-2.0994,-2.2163,-2.2776,-2.3333,-2.4469,0.0,-2.5894,-2.7502,-2.8283,-2.8793,-2.9277,-2.9109,-2.8626,-2.7771,-2.7046,-2.6172,-2.4872,-2.4315,0.0,-2.285,-2.3739,0.0,0.0,0.0,0.0,-3.1839,-3.3152,-3.3899,0.0,-3.3827,0.0,-3.3832,-3.3956,-3.4584,0.0,-3.5588,-3.5853,-3.7105,-3.7262,-3.7833,-3.8956,-3.9165,-3.9766,-4.0787,-4.0584,-4.0485,-4.0546,-4.031,-4.0323,-4.0511,-4.0569,-4.0598,-4.0607,0.0,-4.0573,-4.0588,-4.0523,-4.0489,-4.0489,-4.0489,-4.0489,-4.0489,-4.0489,-4.0489,-4.0504,0.0,0.0,0.0,0.0,0.0,0.0,0.0,0.0,0.0,0.0,0.0,0.0,0.0,0.0,0.0,0.0,0.0,0.0,0.0,0.0,0.0,0.0,-1.0583,-1.1001,-1.1757,-1.1984,-1.2379,0.0,0.0,0.0,0.0,0.0,0.0,0.0,0.0,0.0,0.0,0.0,0.0,0.0,0.0,0.0,0.0,0.0,0.0,0.0,0.0,0.0,0.0,0.0,-2.0845,-2.1384,-2.2906,-2.3888,-2.4685,-2.5596,-2.6358,-2.7102,-2.8012,-2.8831,-2.9407,-2.9407,-2.8756,-2.7844,-2.6953,-2.5578,-2.4221,-2.324,0.0,-2.1993,-2.1866,-2.259,-2.3768,-2.5458,0.0,-2.9341,-3.2011,-3.3089,-3.3923,-3.4794,-3.4889,-3.4889,-3.4906,-3.5038,-3.5473,-3.6363,-3.6555,-3.7279,-3.8747,-3.8746,-3.9204,-4.033,-4.0528,-4.0665,-4.079,-4.0783,-4.0717,-4.0602,-4.0526,-4.0511,-4.0545,-4.0651,-4.0665,-4.0621,-4.0617,-4.0607,-4.0588,-4.0539,-4.0489,-4.0489,-4.0489,-4.0566,-4.0662,-4.0662,-4.0735,-4.0877,0.0,0.0,0.0,0.0,0.0,0.0,0.0,0.0,0.0,0.0,-0.977,-0.934,0.0,0.0,0.0,0.0,0.0,0.0,0.0,0.0,0.0,0.0,-1.0513,-1.0936,-1.1144,0.0,0.0,0.0,0.0,0.0,0.0,0.0,0.0,0.0,0.0,0.0,0.0,0.0,0.0,0.0,0.0,0.0,0.0,0.0,0.0,0.0,0.0,0.0,0.0,0.0,-2.1124,-2.2961,-2.3962,-2.4388,-2.4797,-2.6265,-2.6804,-2.7232,-2.8775,-2.9295,-2.9407,-2.9407,-2.8756,-2.7734,-2.6247,-2.5187,0.0,0.0,-2.2139,-2.1857,-2.1139,-2.225,-2.3633,-2.4723,0.0,0.0,0.0,0.0,-3.3923,0.0,0.0,0.0,0.0,0.0,0.0,0.0,-3.8392,-3.8892,-3.9045,-3.9185,-3.9668,-4.0598,-4.0665,-4.0706,-4.079,-4.0745,-4.064,-4.0513,-4.0511,-4.0588,-4.0751,-4.0766,-4.0775,-4.0759,-4.0651,0.0,-4.0593,-4.0519,-4.0489,-4.0489,-4.0489,-4.0931,-4.1566,-4.1566,-4.2063,-4.2737,0.0,0.0,0.0,0.0,0.0,0.0,0.0,-0.9483,-0.9652,-1.0076,-0.9708,-0.9592,-1.0069,-0.9753,-0.9509,0.0,0.0,0.0,0.0,0.0,0.0,0.0,0.0,0.0,0.0,0.0,0.0,0.0,0.0,0.0,0.0,0.0,0.0,0.0,0.0,0.0,0.0,0.0,0.0,0.0,0.0,0.0,0.0,0.0,0.0,0.0,0.0,0.0,0.0,0.0,-2.0889,-2.3403,-2.4239,-2.45,-2.4723,-2.5931,-2.6581,-2.7176,-2.8403,-2.9054,-2.9295,-2.8849,-2.8106,-2.6935,-2.4957,0.0,0.0,0.0,-2.0928,-2.0828,-2.0408,-2.136,0.0,0.0,0.0,0.0,0.0,0.0,0.0,0.0,0.0,0.0,0.0,0.0,0.0,-3.8626,-3.9154,-3.956,-3.9909,-4.0028,-4.0281,-4.0746,-4.0746,-4.0778,-4.079,-4.0758,-4.0725,-4.0662,-4.0665,-4.0703,-4.0797,-4.0803,-4.081,-4.079,-4.0693,-4.0626,-4.0607,-4.0569,-4.0539,-4.0546,-4.0989,-4.1431,-4.1854,-4.2352,-4.2806,-4.3157,0.0,0.0,0.0,0.0,0.0,0.0,0.0,-0.9525,-0.9668,-1.008,-0.9785,-0.9914,-1.0894,-1.0096,-0.9501,0.0,0.0,0.0,0.0,0.0,0.0,0.0,0.0,0.0,0.0,0.0,0.0,0.0,0.0,0.0,0.0,0.0,0.0,0.0,0.0,0.0,0.0,0.0,0.0,0.0,0.0,0.0,0.0,0.0,0.0,0.0,0.0,0.0,0.0,0.0,-2.0004,-2.2473,-2.3462,-2.4104,-2.4667,-2.5466,-2.6284,-2.7083,-2.7863,-2.8756,-2.9202,-2.8329,-2.7511,-2.6284,-2.3955,-2.2637,0.0,0.0,-1.9768,-1.9713,-1.9871,0.0,-2.1798,0.0,-2.4591,0.0,0.0,0.0,0.0,0.0,0.0,0.0,0.0,0.0,0.0,0.0,-3.9515,-3.9986,-4.0662,-4.07,-4.0746,-4.079,-4.079,-4.079,-4.079,-4.0791,-4.0797,-4.081,-4.0758,-4.0758,-4.0791,-4.0797,-4.081,-4.079,-4.0733,-4.0687,-4.064,-4.0646,-4.0718,-4.0889,-4.1382,-4.1809,-4.2217,-4.2758,-4.3086,-4.3191,0.0,0.0,0.0,0.0,0.0,0.0,0.0,-0.9583,-1.0135,-1.1663,-1.0581,-1.0268,-1.181,-1.0485,-0.9527,0.0,0.0,0.0,0.0,0.0,0.0,0.0,0.0,0.0,0.0,0.0,0.0,0.0,0.0,0.0,0.0,0.0,0.0,0.0,0.0,0.0,0.0,0.0,0.0,0.0,0.0,0.0,0.0,0.0,0.0,0.0,0.0,0.0,0.0,0.0,0.0,-1.9315,-2.0913,-2.2816,-2.4667,-2.5466,0.0,0.0,-2.7863,-2.8756,-2.9202,-2.8329,-2.7511,-2.6284,-2.3955,0.0,0.0,-2.005,-1.9372,-1.9116,-1.9789,-2.0606,-2.1801,0.0,0.0,-2.6347,0.0,0.0,0.0,0.0,0.0,0.0,0.0,0.0,0.0,0.0,-3.9715,-4.0623,-4.07,-4.0746,-4.079,-4.079,-4.079,-4.079,-4.079,-4.0791,-4.0791,-4.081,-4.061,-4.061,-4.081,-4.0791,-4.0804,-4.079,-4.0791,-4.0783,0.0,-4.0776,-4.1235,-4.1879,-4.1165,-4.1859,-4.3162,-4.245,-4.2738,-4.3458,0.0,0.0,0.0,0.0,0.0,0.0,-0.9583,-0.9607,-0.9866,-1.0616,-1.0993,-1.1072,-1.0747,-1.0126,-0.9712,-0.9666,0.0,0.0,0.0,0.0,0.0,0.0,0.0,0.0,0.0,0.0,0.0,0.0,0.0,0.0,0.0,0.0,0.0,0.0,0.0,0.0,0.0,0.0,0.0,0.0,0.0,0.0,0.0,0.0,0.0,0.0,0.0,0.0,0.0,0.0,0.0,0.0,-1.8887,-2.0554,0.0,0.0,-2.4895,-2.5736,-2.6559,-2.7381,-2.7848,-2.7073,-2.6655,-2.58,-2.3461,0.0,-2.0942,-2.0286,-1.9531,-1.9223,-1.9997,-2.0427,-2.1212,-2.2958,-2.3515,-2.4745,-2.7708,0.0,0.0,0.0,0.0,0.0,0.0,0.0,0.0,0.0,-4.0314,-4.0733,-4.0746,-4.079,-4.079,-4.079,-4.079,-4.079,-4.079,-4.0797,-4.0797,-4.079,-4.0726,-4.0765,-4.0919,-4.0913,-4.0913,-4.0906,-4.0913,-4.0889,0.0,-4.0866,-4.1053,-4.1393,-4.2102,-4.2801,-4.3435,-4.3637,-4.3967,-4.4136,0.0,0.0,0.0,0.0,0.0,-0.9567,-0.9597,-0.9635,-0.978,-1.0108,-1.0944,-1.1171,-1.0273,-1.0015,-0.9863,-0.9777,-0.9791,0.0,0.0,0.0,0.0,0.0,0.0,0.0,0.0,0.0,0.0,0.0,0.0,0.0,0.0,0.0,0.0,0.0,0.0,0.0,0.0,0.0,0.0,0.0,0.0,0.0,0.0,0.0,0.0,0.0,0.0,0.0,0.0,0.0,0.0,0.0,0.0,0.0,0.0,0.0,-2.3879,-2.4953,-2.5762,-2.6559,-2.6989,-2.6284,-2.6119,-2.5498,0.0,-2.1742,-2.0822,-2.0395,-1.9445,-1.904,-2.0106,-2.0306,-2.0769,-2.2219,-2.2634,-2.3617,-2.5909,-2.72,0.0,0.0,0.0,0.0,0.0,0.0,0.0,0.0,-4.07,-4.0733,-4.079,-4.081,-4.0829,-4.0829,-4.0829,-4.0829,-4.0829,-4.0848,-4.0848,-4.0861,-4.0912,-4.0951,-4.0996,-4.1009,-4.1003,-4.0992,-4.1021,-4.0992,0.0,-4.0959,-4.1081,-4.1377,-4.2338,-4.2877,-4.3167,-4.3584,-4.3713,-4.3539,0.0,0.0,0.0,0.0,0.0,0.0,-0.9605,-0.9721,-1.0077,-1.0875,-1.0363,-1.022,-1.0995,-1.0389,-0.99,-0.99,-0.9831,0.0,0.0,0.0,0.0,0.0,0.0,0.0,0.0,0.0,-1.0212,-1.1089,-1.1093,0.0,0.0,0.0,0.0,0.0,0.0,0.0,0.0,0.0,0.0,0.0,0.0,0.0,0.0,0.0,0.0,0.0,0.0,0.0,0.0,0.0,0.0,0.0,0.0,0.0,0.0,0.0,-2.3601,-2.5091,-2.5972,-2.6725,-2.7112,-2.6294,-2.6152,-2.5576,0.0,-2.1302,-2.0148,-2.0269,-1.8962,-1.8324,-1.9992,-2.0294,-2.0595,-2.1467,-2.2268,-2.3413,-2.5157,-2.6863,0.0,0.0,0.0,0.0,0.0,0.0,0.0,-4.0732,-4.0746,0.0,-4.079,-4.0848,-4.09,-4.09,-4.09,-4.09,-4.09,-4.0958,-4.0996,-4.0996,-4.1135,-4.1127,-4.0996,-4.0999,-4.1007,-4.1,-4.108,-4.1093,0.0,-4.1101,-4.1601,-4.2304,-4.1451,-4.1652,-4.2324,-4.1523,-4.1191,-4.1132,0.0,0.0,0.0,0.0,0.0,0.0,0.0,-0.9771,-0.9905,-1.0213,-1.0044,-0.9994,-1.0257,-1.0051,-0.9906,-0.9906,-0.9888,0.0,0.0,0.0,0.0,0.0,0.0,0.0,0.0,0.0,-1.0263,-1.1089,-1.1108,-1.1408,-1.1986,-1.1377,0.0,0.0,0.0,0.0,0.0,0.0,0.0,0.0,0.0,0.0,0.0,0.0,0.0,0.0,0.0,0.0,0.0,0.0,0.0,0.0,0.0,0.0,0.0,0.0,0.0,0.0,-2.3354,-2.3915,-2.406,-2.3936,-2.3937,-2.3592,-2.2224,-2.0623,-1.9431,-1.9478,-1.8581,-1.8131,-1.9201,-1.9889,-2.0776,-2.2254,-2.2697,0.0,0.0,0.0,0.0,0.0,0.0,0.0,0.0,0.0,0.0,-4.0655,-4.07,-4.0752,-4.0848,-4.09,-4.09,-4.09,-4.0946,-4.098,-4.098,-4.0999,-4.0995,-4.0996,-4.1135,-4.1173,-4.1148,-4.1146,-4.1147,-4.114,-4.1163,-4.1172,-4.1175,-4.1168,-4.1328,-4.1601,-4.1873,-4.2167,-4.2363,-4.2109,-4.2012,-4.1894,0.0,0.0,0.0,0.0,0.0,0.0,0.0,-0.9818,-0.9844,-0.99,-0.9906,-0.9906,-0.9906,-0.9906,-0.9906,-0.9906,-0.9906,0.0,0.0,0.0,0.0,0.0,0.0,0.0,0.0,-0.99,-1.0457,-1.1584,-1.1577,-1.2012,-1.2885,-1.2313,-1.1711,-1.1105,0.0,0.0,0.0,0.0,0.0,0.0,0.0,0.0,0.0,0.0,0.0,0.0,0.0,0.0,0.0,0.0,0.0,0.0,0.0,0.0,0.0,0.0,-1.8011,0.0,0.0,-2.2459,-2.2737,-2.2874,-2.2898,-2.2597,-2.1369,-2.007,-1.9014,-1.8678,-1.8181,-1.8053,-1.8854,-1.9703,-2.0655,-2.1748,-2.2462,-2.3269,0.0,0.0,0.0,0.0,0.0,0.0,0.0,0.0,0.0,-4.0746,-4.0784,-4.0827,-4.0938,-4.0958,-4.0977,-4.0977,-4.1014,-4.1045,-4.1074,-4.1074,-4.1081,-4.1081,-4.1164,-4.1194,-4.1191,-4.1198,-4.1208,-4.1191,-4.1191,-4.1191,0.0,-4.1191,-4.1191,-4.125,-4.1758,-4.1953,-4.1953,-4.1953,-4.1953,-4.1875,0.0,0.0,0.0,0.0,0.0,0.0,0.0,-0.985,-0.9906,-0.9906,-0.9906,-0.9906,-0.9906,-0.9906,-0.9906,-0.9906,0.0,0.0,0.0,0.0,0.0,0.0,0.0,0.0,-0.9906,-0.9907,-1.072,-1.2414,-1.2335,-1.2851,-1.3887,-1.3688,-1.281,-1.1376,-1.12,0.0,0.0,0.0,0.0,0.0,0.0,0.0,0.0,0.0,0.0,0.0,0.0,0.0,0.0,0.0,0.0,0.0,0.0,0.0,0.0,0.0,0.0,0.0,0.0,-2.1864,0.0,-2.2543,-2.2547,-2.2118,-2.0488,-1.9497,0.0,-1.7871,-1.7755,-1.8059,-1.886,-1.9716,-2.0379,-2.0559,-2.1879,-2.2977,0.0,0.0,0.0,0.0,0.0,0.0,0.0,0.0,-3.9898,-4.0846,-4.0839,-4.0868,-4.0996,-4.1074,-4.1093,-4.1112,-4.111,-4.1132,-4.1191,-4.1191,-4.1191,-4.1191,-4.1191,-4.1191,-4.1191,-4.1191,-4.1191,0.0,-4.1191,-4.1191,-4.1191,-4.1191,-4.1191,-4.1191,-4.1191,-4.1191,-4.1191,-4.1191,-4.1191,-4.1191,0.0,0.0,0.0,0.0,0.0,0.0,0.0,0.0,0.0,0.0,-0.99,-0.99,-0.9906,-0.99,-0.99,0.0,0.0,0.0,0.0,0.0,0.0,0.0,0.0,0.0,-0.9906,-0.99,-1.0741,-1.2489,-1.2463,-1.3567,-1.5651,-1.4365,-1.3545,-1.3125,-1.1781,-1.0725,0.0,0.0,0.0,0.0,0.0,0.0,0.0,0.0,0.0,0.0,0.0,-1.2301,0.0,0.0,0.0,0.0,0.0,0.0,0.0,0.0,-1.6062,-1.6769,-1.7501,0.0,-1.9008,-1.9008,-1.8988,-1.8898,0.0,-1.7769,-1.7141,-1.6929,0.0,-1.812,-1.8929,-1.978,-2.1017,-2.2972,-2.3079,-2.3373,-2.4728,0.0,0.0,0.0,0.0,0.0,0.0,0.0,-3.8357,-3.9896,-3.9996,-4.0293,-4.1047,-4.1093,-4.1112,-4.117,-4.1188,-4.1182,-4.1191,-4.1191,-4.1191,-4.1191,-4.1191,-4.1191,-4.1191,-4.1191,-4.1191,-4.1191,-4.1191,-4.1191,-4.1191,-4.1191,-4.1191,-4.1191,-4.1191,-4.1191,-4.1191,-4.1191,-4.1191,-4.1191,0.0,0.0,0.0,0.0,0.0,0.0,0.0,0.0,0.0,0.0,0.0,-0.9952,-0.9935,-0.9954,0.0,0.0,0.0,0.0,0.0,0.0,0.0,0.0,0.0,-0.9931,-0.9906,-0.9931,-1.0784,-1.2496,-1.2496,-1.3614,-1.573,-1.482,-1.3972,-1.3125,-1.1407,-1.042,0.0,0.0,0.0,0.0,0.0,0.0,0.0,0.0,0.0,0.0,-1.0738,-1.1434,0.0,-1.3109,-1.3979,-1.4767,0.0,0.0,0.0,0.0,-1.5589,-1.5961,-1.5956,-1.7424,-1.895,-1.8943,-1.895,-1.8853,-1.8486,0.0,0.0,0.0,0.0,0.0,0.0,0.0,0.0,0.0,-2.3314,0.0,0.0,0.0,0.0,0.0,0.0,0.0,0.0,0.0,-3.7744,-3.9095,-3.9575,-4.0003,-4.0533,-4.0548,-4.074,-4.1188,-4.0806,-4.0801,-4.1191,-4.1191,-4.1191,-4.1191,-4.1191,-4.1191,-4.1191,-4.1191,-4.1191,-4.1191,-4.1191,-4.1191,-4.1191,-4.1191,-4.1191,-4.1191,-4.1191,-4.1191,-4.1191,-4.1202,-4.1167,-4.1109,0.0,0.0,0.0,0.0,0.0,0.0,0.0,0.0,0.0,0.0,0.0,0.0,0.0,0.0,0.0,0.0,0.0,0.0,0.0,0.0,0.0,0.0,0.0,-1.0046,-1.0112,-1.0039,-1.0825,-1.2516,-1.2642,-1.3608,-1.5311,-1.5304,-1.4303,-1.2452,-1.0924,-1.0183,0.0,0.0,0.0,0.0,0.0,0.0,0.0,0.0,0.0,0.0,0.0,0.0,0.0,-1.2282,-1.3182,-1.4116,-1.4801,0.0,0.0,0.0,0.0,0.0,-1.5598,-1.7933,-2.0204,-1.9812,-1.9915,-1.9883,-1.9072,0.0,0.0,0.0,0.0,0.0,0.0,-2.0763,0.0,0.0,0.0,0.0,0.0,0.0,0.0,0.0,0.0,0.0,-3.7026,-3.7109,-3.7461,-3.834,-3.9094,-3.9561,-3.9687,-3.9708,-4.0038,-4.0781,-4.0215,-4.0254,-4.0996,-4.1133,-4.1191,-4.1191,-4.1191,-4.1191,-4.1191,-4.1191,-4.1191,-4.1191,-4.1191,0.0,-4.1191,-4.1191,-4.1191,-4.1191,-4.1191,-4.1191,-4.1209,-4.121,-4.1133,-4.1035,0.0,0.0,0.0,0.0,0.0,0.0,0.0,0.0,0.0,0.0,0.0,0.0,0.0,0.0,0.0,0.0,0.0,0.0,0.0,0.0,0.0,-0.999,-1.0001,-1.0337,-1.1075,-1.0369,-1.0851,-1.2569,-1.3271,-1.4514,-1.6285,-1.624,-1.4947,-1.2637,-1.1686,-1.0834,-1.0098,0.0,0.0,0.0,0.0,0.0,0.0,0.0,0.0,0.0,0.0,0.0,0.0,-1.1643,-1.2719,-1.4019,-1.4145,0.0,0.0,0.0,0.0,0.0,-1.7016,-1.8827,-1.9791,-1.7626,-1.8146,-1.8981,-1.8172,0.0,0.0,0.0,0.0,0.0,0.0,-2.1615,-2.275,0.0,0.0,-2.8587,0.0,0.0,0.0,-3.5612,0.0,-3.6024,-3.6103,-3.6177,-3.6562,-3.7422,-3.7617,-3.8027,-3.8769,-3.8804,-3.8863,-3.8984,-3.959,-3.9961,-4.0098,-4.082,-4.1191,-4.1191,-4.1191,-4.1191,-4.1191,-4.1191,-4.1191,-4.1191,0.0,-4.1191,-4.1191,-4.1191,-4.1191,-4.1191,-4.1191,-4.1191,-4.1191,-4.1206,-4.1188,-4.1132,0.0,0.0,0.0,0.0,0.0,0.0,0.0,0.0,0.0,0.0,0.0,0.0,0.0,0.0,0.0,0.0,0.0,0.0,0.0,0.0,0.0,-0.9996,-0.9996,-1.0416,-1.1273,-1.0869,-1.1727,-1.3946,-1.4329,-1.5146,-1.6354,-1.4948,-1.3717,-1.2648,-1.1328,-1.0513,-1.015,-1.019,0.0,0.0,0.0,0.0,0.0,0.0,0.0,0.0,0.0,0.0,0.0,0.0,-1.2262,-1.3373,-1.3859,0.0,0.0,0.0,0.0,0.0,-1.6181,-1.7966,-1.9321,-1.819,-1.9516,-2.0997,-2.0588,0.0,0.0,0.0,0.0,0.0,0.0,0.0,-2.4029,-2.6542,0.0,-3.0093,-3.1815,-3.2869,-3.4074,0.0,0.0,-3.5999,-3.5968,-3.5972,-3.6172,-3.6562,-3.7031,-3.7461,-3.7871,-3.7891,-3.8105,-3.8594,-3.8535,-3.8945,-3.9883,-4.0293,-4.0723,-4.1191,-4.1191,-4.1191,-4.1191,-4.1191,-4.1191,-4.1191,0.0,-4.1191,-4.1191,-4.1191,-4.1191,-4.1191,-4.1191,-4.1192,-4.1182,-4.1124,-4.1077,-4.1016,0.0,0.0,0.0,0.0,0.0,0.0,0.0,0.0,0.0,0.0,0.0,0.0,0.0,0.0,0.0,0.0,0.0,0.0,0.0,0.0,-1.0016,-0.9996,-0.9996,-1.0503,-1.157,-1.137,-1.2503,-1.5106,-1.5075,-1.5501,-1.6246,-1.4144,-1.3065,-1.2843,-1.125,-1.0401,-1.0196,-1.0196,-1.0196,0.0,0.0,0.0,0.0,0.0,0.0,0.0,0.0,0.0,0.0,0.0,0.0,0.0,0.0,0.0,0.0,-1.5226,-1.5125,-1.5045,-1.5623,-1.7209,-1.8852,-1.9497,0.0,-2.2622,-2.2805,0.0,0.0,0.0,0.0,0.0,0.0,-2.443,0.0,-2.7067,-2.9351,-3.1291,-3.226,-3.3692,-3.4971,-3.5893,-3.5991,-3.6001,-3.5995,-3.5996,-3.5996,-3.5996,-3.6621,-3.6992,-3.6992,-3.6992,-3.7305,-3.7969,-3.7539,-3.7949,-3.9277,-3.9707,-4.0332,-4.1191,-4.1191,-4.1191,-4.1191,-4.1191,-4.1191,-4.1191,-4.1191,-4.1191,-4.1191,-4.1199,-4.1189,-4.1189,-4.1189,-4.1169,-4.1128,-4.1041,-4.0966,-4.09,0.0,0.0,0.0,0.0,0.0,0.0,0.0,0.0,0.0,0.0,0.0,0.0,0.0,0.0,0.0,0.0,0.0,0.0,0.0,0.0,-1.0073,-0.9996,-0.9996,-1.078,-1.2469,-1.1782,-1.2612,-1.5095,-1.504,-1.5457,-1.6273,-1.5488,-1.4549,-1.3474,-1.2308,-1.1186,-1.0196,-1.0196,-1.0196,-1.0196,0.0,0.0,0.0,0.0,0.0,0.0,0.0,0.0,0.0,0.0,0.0,0.0,0.0,0.0,-1.4248,-1.5061,-1.4723,-1.4593,-1.6888,-1.7645,-1.8357,-2.0743,-2.1474,0.0,-2.2779,-2.2272,0.0,-2.2804,0.0,0.0,0.0,-2.6256,-2.7967,-2.8084,-3.0294,-3.2302,-3.318,0.0,-3.5015,-3.5893,-3.5991,-3.5999,-3.5991,-3.5995,-3.5996,-3.5996,-3.6055,-3.6094,-3.6094,-3.6094,-3.6113,-3.6191,-3.6914,-3.7363,-3.748,-3.9082,-4.0332,-4.1191,-4.1191,-4.1191,-4.1191,-4.1191,-4.1191,-4.1191,-4.1191,-4.1191,-4.119,-4.1213,-4.116,-4.1102,-4.1102,-4.1073,-4.0999,-4.0992,-4.097,-4.09,0.0,0.0,0.0,0.0,0.0,0.0,0.0,0.0,0.0,0.0,0.0,0.0,0.0,0.0,0.0,0.0,0.0,0.0,0.0,-1.0086,-1.0097,-1.0067,-1.0059,-1.0396,-1.1096,-1.1719,-1.3291,-1.5857,-1.5815,-1.6039,-1.6445,-1.4956,-1.4016,-1.3516,-1.1673,-1.0992,-1.1205,-1.0509,-1.0505,-1.097,-1.0428,0.0,0.0,0.0,0.0,0.0,0.0,0.0,0.0,0.0,-1.1395,-1.2313,-1.2423,-1.3532,-1.4775,-1.4543,-1.4256,-1.4308,-1.5752,-1.6937,-1.8264,-2.0369,-2.1654,0.0,0.0,-2.4384,-2.5072,-2.5342,-2.5905,0.0,0.0,0.0,-2.8268,-2.8268,-3.0875,-3.3027,-3.3358,-3.4627,-3.5623,-3.5952,-3.5991,-3.5999,-3.5991,-3.5995,-3.5996,-3.5996,-3.5996,-3.5996,-3.5996,-3.5996,-3.5996,-3.5996,-3.6328,-3.6758,-3.7285,-3.7949,-3.8711,-3.9609,-4.0684,-4.1191,-4.1191,-4.1191,-4.1172,-4.114,-4.114,-4.111,-4.109,-4.1077,-4.106,-4.1051,-4.1036,-4.0986,-4.0936,-4.0943,-4.09,-4.0829,0.0,0.0,0.0,0.0,0.0,0.0,0.0,0.0,0.0,0.0,0.0,0.0,0.0,0.0,0.0,0.0,0.0,0.0,-1.0108,-1.011,-1.0098,-1.009,-1.0113,-1.014,-1.0208,-1.1179,-1.3061,-1.5826,-1.6283,-1.6388,-1.6096,-1.439,-1.3783,-1.4028,-1.1373,-1.0628,-1.1353,-1.1089,-1.1031,-1.1047,-1.0447,-1.0196,0.0,0.0,0.0,0.0,0.0,0.0,0.0,0.0,-1.1209,-1.2021,-1.2223,-1.3325,-1.4476,-1.4102,-1.4198,-1.4523,-1.5071,-1.6472,-1.8202,-2.002,0.0,0.0,-2.4044,-2.5433,-2.6627,-2.6812,-2.7386,0.0,0.0,0.0,0.0,0.0,-3.1348,-3.3398,-3.3398,-3.4898,-3.5991,-3.5991,-3.5991,-3.5996,-3.6005,-3.5995,-3.5996,-3.5996,-3.5996,-3.5996,-3.5996,-3.5996,-3.5996,-3.5996,-3.5996,-3.6286,-3.6843,-3.7136,-3.7555,-3.8137,-3.9602,-4.0472,-4.0762,-4.0745,-4.0852,-4.1061,-4.1071,-4.105,-4.0999,-4.0999,-4.0999,-4.0963,-4.0939,-4.0919,-4.0868,-4.0868,-4.0829,-4.079,0.0,0.0,0.0,0.0,0.0,0.0,0.0,0.0,0.0,0.0,0.0,0.0,0.0,0.0,0.0,0.0,0.0,0.0,-1.0094,-1.0094,-1.0102,-1.0094,-1.0164,-1.0209,-1.0208,-1.0197,-1.1714,-1.4793,-1.6265,-1.6333,-1.5089,-1.4073,-1.4224,-1.5148,-1.1756,-1.0248,-1.0328,-1.1983,-1.1719,-1.0215,-1.0196,-1.0196,0.0,0.0,0.0,0.0,0.0,0.0,0.0,0.0,-1.0866,-1.066,-1.3178,-1.3483,-1.3055,-1.3775,-1.461,-1.5303,-1.5311,-1.6486,-1.8146,0.0,0.0,0.0,-2.4101,-2.4989,-2.5896,-2.6837,0.0,-2.7215,-2.8142,0.0,0.0,-2.9452,-3.1738,-3.3398,-3.3398,-3.4878,-3.5971,-3.5971,-3.5971,-3.5994,-3.5991,-3.5992,-3.5996,-3.5996,-3.5996,-3.5996,-3.5996,-3.5996,-3.5996,-3.5996,-3.5996,-3.5978,-3.5889,-3.6751,-3.7152,-3.7102,-3.7965,-3.8871,-3.9785,-3.9727,-4.0169,-4.0981,-4.1003,-4.0996,-4.0996,-4.0996,-4.0958,-4.09,-4.0829,-4.079,-4.079,-4.079,-4.079,-4.079,0.0,0.0,0.0,0.0,0.0,0.0,0.0,0.0,0.0,0.0,0.0,0.0,0.0,0.0,0.0,0.0,0.0,0.0,-1.0167,-1.0136,-1.0113,-1.0173,-1.0196,-1.0196,-1.0209,-1.0067,-1.1642,-1.501,-1.546,-1.5516,-1.524,-1.4938,-1.4974,-1.526,-1.424,-1.3101,-1.1905,-1.1228,-1.1012,-1.1066,-1.0447,-1.0196,0.0,0.0,0.0,0.0,0.0,0.0,0.0,0.0,0.0,0.0,-1.199,0.0,-1.4451,-1.3454,-1.4162,-1.529,-1.5231,-1.6508,0.0,-2.0724,0.0,0.0,0.0,-2.642,0.0,0.0,-2.9179,-2.8829,-2.9157,0.0,0.0,-2.9552,-3.1211,-3.248,-3.248,-3.3456,-3.4178,-3.4178,-3.4713,-3.5086,-3.5093,-3.564,-3.5996,-3.5996,-3.5996,-3.5996,-3.5996,-3.5968,-3.592,-3.592,-3.588,-3.5846,-3.5833,-3.6096,-3.6211,-3.6193,-3.6396,-3.7317,-3.8833,-3.9428,-3.9829,-4.0052,-4.0653,-4.09,-4.0848,-4.0848,-4.0848,-4.0829,-4.081,-4.079,-4.079,-4.079,-4.079,-4.079,0.0,0.0,0.0,0.0,0.0,0.0,0.0,0.0,0.0,0.0,0.0,0.0,0.0,0.0,0.0,0.0,0.0,0.0,0.0,-1.0154,-1.0157,-1.0208,-1.0205,-1.0209,-1.0194,-1.0087,-1.1051,-1.3149,-1.3161,-1.318,-1.3288,-1.4198,-1.4873,-1.5241,-1.3873,-1.2947,-1.2289,-1.0821,-1.0492,-1.0931,-1.0409,-1.0196,-1.0196,0.0,0.0,0.0,0.0,0.0,0.0,0.0,0.0,0.0,-1.1388,0.0,-1.3781,-1.3424,-1.4495,-1.5889,-1.6215,-1.7808,0.0,-2.1776,-2.3322,-2.4779,-2.6369,0.0,0.0,0.0,0.0,-2.9647,-3.0018,-2.9826,0.0,-3.006,-3.1231,-3.209,-3.209,-3.2851,-3.3398,-3.3398,-3.3857,-3.431,-3.4679,-3.4862,-3.5254,-3.5957,-3.5684,-3.5621,-3.5947,-3.5918,-3.5889,-3.5858,-3.5812,-3.5784,-3.5764,-3.5757,-3.5762,-3.5762,-3.5723,-3.6276,-3.7362,-3.8199,-3.876,-3.9088,-3.9959,-4.0319,-4.0307,-4.0655,-4.079,-4.079,-4.079,-4.079,-4.079,-4.079,-4.079,-4.079,0.0,0.0,0.0,0.0,0.0,0.0,0.0,0.0,0.0,0.0,-0.9693,0.0,0.0,0.0,0.0,0.0,0.0,0.0,0.0,0.0,-1.0202,-1.0191,-1.0208,-1.0192,-1.0172,-1.0176,-1.0176,-1.021,-1.0202,-1.021,-1.025,-1.2479,-1.417,-1.5168,-1.1885,-1.0979,-1.1841,-1.0676,-1.0205,-1.0196,-1.0196,-1.0196,-1.0196,-1.0196,0.0,0.0,0.0,0.0,0.0,0.0,0.0,0.0,-1.1227,-1.1557,-1.1903,-1.3426,-1.5167,-1.6794,-1.7633,0.0,0.0,-2.2918,-2.3818,0.0,-2.7713,-2.8303,-2.8771,-3.045,0.0,-2.9923,-3.0665,-3.0216,-2.9982,-3.0762,-3.1504,-3.1992,-3.1992,-3.2675,-3.3163,-3.3163,-3.3231,-3.3591,-3.4394,-3.3828,-3.4062,-3.5642,-3.5095,-3.4979,-3.5621,-3.5803,-3.5831,-3.5684,-3.5742,-3.5762,-3.5704,-3.5704,-3.5704,-3.5704,-3.5704,-3.5704,-3.5723,-3.6535,-3.7386,-3.8237,-3.903,-3.9429,-3.9565,-4.0346,-4.0732,-4.079,-4.079,-4.079,-4.079,-4.079,-4.079,-4.079,0.0,0.0,0.0,0.0,0.0,0.0,0.0,0.0,0.0,0.0,0.0,0.0,0.0,0.0,0.0,0.0,0.0,0.0,0.0,0.0,-1.0202,-1.0191,-1.0196,-1.0121,-0.9977,-0.9967,-1.0044,-1.0196,-1.0205,-1.0192,-1.0251,-1.2046,-1.3752,-1.5202,-1.3098,-1.2058,-1.1821,-1.0673,-1.0209,-1.0196,-1.0196,-1.0196,-1.0196,-1.0196,-1.0196,0.0,0.0,0.0,0.0,0.0,0.0,0.0,-1.1212,-1.1963,-1.245,-1.2141,-1.4225,-1.6643,-1.6859,-1.8737,0.0,0.0,-2.4734,-2.5917,-2.7852,-2.8303,-2.8771,-3.045,-3.0665,-3.0587,-3.0762,-3.0704,-3.0665,-3.0801,-3.1016,-3.1153,-3.1153,-3.1328,-3.1446,-3.1446,-3.1995,-3.2473,-3.2715,-3.3144,-3.3561,-3.3932,-3.4373,-3.4408,-3.3893,-3.5068,-3.5452,-3.4805,-3.5394,-3.5704,-3.5704,-3.5704,-3.5704,-3.5704,-3.5704,-3.5704,-3.5723,-3.6535,-3.7386,-3.8218,-3.8411,-3.8876,-3.9507,-3.97,-4.0172,-4.079,-4.079,-4.079,-4.079,-4.079,-4.079,-4.079,0.0,0.0,0.0,0.0,0.0,0.0,0.0,0.0,0.0,0.0,0.0,0.0,0.0,0.0,0.0,0.0,0.0,0.0,0.0,-1.016,-1.0194,-1.0191,-1.0205,-1.0117,-0.9906,-0.9998,-1.0098,-1.0206,-1.0192,-1.0618,-1.1425,-1.2285,-1.3415,-1.4636,-1.3582,-1.2819,-1.2189,-1.0786,-1.0209,-1.0196,-1.0196,-1.0196,-1.0196,-1.0196,-1.0196,-1.0196,-1.0206,0.0,0.0,0.0,0.0,0.0,0.0,0.0,-1.1626,-1.2009,-1.3676,-1.567,-1.6885,0.0,0.0,-2.4319,0.0,-2.6058,-2.7386,-2.7991,-2.8674,-2.9962,-3.0528,-3.0801,-3.0801,-3.086,-3.0899,-3.086,-3.088,-3.0901,-3.0907,-3.0907,-3.0905,-3.0899,-3.127,-3.1698,-3.2116,-3.2143,-3.2488,-3.3283,-3.3363,-3.3325,-3.3257,-3.4061,-3.4302,-3.3847,-3.464,-3.5085,-3.5085,-3.5491,-3.5704,-3.5704,-3.5704,-3.5704,-3.5704,-3.6129,-3.6563,-3.6977,-3.7402,-3.7846,-3.8303,-3.8709,-3.9154,-3.9591,-3.9997,-4.0172,-4.023,-4.0636,-4.079,-4.079,0.0,0.0,0.0,0.0,0.0,0.0,0.0,0.0,0.0,0.0,0.0,0.0,0.0,0.0,0.0,0.0,0.0,0.0,0.0,-1.0166,-1.0205,-1.0191,-1.0198,-1.0116,-0.9946,-1.0097,-1.0178,-1.02,-1.0208,-1.1054,-1.2706,-1.2812,-1.3268,-1.3979,-1.3608,-1.3163,-1.2587,-1.0914,-1.0203,-1.0196,-1.0196,-1.0196,-1.0196,-1.0196,-1.0196,-1.0196,-1.0206,-1.0196,-1.0189,-1.0117,0.0,0.0,0.0,0.0,-1.0474,-1.1936,-1.3063,-1.4365,-1.6634,0.0,-2.2402,-2.4864,-2.559,0.0,-2.6802,-2.7561,-2.8362,-2.9396,-3.0235,-3.0801,-3.0801,-3.086,-3.0899,-3.0899,-3.0901,-3.0907,-3.0892,-3.0895,-3.0894,-3.0905,-3.0895,-3.1136,-3.1823,-3.1207,-3.1355,-3.2731,-3.2318,-3.2203,-3.2726,-3.3035,-3.3083,-3.287,-3.3712,-3.4176,-3.4176,-3.5046,-3.5472,-3.5472,-3.5607,-3.5684,-3.5704,-3.5684,-3.5643,-3.5639,-3.6354,-3.676,-3.6953,-3.7668,-3.8047,-3.8264,-3.898,-3.9347,-3.9572,-4.0288,-4.0655,-4.079,0.0,0.0,0.0,0.0,0.0,0.0,0.0,0.0,0.0,0.0,0.0,-1.0167,-1.0109,-1.0097,0.0,0.0,0.0,0.0,-1.0101,0.0,0.0,-1.0191,-1.0137,-1.0125,-1.0157,-1.0067,-1.0082,-1.0203,-1.0193,-1.1066,0.0,0.0,-1.3663,-1.3979,-1.3167,-1.2781,-1.2587,-1.0908,-1.0196,-1.0196,-1.0196,-1.0196,-1.0196,-1.0196,-1.0196,-1.0196,-1.0206,-1.0203,-1.0199,-1.0121,-1.0136,0.0,0.0,0.0,-1.0258,-1.0471,-1.171,-1.3211,0.0,0.0,-2.2326,0.0,-2.5141,-2.5922,0.0,0.0,-2.7641,0.0,-3.0235,-3.0801,-3.0801,-3.086,-3.0899,-3.0899,-3.0894,-3.0897,-3.0903,-3.0895,-3.0898,-3.0898,-3.0847,-3.0862,-3.0955,-3.081,-3.079,-3.0953,-3.1545,-3.1623,-3.0984,-3.2319,-3.2764,-3.201,-3.2822,-3.3256,-3.3256,-3.4137,-3.4533,-3.4511,-3.5245,-3.5643,-3.5704,-3.5643,-3.5612,-3.5601,-3.5717,-3.6199,-3.6895,-3.6967,-3.7469,-3.8208,-3.826,-3.8756,-3.9425,-3.9541,-4.0089,-4.079,0.0,0.0,0.0,0.0,0.0,0.0,0.0,0.0,0.0,0.0,0.0,-1.0133,-1.0101,-1.0104,0.0,0.0,0.0,0.0,-1.0141,-1.018,0.0,0.0,-1.0133,-1.0113,-1.0138,-1.0117,-1.0129,-1.0143,-1.0186,0.0,0.0,-1.3977,-1.4616,0.0,-1.3829,-1.3345,-1.3063,0.0,-1.0196,-1.0196,-1.0196,-1.0757,-1.1508,-1.0563,-1.0776,-1.1489,-1.0534,-1.0203,-1.0199,-1.0178,-1.0175,-1.0182,-1.0164,0.0,0.0,0.0,-1.1118,0.0,-1.5529,-1.8648,-2.1633,0.0,-2.469,-2.5199,-2.6078,0.0,-2.7212,-2.7993,-2.881,-2.9689,-3.0626,-3.086,-3.0899,-3.0899,-3.0895,-3.0898,-3.0896,-3.0898,-3.0892,-3.0857,-3.0816,-3.0772,-3.0694,-3.0656,-3.0636,-3.0598,-3.0965,-3.1004,-3.0617,-3.1294,-3.1526,-3.1139,-3.1952,-3.2367,-3.2367,-3.3237,-3.3873,-3.4303,-3.4693,-3.5137,-3.5639,-3.5601,-3.5589,-3.5596,-3.5565,-3.5765,-3.6112,-3.608,-3.6344,-3.6793,-3.7205,-3.7623,-3.8112,-3.9058,-3.9683,-4.0133,0.0,0.0,0.0,0.0,0.0,0.0,0.0,0.0,0.0,0.0,0.0,0.0,-1.0108,0.0,0.0,0.0,0.0,0.0,-1.0163,0.0,0.0,0.0,0.0,-1.0106,-1.0128,-1.0167,-1.016,-1.0133,0.0,0.0,-1.2549,-1.4422,-1.5293,0.0,-1.4622,-1.3969,0.0,0.0,0.0,-1.0544,-1.0757,-1.1585,-1.261,-1.1802,-1.2266,-1.3133,-1.1443,-1.0844,-1.0763,0.0,-1.0198,-1.0192,-1.0194,-1.0207,0.0,0.0,0.0,0.0,0.0,0.0,-2.0163,-2.2775,-2.3929,-2.4573,0.0,0.0,-2.6724,0.0,-2.7522,-2.842,-2.9884,-3.0392,-3.0645,-3.0864,-3.0895,-3.0898,-3.0898,-3.0898,-3.088,-3.0798,-3.0772,-3.0733,-3.0617,-3.0598,-3.0598,-3.0598,-3.0598,-3.0598,-3.0598,-3.0598,-3.0598,-3.0598,-3.1178,-3.1478,-3.1478,-3.2317,-3.3164,-3.3971,-3.4187,-3.4588,-3.5194,-3.5412,-3.547,-3.5416,-3.5489,-3.547,-3.5411,-3.5416,-3.5443,-3.5566,-3.615,-3.6562,-3.6967,-3.826,-3.8994,-3.9457,0.0,0.0,0.0,0.0,0.0,0.0,0.0,0.0,0.0,0.0,0.0,0.0,0.0,0.0,0.0,0.0,0.0,0.0,0.0,0.0,0.0,0.0,0.0,0.0,-1.0188,-1.0143,-1.0136,-1.0193,0.0,0.0,-1.1996,-1.4244,-1.5293,-1.5303,-1.5245,-1.4317,-1.2688,0.0,0.0,0.0,0.0,-1.2626,-1.2862,-1.4433,-1.5091,-1.4936,-1.3191,-1.2568,0.0,0.0,0.0,-1.0199,-1.0207,-1.023,-1.0284,0.0,0.0,0.0,0.0,-1.5575,0.0,-2.0144,0.0,0.0,0.0,0.0,0.0,-2.6822,-2.7036,-2.7347,-2.8264,-2.9103,-2.9947,-3.0775,-3.0895,-3.0897,-3.0898,-3.0898,-3.088,-3.0798,-3.0733,-3.0675,-3.0617,-3.0598,-3.0598,-3.0598,-3.0598,-3.0598,-3.0598,-3.0598,-3.0598,-3.0598,-3.0636,-3.0627,-3.0578,-3.1375,-3.2212,-3.3084,-3.3851,-3.4173,-3.4103,-3.4864,-3.5117,-3.4961,-3.5355,-3.5383,-3.5216,-3.5223,-3.5223,-3.5216,-3.5261,-3.5774,-3.6543,-3.6832,-3.7781,-3.8982,0.0,0.0,0.0,0.0,0.0,0.0,0.0,0.0,0.0,0.0,0.0,0.0,0.0,-1.0096,-1.0063,-1.0015,-1.0058,0.0,0.0,0.0,0.0,0.0,0.0,0.0,0.0,-1.0131,-1.0124,-1.0196,0.0,-1.0696,-1.1678,-1.3021,-1.362,-1.3674,-1.4809,-1.4945,-1.4248,-1.2497,0.0,0.0,0.0,-1.3713,-1.5207,-1.5284,-1.5961,-1.6677,-1.4975,0.0,0.0,0.0,0.0,-1.103,-1.1033,-1.069,-1.03,-1.0272,-1.1063,0.0,0.0,0.0,0.0,-1.8563,-2.0886,-2.2933,-2.3443,-2.4672,-2.5785,-2.6097,-2.6175,-2.6429,-2.7308,-2.8186,-2.9045,-2.9927,-3.0075,-3.0249,-3.0759,-3.0833,-3.0794,-3.0674,-3.0656,-3.0636,-3.0598,-3.0598,-3.0598,-3.0598,-3.0598,-3.0598,-3.0598,-3.0598,-3.0598,-3.0598,-3.0598,-3.0579,-3.05,-3.0747,-3.1303,-3.2177,-3.2385,-3.2976,-3.3938,-3.4149,-3.4485,-3.4908,-3.5051,-3.5069,-3.5018,-3.5,-3.5,-3.5018,-3.5019,-3.5207,-3.5564,-3.6288,-3.7187,-3.8167,0.0,0.0,0.0,0.0,0.0,0.0,0.0,0.0,0.0,-1.0108,0.0,0.0,0.0,0.0,-1.0059,-1.0035,-1.0072,-1.0121,-1.0208,0.0,0.0,0.0,0.0,0.0,0.0,-1.0164,-1.0157,-1.0196,-1.0196,-1.0641,0.0,-1.205,-1.2436,-1.2784,-1.4512,-1.5132,0.0,0.0,0.0,-1.376,0.0,0.0,-1.6658,-1.7238,-1.7954,-1.849,0.0,0.0,0.0,0.0,0.0,0.0,-1.2022,-1.118,-1.0298,-1.0301,-1.1321,0.0,-1.2454,0.0,0.0,0.0,0.0,-2.1022,-2.272,0.0,-2.4907,-2.5199,-2.5492,-2.5883,-2.6468,-2.7034,-2.7813,-2.8971,-2.9156,-2.9439,-3.0244,-3.0366,-3.0424,-3.0578,-3.0598,-3.0598,-3.0598,-3.0598,-3.0598,-3.0598,-3.0598,-3.0598,-3.0598,-3.0598,-3.0598,-3.0559,-3.0579,-3.053,-3.0469,-3.0417,-3.066,-3.1175,-3.1377,-3.1966,-3.2873,-3.3335,-3.3828,-3.4295,-3.4538,-3.4711,-3.4811,-3.4811,-3.4811,-3.4811,-3.4811,-3.4812,-3.4888,-3.5681,-3.6404,-3.7167,0.0,0.0,0.0,0.0,0.0,0.0,0.0,0.0,-1.0096,-1.0096,0.0,0.0,0.0,0.0,0.0,-1.0091,-1.0095,-1.0133,-1.0205,-1.0193,0.0,0.0,0.0,0.0,0.0,-1.0202,-1.0196,-1.0196,-1.0196,-1.0622,-1.1453,-1.1453,-1.1895,-1.2746,-1.4415,-1.4702,-1.4018,0.0,-1.4771,-1.4173,0.0,-1.658,-1.7025,0.0,-2.1121,0.0,-1.9477,-1.8626,0.0,-1.6039,0.0,0.0,-1.3127,-1.1696,-1.0339,-1.034,-1.0969,0.0,0.0,0.0,0.0,0.0,0.0,0.0,-2.2154,0.0,-2.3287,-2.4183,-2.5024,-2.5648,-2.5687,-2.5707,-2.6257,-2.7945,-2.8239,-2.8546,-2.9356,-2.9458,-2.9709,-3.0443,-3.0559,-3.0559,-3.0559,-3.0578,-3.0598,-3.0598,-3.0598,-3.0598,-3.0598,-3.0598,-3.0569,-3.0491,-3.049,-3.0469,-3.0398,-3.0402,-3.0299,-3.0109,-3.0949,-3.1162,-3.0865,-3.248,-3.3141,-3.3027,-3.3826,-3.4321,-3.4602,-3.4602,-3.4602,-3.4602,-3.4602,-3.4602,-3.4626,-3.4963,-3.5401,-3.5985,0.0,0.0,0.0,0.0,0.0,-1.0101,-1.0105,-1.0101,-1.0096,0.0,0.0,0.0,-1.003,-1.0015,-1.0025,-1.0101,-1.01,-1.014,-1.0199,-1.015,-1.0124,-1.0132,-1.0136,-1.0125,-1.0131,-1.0128,-1.0157,-1.0196,-1.0196,-1.0312,-1.0563,-1.0563,-1.1125,-1.2115,-1.1763,-1.2146,-1.3075,-1.3318,0.0,-1.4936,-1.4777,-1.6087,0.0,0.0,0.0,0.0,0.0,-2.0837,-2.0547,0.0,-1.8554,-1.6479,0.0,0.0,-1.1247,-1.1247,-1.1851,0.0,-1.177,0.0,0.0,0.0,0.0,0.0,0.0,0.0,0.0,-2.3169,-2.3657,-2.4204,-2.5473,-2.5707,-2.5853,-2.6345,-2.6906,-2.7569,-2.838,-2.8498,-2.8556,-2.8702,-2.9282,-2.965,-2.965,-3.023,-3.0598,0.0,-3.0598,-3.0598,-3.0598,-3.0598,-3.0569,-3.0491,-3.049,-3.0469,-3.0398,-3.0402,-3.0299,-3.0109,-3.0255,-3.048,-3.0809,-3.1173,-3.1942,-3.3008,-3.3231,-3.3706,-3.4316,-3.4316,-3.4316,-3.4316,-3.4316,-3.4316,-3.434,-3.4524,-3.5114,-3.5942,0.0,0.0,0.0,-1.0096,-1.0096,-1.0096,-1.0096,-1.0096,-1.0096,0.0,0.0,0.0,-1.0015,-1.0325,-1.0416,-1.0135,-1.0091,-1.0125,-1.0157,-1.0125,-1.0102,-1.0141,-1.0109,-1.0101,-1.0131,-1.0113,-1.0124,-1.0196,-1.0196,-1.0196,-1.0196,-1.0196,-1.0547,-1.1167,-1.0496,-1.0747,-1.1666,-1.1667,0.0,0.0,-1.5217,0.0,0.0,-1.9935,-2.1121,0.0,0.0,0.0,-2.221,-2.2268,-2.0573,0.0,0.0,0.0,0.0,-1.2343,-1.3005,0.0,0.0,0.0,0.0,0.0,0.0,0.0,-1.8114,-1.9227,0.0,0.0,-2.2877,-2.3521,-2.4907,-2.516,-2.5286,-2.5643,-2.6062,-2.6649,-2.7434,-2.755,-2.7666,-2.7956,-2.8451,-2.876,-2.876,-2.9224,-2.9515,-2.9515,-2.9515,-2.9669,-3.0037,-3.0404,-3.0559,-3.05,-3.049,-3.0458,-3.0394,-3.0323,-3.0202,-3.0007,-2.9851,-2.9925,-3.0222,-3.0472,-3.1117,-3.2024,-3.2692,-3.3268,-3.3733,-3.4048,-3.4197,-3.4197,-3.4197,-3.4197,-3.4221,-3.434,-3.4776,-3.5431,0.0,0.0,-1.0096,-1.0096,-1.0096,-1.0096,-1.0096,-1.0096,-1.0096,0.0,-1.0187,-1.0235,-1.0263,-1.0893,-1.1004,-1.0302,-1.0149,-1.0095,-1.0102,-1.0093,-1.0116,-1.0186,-1.0116,-1.0121,-1.0186,-1.011,-1.0133,-1.0196,-1.0196,-1.0196,-1.0196,-1.0196,-1.0196,-1.0196,-1.0196,-1.0196,-1.0215,-1.0412,0.0,-1.3242,-1.63,-1.8084,0.0,0.0,-2.2397,-2.3158,-2.3997,-2.383,-2.3198,-2.3237,-2.1623,0.0,0.0,0.0,0.0,-1.3807,-1.4448,0.0,0.0,0.0,0.0,0.0,0.0,0.0,-1.9285,-1.9501,-1.9599,0.0,-2.2037,-2.2838,-2.3796,-2.4067,-2.4364,-2.5133,-2.5383,-2.5762,-2.6528,-2.6663,-2.6923,-2.7638,-2.7793,-2.7851,-2.7851,-2.7929,-2.7995,-2.7995,-2.7995,-2.8335,-2.9108,-2.9882,-3.0327,-3.0355,-3.0334,-3.034,-3.0367,-3.0169,-3.0007,-2.9869,-2.9698,-2.9532,-2.9425,-3.015,-3.0522,-3.0689,-3.221,-3.2915,-3.3045,-3.3863,-3.4197,-3.4197,-3.4197,-3.4197,-3.4221,-3.434,-3.4473,-3.4714,0.0,-1.0096,-1.0096,-1.0096,-1.0096,-1.0096,-1.0096,-1.0096,-1.0096,-1.0096,-1.0664,-1.1315,-1.195,-1.1582,-1.1239,-1.1087,-1.042,-1.0039,-1.0104,-1.0049,-1.0025,-1.0049,-1.0024,-1.002,-1.0042,-1.0033,-1.009,-1.0196,-1.0196,-1.0196,-1.0196,-1.0196,-1.0196,-1.0196,-1.0196,-1.0196,-1.0296,-1.1693,0.0,-1.4844,-1.5516,0.0,-2.0183,-2.0584,-2.2094,-2.4043,-2.4225,-2.4632,-2.4972,-2.4287,-2.3262,-2.1975,0.0,0.0,0.0,-1.6451,-1.6696,-1.7299,-1.6438,0.0,0.0,0.0,0.0,0.0,-1.6006,-1.6865,-1.835,0.0,-1.8896,-1.948,-2.104,-2.1905,-2.2436,-2.2536,-2.3735,-2.4896,-2.5638,-2.5762,-2.582,-2.5975,-2.6555,-2.6953,-2.6953,-2.758,-2.7995,-2.7995,-2.7995,-2.8073,-2.8238,-2.8412,-2.88,-2.9428,-2.9302,-2.9525,-3.015,-3.0007,-2.9834,-2.9662,-2.9626,-2.9532,-2.9407,-2.9574,-3.0002,-3.0652,-3.1615,-3.2395,-3.3045,-3.3863,-3.4197,-3.4197,-3.4197,-3.4197,-3.4197,-3.4221,-3.4316,-3.4562,-1.0096,-1.0096,-1.0096,-1.0096,-1.0096,-1.0096,-1.0096,-1.0096,-1.0249,-1.0646,-1.1782,-1.2553,-1.2553,-1.216,-1.1729,-1.1342,-1.0494,-1.0019,-1.0044,-0.999,-0.9955,-1.0,-0.9998,-1.0024,-1.0046,-1.0046,-1.0098,-1.0196,-1.0196,-1.0196,-1.0196,-1.0196,-1.0434,-1.0828,-1.0396,-1.0196,-1.0257,0.0,-1.2645,-1.4648,-1.6967,0.0,-2.2261,-2.2785,-2.3806,-2.4946,-2.4994,-2.5284,-2.5508,-2.4615,-2.4,0.0,-2.1649,-2.1104,-2.0672,0.0,-1.8584,-1.9116,-1.8234,0.0,0.0,-1.8213,0.0,0.0,0.0,-1.7672,-1.8376,-1.9682,-1.8919,-1.8663,-2.0847,-2.124,-2.1381,-2.1773,-2.3263,-2.4327,-2.4266,-2.4981,-2.5511,-2.5511,-2.5859,-2.6102,-2.6102,-2.6497,-2.6749,-2.6749,-2.7116,-2.7348,-2.7348,-2.7755,-2.8162,-2.8541,-2.8884,-2.9205,-2.9497,-2.9772,-2.9803,-2.9608,-2.9532,-2.9471,-2.9407,-2.9407,-2.963,-3.0057,-3.0857,-3.1652,-3.2451,-3.3268,-3.3844,-3.4197,-3.4197,-3.4197,-3.4197,-3.4197,-3.4269,-3.4461,-1.0096,-1.0096,-1.0096,-1.0096,-1.0096,-1.0096,-1.0096,-1.0096,-1.0455,-1.1424,-1.2724,-1.3526,-1.3392,-1.3151,-1.277,-1.2294,-1.1161,-1.0486,-1.0468,-1.0273,-1.0114,-1.0,-0.999,-1.003,-1.0094,-1.0094,-1.0136,-1.0196,-1.0196,-1.0196,-1.0196,-1.0196,-1.0573,-1.1221,-1.0689,-1.0454,0.0,0.0,0.0,-1.4554,0.0,-2.1415,-2.2912,-2.4335,-2.4969,-2.5164,-2.5554,-2.571,-2.5585,-2.4837,-2.4567,-2.4296,-2.2713,-2.281,0.0,0.0,0.0,-2.1149,0.0,0.0,0.0,0.0,0.0,-2.0243,0.0,0.0,0.0,-2.0779,-1.947,0.0,0.0,0.0,0.0,0.0,0.0,0.0,0.0,-2.3811,0.0,-2.4989,-2.5298,-2.5434,-2.5279,-2.526,-2.5318,-2.5492,-2.5948,-2.6296,-2.645,-2.7136,-2.7563,-2.7672,-2.8318,-2.8722,-2.8831,-2.9349,-2.9581,-2.957,-2.9451,-2.9407,-2.9407,-2.9407,-2.9407,-2.9444,-3.0262,-3.0987,-3.1634,-3.26,-3.338,-3.3974,-3.4141,-3.4197,-3.4197,-3.4197,-3.4269,-3.4363,-1.0096,-1.0096,-1.0096,-1.0096,-1.0096,-1.0096,-1.0096,-1.0096,-1.0665,-1.2246,-1.2622,-1.3634,-1.5988,-1.5334,-1.4968,0.0,-1.3541,-1.2193,-1.2124,-1.1502,-1.0793,-1.0031,-1.0001,-1.0029,-1.0094,-1.0094,-1.0136,-1.0196,-1.0196,-1.0196,-1.0196,-1.0196,-1.0257,-1.0376,-1.1044,0.0,0.0,0.0,-1.4659,0.0,-1.9418,-1.9828,0.0,-2.133,-2.2711,-2.3593,-2.5134,-2.5702,-2.5684,0.0,-2.5546,-2.5364,0.0,-2.4691,-2.5031,-2.3197,0.0,0.0,0.0,0.0,0.0,0.0,-2.2216,0.0,0.0,0.0,-1.9941,-1.8691,0.0,0.0,0.0,0.0,0.0,0.0,0.0,0.0,-2.072,-2.1527,-2.2391,-2.3113,-2.4563,-2.5201,-2.4428,-2.435,-2.4679,-2.5434,-2.4873,-2.4815,-2.5608,-2.5724,-2.6105,-2.6804,-2.6762,-2.7338,-2.8613,-2.8531,-2.8802,-2.9409,-2.9407,-2.9407,-2.9407,-2.9407,-2.9407,-2.9444,-3.0262,-3.0652,-3.0857,-3.2358,-3.3045,-3.3213,-3.3918,-3.4197,-3.4197,-3.4197,-3.4221,-3.4221,-1.0096,-1.0096,-1.0096,-1.0096,-1.0096,-1.0096,-1.0096,-1.0096,-1.0703,-1.2374,-1.3449,-1.4828,-1.6885,0.0,0.0,0.0,0.0,-1.4415,0.0,0.0,-1.2404,-1.1484,-1.1028,-1.0831,-1.0848,-1.039,-1.0161,-1.0196,-1.0196,-1.0196,-1.0196,-1.0196,-1.0741,-1.1712,-1.208,0.0,-1.3775,0.0,-1.4798,0.0,0.0,-1.8207,0.0,-2.2523,-2.4287,-2.4707,-2.5449,-2.5703,-2.5625,0.0,-2.5273,0.0,0.0,0.0,0.0,-2.4222,0.0,0.0,0.0,0.0,0.0,0.0,0.0,0.0,-2.0663,0.0,-1.9922,0.0,0.0,0.0,0.0,0.0,0.0,0.0,-1.8982,0.0,0.0,0.0,-2.1436,0.0,0.0,0.0,-2.4138,-2.3732,-2.4022,-2.5395,-2.4215,-2.4034,-2.5379,-2.5437,-2.5605,-2.5937,-2.6313,-2.701,-2.8013,-2.8323,-2.8835,-2.9512,-2.945,-2.9407,-2.9407,-2.9407,-2.9407,-2.9425,-2.976,-3.0169,-3.0708,-3.1819,-3.2581,-3.3083,-3.3881,-3.4197,-3.4197,-3.4197,-3.4197,-3.4197,-1.0096,0.0,-1.0096,-1.0096,-1.0096,-1.0096,-1.0096,-1.088,-1.2232,-1.4379,-1.4921,-1.5529,-1.6656,-1.7596,0.0,0.0,-1.7292,-1.6654,0.0,0.0,-1.392,-1.3258,-1.2246,-1.1728,-1.1783,-1.0979,-1.0447,-1.0196,-1.0196,-1.0196,-1.0196,-1.0196,-1.0876,-1.2118,-1.2837,-1.3862,-1.5067,0.0,-1.6033,-1.6917,-1.8033,-1.9143,-2.0472,-2.3764,-2.5293,-2.5703,-2.5703,-2.5703,-2.5605,-2.4961,-2.5176,0.0,-2.4961,-2.5186,-2.5587,0.0,0.0,0.0,-2.3984,0.0,0.0,0.0,0.0,0.0,0.0,0.0,0.0,0.0,0.0,0.0,0.0,0.0,0.0,0.0,0.0,-1.8786,0.0,-1.8592,0.0,0.0,0.0,0.0,0.0,-2.2861,-2.2939,-2.4652,-2.3403,-2.3299,-2.4968,-2.5266,-2.5404,-2.5398,-2.5967,-2.6664,-2.7513,-2.8002,-2.8676,-2.9551,-2.945,-2.9407,-2.9407,-2.9407,-2.9407,-2.9407,-2.9407,-2.9741,-3.0336,-3.1154,-3.1949,-3.2748,-3.3547,-3.4011,-3.4197,-3.4197,-3.4197,-3.4197,-1.0096,-1.0096,-1.0096,-1.0096,-1.0096,-1.0096,-1.0096,-1.2844,-1.6124,-1.942,-1.7079,0.0,0.0,0.0,0.0,0.0,0.0,-1.8744,-1.9909,0.0,-1.5075,-1.5115,-1.3413,-1.2554,0.0,-1.1905,-1.1047,-1.0196,-1.0196,-1.0196,-1.0196,-1.0196,-1.0238,-1.0392,-1.2939,-1.4092,-1.4358,-1.7713,-1.964,-2.0584,-2.2301,-2.3984,-2.5293,0.0,-2.4297,-2.5703,-2.5703,0.0,0.0,-2.5664,-2.5684,-2.5703,0.0,0.0,0.0,0.0,0.0,0.0,0.0,0.0,0.0,-2.3594,0.0,0.0,0.0,0.0,-2.1836,0.0,0.0,0.0,0.0,0.0,0.0,0.0,0.0,0.0,0.0,0.0,0.0,0.0,0.0,0.0,0.0,-2.1455,-2.1185,0.0,-2.2216,-2.2441,-2.4064,-2.4949,-2.5404,-2.5398,-2.5437,-2.6044,-2.7297,-2.732,-2.8045,-2.9407,-2.9407,-2.9407,-2.9407,-2.9407,-2.9407,-2.9407,-2.9407,-2.9407,-2.95,-3.0318,-3.1117,-3.1912,-3.2711,-3.351,-3.4197,-3.4197,-3.4197,-3.4197,0.0,0.0,-1.0096,0.0,0.0,-1.0096,-1.0096,-1.2959,-1.5513,0.0,-1.5799,0.0,0.0,-2.1435,-2.3513,0.0,0.0,-2.256,-2.1402,-1.9622,0.0,-1.7734,-1.6108,-1.4985,0.0,-1.3605,-1.2475,-1.1066,-1.1066,-1.1066,-1.1047,-1.0467,-1.0796,-1.1918,-1.3425,-1.4745,0.0,0.0,0.0,0.0,0.0,-2.416,-2.5644,0.0,-2.5215,-2.5703,-2.5703,-2.5703,0.0,-2.5703,-2.5703,-2.5703,-2.5703,-2.5703,-2.5703,-2.5703,-2.5703,-2.5703,0.0,0.0,-2.543,-2.4277,0.0,0.0,0.0,0.0,0.0,0.0,0.0,0.0,0.0,0.0,0.0,0.0,0.0,0.0,0.0,0.0,0.0,0.0,0.0,0.0,0.0,0.0,-2.0776,-2.1837,-2.1741,0.0,-2.388,-2.4888,-2.5379,-2.5341,-2.5322,-2.5821,-2.6833,-2.7139,-2.7821,-2.8871,-2.923,-2.9407,-2.9407,-2.9407,-2.9407,-2.9407,-2.9407,-2.9407,-2.9463,-3.0281,-3.1058,-3.1875,-3.2692,-3.3491,-3.4197,-3.4197,-3.4197,-3.4197,-1.0154,-1.0096,-1.0096,0.0,-1.0096,-1.0498,-1.1697,-1.3704,-1.5092,0.0,-1.7285,0.0,-2.1786,0.0,-2.5361,0.0,-2.5515,-2.4597,-2.2439,-2.1868,0.0,-2.0018,-1.8349,0.0,-1.6691,-1.553,-1.3953,-1.1964,-1.2247,-1.1933,-1.1028,-1.0776,-1.1241,-1.234,-1.3852,-1.5332,-1.6869,-1.953,-2.0996,0.0,0.0,-2.4707,0.0,0.0,-2.5703,-2.5703,0.0,-2.5703,-2.5703,-2.5703,-2.5703,-2.5703,-2.5703,-2.5703,-2.5703,-2.5703,-2.5703,-2.5703,-2.5703,-2.5703,-2.5488,-2.4629,-2.3984,0.0,-2.2148,0.0,-2.2695,0.0,0.0,0.0,0.0,0.0,0.0,0.0,0.0,0.0,0.0,-1.612,0.0,0.0,0.0,0.0,0.0,0.0,-1.9207,-2.0877,-2.0789,0.0,0.0,-2.463,-2.5303,-2.5303,-2.5303,-2.5667,-2.6499,-2.7034,-2.7686,-2.8487,-2.91,-2.9407,-2.9407,-2.9407,-2.9407,-2.9407,-2.9407,-2.9407,-2.9444,-2.9965,-3.0838,-3.1838,-3.2358,-3.3231,-3.4197,-3.4197,-3.4197,-3.4197,-1.0249,-1.0096,-1.0154,-1.0326,-1.0211,0.0,0.0,0.0,-1.5214,0.0,-2.1443,-2.5577,-2.5507,-2.5499,-2.5499,-2.5499,-2.5564,-2.4902,-2.3231,-2.3527,0.0,0.0,-2.0152,-1.9242,-1.9318,-1.7626,-1.5504,-1.2985,-1.3663,-1.2746,-1.0331,-1.1163,-1.155,-1.1608,-1.412,0.0,-1.6919,-2.1171,-2.3105,-2.3457,-2.5059,-2.5701,-2.5707,-2.5707,-2.5697,-2.5703,-2.5703,-2.5703,-2.5703,-2.5703,-2.5703,-2.5703,-2.5703,-2.5703,-2.5703,-2.5703,-2.5703,-2.5703,-2.5703,-2.5703,-2.5508,-2.4668,-2.4434,-2.3984,0.0,0.0,-2.416,0.0,0.0,0.0,0.0,0.0,0.0,0.0,0.0,0.0,0.0,0.0,0.0,0.0,0.0,0.0,0.0,-1.6819,-1.6775,-1.9869,-1.9404,0.0,0.0,-2.4166,-2.5067,-2.5274,-2.5303,-2.5587,-2.6237,-2.6916,-2.7582,-2.8258,-2.8985,-2.937,-2.9407,-2.9407,-2.9407,-2.9407,-2.9407,-2.9407,-2.9407,-2.9407,-3.0355,-3.1782,-3.1782,-3.2767,-3.4197,-3.4197,-3.4197,-3.4197,-1.0125,-1.0096,-1.09,-1.3379,-1.1755,-1.1219,0.0,0.0,0.0,0.0,-2.4477,-2.5595,-2.5577,-2.5577,-2.5577,-2.5577,-2.5589,0.0,0.0,0.0,0.0,-2.4484,-2.2894,-2.1693,-2.1065,-1.9357,-1.7525,-1.5616,-1.4527,-1.3338,-1.2069,-1.2282,-1.2065,-1.1578,0.0,-1.4849,-1.5974,-1.9628,-2.2675,-2.5098,-2.5527,-2.5701,-2.5707,0.0,-2.5691,-2.5696,-2.5703,-2.5702,-2.5696,-2.5703,-2.5703,-2.5703,-2.5703,-2.5703,-2.5703,-2.5703,-2.5703,-2.5703,-2.5703,-2.5703,-2.5644,-2.543,-2.4883,-2.4297,-2.3867,-2.4082,0.0,0.0,0.0,0.0,0.0,0.0,0.0,0.0,0.0,0.0,0.0,0.0,0.0,-1.7136,0.0,0.0,0.0,-1.697,-1.7844,-1.7358,-1.8901,0.0,-2.241,-2.2936,-2.3782,-2.5111,-2.5149,-2.5267,-2.555,-2.6116,-2.6794,-2.756,-2.8147,-2.8775,-2.9407,-2.9407,-2.9407,-2.9407,-2.9407,-2.9407,-2.9407,-2.9407,-3.0355,-3.1782,-3.1782,-3.2767,-3.4197,-3.4197,-3.4197,-3.4197,-1.0302,-1.1277,-1.2882,-1.4768,0.0,0.0,-1.4826,-1.5092,0.0,-2.4671,-2.5601,0.0,-2.5601,-2.5601,-2.5601,-2.5601,-2.5601,0.0,-2.5601,0.0,0.0,-2.4787,-2.4374,-2.3739,-2.2852,-2.1133,0.0,-1.7161,-1.5795,-1.412,-1.2173,-1.2562,-1.2303,-1.1594,0.0,-1.5124,-1.623,-2.0019,-2.3217,-2.57,-2.5702,-2.5699,0.0,-2.5707,-2.5691,-2.5696,-2.5702,-2.5701,-2.5698,-2.57,-2.5702,-2.5703,-2.5703,-2.5703,-2.5703,-2.5703,-2.5703,-2.5703,-2.5703,-2.5703,-2.5703,-2.5703,-2.5332,-2.4863,-2.4492,-2.4687,-2.4863,-2.4473,-2.5084,-2.5547,-2.5056,0.0,0.0,0.0,0.0,0.0,0.0,0.0,0.0,0.0,-1.7542,0.0,0.0,-1.6019,-1.6939,-1.5861,-1.7756,0.0,0.0,-2.2142,-2.3436,-2.4541,-2.4865,-2.5103,-2.5303,-2.5772,-2.6446,-2.732,-2.783,-2.857,-2.9407,-2.9407,-2.9407,-2.9407,-2.9407,-2.9407,-2.9407,-2.9407,-3.0355,-3.1857,-3.2562,-3.3398,-3.4197,-3.4197,-3.4197,-3.4197,-1.056,-1.315,0.0,0.0,0.0,0.0,0.0,-1.6411,0.0,-2.4135,0.0,-2.5053,-2.5556,-2.5601,-2.5601,-2.5601,-2.5601,-2.5601,-2.5601,-2.5601,-2.5154,-2.4164,-2.5077,-2.5251,-2.4488,-2.2846,-2.0764,0.0,-1.703,-1.4791,-1.1686,-1.2442,-1.2323,0.0,0.0,0.0,0.0,-2.1426,-2.4106,-2.5707,-2.5697,-2.5696,-2.5707,-2.5707,-2.5693,-2.5699,-2.57,-2.5702,-2.5703,-2.5693,-2.5697,-2.5703,-2.5703,-2.5703,-2.5703,-2.5703,-2.5703,-2.5703,-2.5703,-2.5703,-2.5703,-2.5703,-2.5703,-2.5508,-2.4746,-2.5156,-2.5488,-2.4727,-2.5161,-2.5666,-2.555,0.0,0.0,0.0,0.0,0.0,0.0,0.0,0.0,0.0,0.0,0.0,0.0,0.0,0.0,0.0,0.0,0.0,0.0,0.0,-2.3256,-2.382,-2.4531,-2.5019,-2.5243,-2.5717,-2.6419,-2.7289,-2.7867,-2.859,-2.9407,-2.9407,-2.9407,-2.9407,-2.9407,-2.9407,-2.9407,-2.9407,-3.0355,-3.1949,-3.3566,-3.4197,-3.4197,-3.4197,-3.4197,-3.4197,-1.0355,-1.5035,0.0,0.0,0.0,-2.0527,-2.3055,-2.3433,-2.2861,-2.1271,-2.1069,-2.2219,-2.5272,-2.5601,-2.5601,-2.5601,-2.5601,0.0,0.0,0.0,0.0,-2.531,-2.5485,-2.5523,-2.5387,-2.4144,-2.2372,-2.0041,-1.7,-1.452,-1.2576,-1.2732,-1.2322,0.0,0.0,0.0,-1.9989,-2.2167,0.0,-2.5707,-2.5709,-2.5709,-2.5707,-2.5707,-2.5709,-2.5691,-2.5698,-2.57,-2.57,-2.5691,-2.5709,-2.5694,-2.5703,-2.5703,-2.5703,-2.5703,-2.5703,-2.5703,-2.5703,-2.5703,-2.5703,-2.5703,-2.5703,-2.5664,-2.5508,-2.5586,-2.5664,-2.5508,-2.5593,-2.5492,-2.4761,0.0,0.0,0.0,0.0,0.0,0.0,0.0,0.0,0.0,0.0,-1.9361,0.0,0.0,0.0,0.0,0.0,0.0,0.0,0.0,-2.1287,0.0,-2.4444,-2.4929,0.0,-2.5857,-2.6584,-2.7146,-2.7957,-2.8727,-2.9407,-2.9407,-2.9407,-2.9407,-2.9407,-2.9407,-2.9407,-2.9407,-3.0355,-3.1949,-3.3566,-3.4197,-3.4197,-3.4197,-3.4197,-3.4197,-1.2486,0.0,0.0,0.0,0.0,0.0,0.0,-2.5467,-2.4822,-2.2986,-2.287,-2.3623,-2.5414,-2.5601,-2.5601,-2.5601,-2.5601,-2.5601,-2.5601,-2.5601,-2.5601,-2.5601,-2.5601,-2.5601,-2.5601,-2.5057,-2.3659,-2.1386,-1.792,-1.5282,-1.3464,-1.3479,0.0,-1.164,0.0,-1.8026,0.0,0.0,-2.452,-2.5707,-2.5707,-2.5681,-2.5648,-2.5648,-2.5657,-2.5648,-2.5654,-2.5675,-2.5694,-2.5709,-2.5707,-2.5709,-2.5697,-2.5701,-2.5703,-2.5703,-2.5703,-2.5703,-2.5703,-2.5703,-2.5703,-2.5703,-2.5703,-2.5703,-2.5703,-2.5703,-2.5701,-2.5691,-2.5706,-2.5414,-2.4525,-2.3577,-2.2796,0.0,0.0,0.0,0.0,0.0,0.0,0.0,0.0,0.0,0.0,0.0,0.0,0.0,0.0,-1.6678,-1.7772,-1.9356,-2.1017,0.0,0.0,0.0,-2.5,0.0,-2.6507,-2.721,-2.8129,-2.8838,-2.9407,-2.9471,-2.9471,-2.9407,-2.9407,-2.9407,-2.9463,-3.0299,-3.1095,-3.1949,-3.3566,-3.4197,-3.4197,-3.4197,-3.4197,-3.4197,-1.5636,-1.6279,0.0,0.0,-2.1074,-2.2584,-2.5297,-2.5707,-2.5598,-2.5322,-2.5472,-2.5601,-2.5601,-2.5601,-2.5601,-2.5601,-2.5601,-2.5601,-2.5601,-2.5601,-2.5601,-2.5601,-2.5601,-2.5601,-2.5601,-2.5232,-2.3989,-2.1833,-1.914,-1.6644,-1.4381,-1.4373,0.0,0.0,0.0,0.0,0.0,0.0,-2.4905,-2.5707,-2.5707,-2.5651,-2.5601,-2.5582,-2.5577,-2.5573,-2.5601,-2.5618,-2.5654,-2.5683,-2.5707,-2.5707,-2.5707,-2.5693,-2.5699,-2.5702,-2.5703,-2.5703,-2.5703,-2.5703,-2.5703,-2.5703,-2.5703,-2.5703,-2.5694,-2.5691,-2.571,-2.5698,-2.5685,-2.5376,-2.4462,-2.3836,-2.3318,0.0,0.0,0.0,0.0,0.0,0.0,0.0,0.0,0.0,-1.7041,0.0,0.0,0.0,0.0,-1.612,-1.658,-1.8964,-2.0872,-2.2112,-2.3537,-2.441,-2.4696,0.0,-2.6597,-2.7289,-2.843,-2.9147,-2.9511,-2.957,-2.9532,-2.945,-2.945,-2.9429,-2.9518,-3.1154,-3.1782,-3.1949,-3.3566,-3.4197,-3.4197,-3.4197,-3.4197,-3.4197,-1.9226,0.0,0.0,0.0,0.0,-2.5336,-2.5648,-2.5707,-2.5665,-2.5576,-2.5589,-2.5601,-2.5601,-2.5601,-2.5601,-2.5601,-2.5601,-2.5601,-2.5601,-2.5601,-2.5601,-2.5601,-2.5601,-2.5601,-2.5601,-2.4047,-2.2396,0.0,0.0,-1.8494,-1.5271,-1.5272,-1.6028,0.0,0.0,-2.1335,-2.3049,-2.4007,-2.4905,-2.5707,-2.5707,-2.5651,-2.5582,-2.5524,-2.5517,-2.5526,-2.5574,-2.5561,-2.5537,-2.5651,-2.5707,-2.5707,-2.5707,-2.5707,-2.5709,-2.5709,-2.5699,-2.5703,-2.5703,-2.5703,-2.5703,-2.5703,-2.5703,-2.5697,-2.5692,-2.5691,-2.5703,-2.5693,-2.5608,-2.526,-2.4443,-2.4822,-2.473,0.0,0.0,0.0,0.0,0.0,-2.2547,-2.1583,0.0,0.0,0.0,-1.6259,0.0,0.0,-1.492,-1.5913,-1.8151,-1.8563,-1.9731,-2.1953,-2.3042,-2.3506,-2.3377,-2.6072,-2.7362,-2.7236,-2.895,-2.981,-2.9836,-2.9681,-2.9589,-2.957,-2.957,-2.9512,-2.9518,-3.1154,-3.1782,-3.1949,-3.3566,-3.4197,-3.4197,-3.4197,-3.4197,-3.4197,-2.0128,0.0,0.0,0.0,0.0,0.0,0.0,-2.5707,-2.5681,-2.5655,-2.5625,-2.5629,-2.5668,-2.5625,-2.5601,-2.5601,-2.5601,-2.5601,-2.5601,-2.5601,-2.5601,-2.5601,-2.5601,-2.5595,-2.5593,-2.4914,-2.3748,0.0,0.0,-2.0859,-1.9472,-1.8824,-1.9168,-2.0398,-2.1569,-2.276,-2.3948,-2.4807,-2.5366,-2.5642,-2.5681,-2.5585,-2.5421,-2.5383,-2.5409,-2.5439,-2.5473,-2.5492,-2.551,-2.5556,-2.5605,-2.5645,-2.5683,-2.5676,-2.5642,-2.5636,-2.5644,-2.5643,-2.5644,-2.5664,-2.5703,-2.5703,-2.5668,-2.5641,-2.5689,-2.5661,-2.5634,-2.565,-2.5569,-2.5395,-2.5093,-2.4853,-2.4652,-2.4443,0.0,0.0,0.0,0.0,0.0,-2.2423,0.0,-2.0349,0.0,0.0,0.0,0.0,0.0,-1.4763,-1.6194,-1.8123,-1.9596,-2.053,0.0,-2.387,-2.3378,-2.6035,-2.7358,-2.7346,-2.9148,-2.9977,-2.9902,-2.982,-2.9662,-2.9491,-2.9491,-2.9431,-2.9518,-3.1154,-3.1782,-3.1949,-3.3566,-3.4197,-3.4197,-3.4197,-3.4197,-3.4197,-2.1907,-2.3774,-2.5341,0.0,-2.546,-2.5605,-2.5683,-2.5707,-2.5707,-2.5707,-2.5652,-2.5656,-2.5683,-2.5668,-2.562,-2.5601,-2.5601,-2.5601,-2.5601,-2.5601,-2.5601,-2.5601,-2.5601,0.0,-2.5601,-2.5611,-2.505,-2.3861,-2.3142,-2.2591,-2.2207,-2.1361,-2.1569,-2.266,-2.3228,-2.397,-2.4827,-2.5434,-2.5654,-2.5601,-2.5621,-2.5521,-2.5329,-2.531,-2.5332,-2.5374,-2.5379,-2.541,-2.5485,-2.5777,-2.5904,-2.5897,-2.5691,-2.5605,-2.5576,-2.5576,-2.5745,-2.5902,-2.5648,-2.5792,-2.5951,-2.5715,-2.563,-2.5611,-2.565,-2.5628,-2.5574,-2.5573,-2.553,-2.5511,-2.5511,-2.5008,-2.4672,-2.5004,0.0,0.0,0.0,-2.4272,0.0,-2.2866,-2.1606,-2.0392,-1.9477,-1.7547,0.0,0.0,0.0,-1.5327,-1.6592,-1.831,-1.9699,0.0,0.0,0.0,-2.3412,-2.5928,-2.725,-2.7361,-2.9118,-2.9931,-2.9902,-2.9836,-2.9662,-2.9451,-2.9427,-2.9407,-2.9518,-3.1154,-3.1782,-3.1949,-3.3566,-3.4197,-3.4197,-3.4197,-3.4197,-3.4197,-2.5434,-2.5472,-2.5459,-2.5322,-2.5293,-2.5387,-2.5651,-2.5707,-2.5707,-2.5707,-2.5707,-2.5707,-2.5707,-2.5707,-2.5665,-2.5613,-2.5601,-2.5601,-2.5601,-2.5601,-2.5601,0.0,0.0,-2.56,-2.56,-2.5654,-2.5682,-2.5662,0.0,-2.3404,-2.2291,-2.2016,-2.2777,-2.4378,-2.4378,-2.4866,-2.5687,-2.5707,-2.5654,-2.5582,-2.5524,-2.5463,-2.5387,-2.5329,-2.5299,-2.5303,-2.5382,-2.5357,-2.5457,-2.6442,-2.6733,-2.6544,-2.5751,-2.5504,-2.5492,-2.5505,-2.6103,-2.6595,-2.5744,-2.6136,-2.6576,-2.5717,-2.5546,-2.5605,-2.56,-2.5545,-2.5492,-2.5511,-2.5511,-2.5511,-2.5511,-2.5492,-2.5221,-2.435,-2.488,0.0,0.0,-2.3364,0.0,-2.2789,-2.0569,-1.9361,-2.0207,-1.7985,0.0,0.0,0.0,0.0,0.0,0.0,-1.9937,-2.3054,-2.3184,-2.3203,-2.3203,-2.5862,-2.7201,-2.7219,-2.8837,-2.9716,-2.9886,-2.968,-2.9608,-2.9589,-2.9451,-2.9407,-2.9518,-3.1154,-3.1782,-3.1949,-3.3566,-3.4197,-3.4197,-3.4197,-3.4197,-3.4197,-2.5511,-2.5511,-2.5484,-2.5432,-2.5351,-2.5331,-2.541,-2.5589,-2.5707,-2.5707,-2.5707,-2.5707,-2.5707,-2.5707,-2.5681,0.0,-2.5662,-2.5662,0.0,-2.5625,-2.5601,-2.5601,-2.5601,-2.559,-2.5605,-2.5622,-2.5643,-2.5698,0.0,-2.4965,-2.4614,-2.4536,-2.479,-2.5297,-2.5297,-2.5434,-2.5705,-2.5648,-2.5944,-2.6435,-2.6528,-2.6544,-2.6574,-2.7325,-2.7132,-2.6514,-2.694,-2.7094,-2.7112,-2.7441,-2.7547,-2.746,-2.7229,-2.7157,-2.7207,-2.7202,-2.7387,-2.7553,-2.7286,-2.7001,-2.6734,-2.6454,-2.5967,-2.5538,-2.5528,-2.5479,-2.5429,-2.5429,-2.5429,-2.5429,-2.5429,-2.5464,-2.5414,-2.5124,-2.5266,0.0,-2.502,0.0,-2.3465,-2.2868,-2.2079,-2.1251,-2.0377,-1.9569,0.0,0.0,0.0,0.0,0.0,0.0,-2.1094,-2.1551,-2.3201,-2.3795,-2.3203,-2.5724,-2.7063,-2.7219,-2.8819,-2.9644,-2.968,-2.9626,-2.9551,-2.9451,-2.9409,-2.9723,-3.0299,-3.1377,-3.2117,-3.2711,-3.3788,-3.4197,-3.4197,-3.4197,-3.4197,-3.4197,-2.5511,-2.5511,-2.5511,-2.5511,-2.5423,-2.5351,-2.5313,-2.5526,-2.5707,-2.5707,-2.5707,-2.5707,-2.5707,-2.5707,0.0,-2.5707,-2.5707,-2.5707,-2.5707,-2.5643,-2.5601,-2.5601,-2.5601,-2.5599,-2.5595,-2.559,-2.5621,-2.5697,-2.5691,-2.5707,-2.5707,-2.5707,-2.5707,-2.5707,-2.5707,-2.5683,-2.5671,-2.596,-2.6354,-2.6791,-2.7268,-2.7267,-2.7099,-2.8035,-2.8074,-2.7659,-2.7832,-2.789,-2.7948,-2.8255,-2.8352,-2.8409,-2.8736,-2.8876,-2.8772,-2.8155,-2.8174,-2.8357,-2.8044,-2.7817,-2.7531,-2.6899,-2.6332,-2.586,-2.553,-2.5432,-2.5401,-2.5393,-2.5412,-2.5393,-2.5401,-2.5429,-2.5464,-2.5511,-2.544,-2.5404,-2.5404,-2.4656,-2.3906,0.0,0.0,-2.2387,-2.1339,-2.1243,-2.1139,0.0,0.0,0.0,0.0,-2.1408,-2.1827,-2.2253,-2.3733,-2.4388,-2.4148,-2.5968,-2.7103,-2.7548,-2.8877,-2.9513,-2.9513,-2.9513,-2.9491,-2.9407,-2.9407,-2.9872,-3.0671,-3.1467,-3.2265,-3.3083,-3.3881,-3.4197,-3.4197,-3.4197,-3.4197,-3.4197,-2.5511,-2.5511,-2.5511,-2.5511,-2.5511,-2.5459,-2.5332,-2.5515,-2.5681,-2.5709,-2.5707,-2.5707,-2.5707,-2.5707,-2.5707,-2.5707,0.0,0.0,-2.5707,-2.5648,-2.5607,-2.5601,-2.5601,-2.5601,-2.5607,-2.56,-2.5637,-2.5703,-2.5696,-2.5707,-2.5707,-2.5707,-2.5726,-2.5785,-2.5802,-2.5807,-2.5831,-2.6641,-2.6947,-2.6934,-2.7737,-2.7721,-2.7292,-2.7871,-2.8382,-2.8758,-2.8247,-2.8063,-2.8179,-2.8929,-2.9179,-2.9333,-3.014,-3.0398,-3.0102,-2.8525,-2.8602,-2.9025,-2.8275,-2.8623,-2.8818,-2.7171,-2.6738,-2.6486,-2.5676,-2.5443,-2.5393,-2.5395,-2.5406,-2.5395,-2.5393,-2.5401,-2.5429,-2.5484,-2.5437,-2.5401,-2.5401,-2.4709,-2.4171,-2.4113,0.0,-2.2923,-2.2808,-2.2906,-2.3244,0.0,0.0,0.0,0.0,-2.2552,-2.2267,-2.4632,-2.4622,-2.4946,-2.5689,-2.6563,-2.7399,-2.8197,-2.9016,-2.9407,-2.9407,-2.9407,-2.9407,-2.9407,-2.9407,-2.989,-3.0745,-3.1485,-3.2302,-3.3157,-3.39,-3.4197,-3.4197,-3.4197,-3.4197,-3.4197,-2.5511,-2.5511,-2.5511,-2.5511,-2.5511,-2.5484,-2.5459,-2.541,-2.5466,-2.5679,-2.5696,-2.5707,-2.5707,-2.5707,-2.5707,-2.5707,-2.5707,-2.5707,-2.5707,-2.5696,-2.5644,-2.5607,-2.5601,-2.5593,-2.5605,-2.5597,-2.5634,-2.5702,-2.5693,-2.5707,-2.5707,-2.5707,-2.6058,-2.6702,-2.6841,-2.7171,-2.7595,-2.7699,-2.807,-2.8607,-2.855,-2.8959,-2.961,-2.9744,-2.989,-2.9987,-2.9852,-2.9813,-2.9852,-3.0025,-3.0102,-3.014,-3.0321,-3.0398,-3.0321,-2.9929,-2.9948,-3.0063,-2.9871,-2.9509,-2.9077,-2.8623,-2.7556,-2.6564,-2.6352,-2.5842,-2.5388,-2.5407,-2.5407,-2.5388,-2.5395,-2.5393,-2.5429,-2.5484,-2.5437,-2.5401,-2.5401,-2.523,-2.4846,0.0,-2.4512,-2.4253,-2.2926,-2.3966,-2.4014,-2.2318,0.0,-2.3794,-2.3214,-2.3063,-2.3512,-2.467,-2.5162,-2.5503,-2.5708,-2.712,-2.8254,-2.9091,-2.9314,-2.9407,-2.9407,-2.9407,-2.9407,-2.9407,-2.9407,-3.0206,-3.1522,-3.1708,-3.2637,-3.3918,-3.4123,-3.4197,-3.4197,-3.4197,-3.4197,-3.4197,-2.5519,-2.5511,-2.5511,-2.5511,-2.5543,-2.5589,-2.5589,-2.5527,-2.5508,-2.5605,-2.5666,-2.5696,-2.5707,-2.5707,-2.5707,-2.5707,-2.5707,-2.5707,-2.5707,-2.5707,-2.5676,-2.5656,-2.5656,-2.5624,-2.5595,-2.5603,-2.5837,-2.6294,-2.629,-2.6503,-2.6893,-2.6895,-2.7132,-2.76,-2.7671,-2.7887,-2.8163,-2.8443,-2.8782,-2.9168,-2.9393,-2.984,-3.0398,-3.0398,-3.0398,-3.0398,-3.0398,-3.0398,-3.0398,-3.0398,-3.0398,-3.0398,-3.0398,-3.0398,-3.0398,-3.0398,-3.0398,-3.0398,-3.0398,-3.0094,-2.9644,-2.9209,-2.8153,-2.7084,-2.6679,-2.6266,-2.5851,-2.5438,-2.5351,-2.5361,-2.5388,-2.5395,-2.5412,-2.5456,-2.5456,-2.5456,-2.5456,-2.5448,-2.5258,-2.475,-2.5108,-2.5041,-2.409,-2.4783,-2.4726,-2.3352,-2.4092,-2.433,-2.3744,-2.398,-2.4332,-2.4731,-2.5366,-2.5893,-2.6302,-2.7902,-2.8942,-2.9407,-2.9407,-2.9407,-2.9407,-2.9407,-2.9407,-2.9407,-2.9407,-3.0318,-3.1782,-3.1782,-3.2748,-3.4197,-3.4197,-3.4197,-3.4197,-3.4197,-3.4197,-3.4197,-2.5522,-2.5526,-2.5522,-2.5538,-2.5629,-2.5703,-2.5703,-2.5703,-2.5654,-2.555,-2.5632,-2.5703,-2.5693,-2.5709,-2.5707,-2.5707,-2.5707,-2.5707,-2.5707,-2.5707,-2.5707,-2.5707,-2.5707,-2.5662,-2.5601,-2.5774,-2.6269,-2.7056,-2.7137,-2.7569,-2.8291,-2.8293,-2.8354,-2.8472,-2.8383,-2.8384,-2.8507,-2.9108,-2.9331,-2.9352,-3.0102,-3.0398,-3.0398,-3.0398,-3.0398,-3.0398,-3.0398,-3.0398,-3.0398,-3.0398,-3.0398,-3.0398,-3.0398,-3.0398,-3.0398,-3.0398,-3.0398,-3.0398,-3.0398,-3.0398,-3.0217,-2.9486,-2.8673,-2.7884,-2.715,-2.6785,-2.6391,-2.5659,-2.538,-2.5313,-2.5389,-2.5397,-2.5395,-2.5393,-2.5456,-2.5484,-2.5511,-2.5511,-2.5484,-2.5401,-2.5404,-2.5397,-2.5361,-2.5303,-2.5243,-2.516,-2.516,-2.5115,-2.4968,-2.4861,-2.4846,-2.4949,-2.5551,-2.6358,-2.7345,-2.8702,-2.9407,-2.9407,-2.9407,-2.9407,-2.9407,-2.9407,-2.9407,-2.9407,-2.9407,-3.0318,-3.1782,-3.1782,-3.2748,-3.4197,-3.4197,-3.4197,-3.4197,-3.4197,-3.4197,-3.4197,-2.5589,-2.5583,-2.5595,-2.565,-2.5683,-2.5703,-2.5703,-2.5703,-2.5683,-2.5679,-2.5683,-2.5703,-2.5703,-2.5696,-2.5707,-2.5707,-2.5707,-2.5707,-2.5707,-2.5707,-2.5707,-2.5707,-2.5707,-2.5662,-2.5601,-2.6598,-2.7194,-2.7342,-2.778,-2.8109,-2.831,-2.824,-2.8617,-2.9308,-2.9133,-2.9457,-3.0123,-3.0128,-3.0148,-3.0217,-3.034,-3.0398,-3.0398,-3.0398,-3.0398,-3.0398,-3.0398,-3.0398,-3.0398,-3.0398,-3.0398,-3.0398,-3.0398,-3.0398,-3.0398,-3.0398,-3.0398,-3.0398,-3.0398,-3.0398,-3.0359,-3.0237,-2.9544,-2.8882,-2.8747,-2.7621,-2.6563,-2.6428,-2.5813,-2.5313,-2.5389,-2.5398,-2.5397,-2.5393,-2.5401,-2.5429,-2.5484,-2.5511,-2.5484,-2.5401,-2.5401,-2.533,-2.5154,-2.5133,-2.5088,-2.4968,-2.5,-2.4955,-2.4756,-2.479,-2.5051,-2.5639,-2.6339,-2.7455,-2.9018,-2.9277,-2.9407,-2.9407,-2.9407,-2.9407,-2.9407,-2.9407,-2.9407,-2.9407,-2.9407,-3.0318,-3.1782,-3.1782,-3.2748,-3.4197,-3.4197,-3.4197,-3.4197,-3.4197,-3.4197,-3.4197,-2.5601,-2.5601,-2.5609,-2.5632,-2.5681,-2.57,-2.5703,-2.5703,-2.5703,-2.5703,-2.5703,-2.5703,-2.5703,-2.5702,-2.5697,-2.5707,-2.7386,-2.8459,-2.8459,-2.6722,-2.5707,-2.5707,-2.5707,-2.6554,-2.8361,-2.8942,-2.8941,-2.8317,-2.8704,-2.9152,-2.9643,-2.9616,-2.9831,-3.0193,-3.0028,-3.0189,-3.0548,-3.0364,-3.0311,-3.0348,-3.0386,-3.0386,-3.0398,-3.0398,-3.0398,-3.0398,-3.0398,-3.0398,-3.0398,-3.0398,-3.0398,-3.0398,-3.0398,-3.0398,-3.0398,-3.0398,-3.0398,-3.0398,-3.0398,-3.0398,-3.0398,-3.0398,-3.0102,-2.9679,-2.9198,-2.8506,-2.7698,-2.6794,-2.6274,-2.587,-2.5428,-2.5389,-2.5407,-2.5406,-2.5404,-2.5401,-2.5437,-2.5484,-2.5456,-2.5357,-2.535,-2.5313,-2.5222,-2.5107,-2.5024,-2.4962,-2.4929,-2.4832,-2.4719,-2.5167,-2.574,-2.6429,-2.7214,-2.8219,-2.9388,-2.9407,-2.9407,-2.9407,-2.9407,-2.9407,-2.9407,-2.9407,-2.9407,-2.9407,-2.9407,-3.0318,-3.1782,-3.1782,-3.2748,-3.4197,-3.4197,-3.4197,-3.4197,-3.4197,-3.4197,-3.4197,-2.5601,-2.5601,-2.5601,-2.5601,-2.5637,-2.5683,-2.5703,-2.5703,-2.5703,-2.5703,-2.5703,-2.5703,-2.5703,-2.638,-2.6843,-2.6834,-2.9272,-3.0808,-3.0799,-2.8339,-2.6891,-2.6898,-2.689,-2.8104,-3.074,-3.0791,-3.0375,-2.9498,-2.9702,-3.0135,-3.0802,-3.079,-3.0771,-3.0767,-3.0646,-3.0579,-3.0582,-3.0406,-3.0323,-3.034,-3.0355,-3.0393,-3.0398,-3.0398,-3.0398,-3.0398,-3.0398,-3.0398,-3.0398,-3.0398,-3.0398,-3.0398,-3.0398,-3.0398,-3.0398,-3.0398,-3.0398,-3.0398,-3.0398,-3.0398,-3.0398,-3.0398,-3.0398,-3.0217,-2.9544,-2.9236,-2.8736,-2.7448,-2.7024,-2.664,-2.5774,-2.564,-2.562,-2.5418,-2.5395,-2.5421,-2.5429,-2.5456,-2.5448,-2.5321,-2.5293,-2.5274,-2.5239,-2.5087,-2.4968,-2.4929,-2.4832,-2.484,-2.4989,-2.5611,-2.6349,-2.7233,-2.811,-2.8835,-2.9388,-2.9407,-2.9407,-2.9407,-2.9407,-2.9407,-2.9407,-2.9407,-2.9407,-2.9407,-2.9407,-3.0318,-3.1782,-3.1782,-3.2748,-3.4197,-3.4197,-3.4197,-3.4197,-3.4197,-3.4197,-3.4197,-2.5601,-2.5601,-2.5601,-2.5601,-2.5593,-2.5629,-2.5698,-2.5701,-2.5703,-2.5703,-2.5703,-2.5703,-2.5703,-2.8418,-3.0247,-3.0236,-3.0574,-3.08,-3.0806,-3.0564,-3.0411,-3.0413,-3.0417,-3.0544,-3.0798,-3.0808,-3.076,-3.0662,-3.0687,-3.073,-3.0802,-3.0734,-3.0703,-3.0706,-3.0564,-3.0543,-3.0587,-3.0442,-3.0389,-3.0392,-3.0321,-3.0343,-3.0393,-3.0398,-3.0398,-3.0398,-3.0398,-3.0398,-3.0398,-3.0398,-3.0398,-3.0398,-3.0398,-3.0398,-3.0398,-3.0398,-3.0398,-3.0398,-3.0398,-3.0398,-3.0398,-3.0398,-3.0398,-3.0379,-3.0321,-2.9679,-2.9063,-2.8929,-2.8313,-2.7544,-2.6659,-2.6505,-2.6275,-2.5513,-2.5387,-2.5423,-2.5484,-2.5511,-2.5448,-2.5321,-2.5293,-2.5234,-2.5044,-2.5006,-2.4926,-2.4738,-2.4723,-2.5061,-2.5869,-2.5862,-2.6487,-2.7976,-2.8849,-2.9351,-2.9407,-2.9407,-2.9407,-2.9407,-2.9407,-2.9407,-2.9407,-2.9407,-2.9407,-2.9407,-2.9407,-3.0318,-3.1782,-3.1782,-3.2748,-3.4197,-3.4197,-3.4197,-3.4197,-3.4197,-3.4197,-3.4197,-2.5613,-2.5601,-2.5601,-2.5601,-2.5601,-2.5613,-2.5698,-2.57,-2.5703,-2.5703,-2.5703,-2.5703,-2.5703,-2.8635,-3.0598,-3.0598,-3.0652,-3.067,-3.0688,-3.0742,-3.0806,-3.0804,-3.081,-3.0799,-3.0799,-3.0799,-3.0799,-3.0799,-3.0799,-3.0804,-3.0808,-3.0779,-3.0755,-3.0755,-3.0672,-3.0625,-3.0591,-3.0462,-3.043,-3.0451,-3.0311,-3.0906,-3.1783,-3.0777,-3.1046,-3.1949,-3.1955,-3.2179,-3.2384,-3.1506,-3.1218,-3.1121,-3.0571,-3.0398,-3.0398,-3.0398,-3.0398,-3.0398,-3.0398,-3.0398,-3.0398,-3.0398,-3.0398,-3.0398,-3.0398,-3.014,-2.9756,-2.9198,-2.8852,-2.839,-2.7563,-2.6967,-2.6496,-2.6189,-2.5735,-2.5397,-2.5389,-2.5378,-2.5331,-2.5201,-2.5179,-2.5153,-2.507,-2.494,-2.4851,-2.4837,-2.5158,-2.5543,-2.5911,-2.6889,-2.7885,-2.8949,-2.9283,-2.945,-2.9407,-2.9407,-2.9407,-2.9407,-2.9407,-2.9407,-2.9407,-2.9407,-2.9407,-2.9407,-2.9407,-3.0318,-3.1782,-3.1686,-3.2563,-3.4023,-3.4023,-3.4023,-3.4023,-3.4148,-3.4197,-3.4197,-2.5634,-2.5623,-2.5636,-2.5636,-2.5636,-2.5644,-2.5694,-2.5697,-2.5702,-2.5703,-2.5703,-2.6113,-2.7207,-2.9283,-3.0598,-3.0598,-3.0598,-3.0598,-3.0598,-3.0737,-3.0799,-3.0799,-3.0799,-3.0799,-3.0799,-3.0799,-3.0799,-3.0799,-3.0799,-3.0799,-3.0799,-3.0789,-3.0793,-3.0804,-3.0759,-3.0703,-3.0652,-3.0552,-3.052,-3.053,-3.0848,-3.1699,-3.2598,-3.0994,-3.1552,-3.3198,-3.3583,-3.3635,-3.3365,-3.2391,-3.2083,-3.1968,-3.1371,-3.1006,-3.0814,-3.0814,-3.0609,-3.0398,-3.0398,-3.0398,-3.0398,-3.0398,-3.0398,-3.0398,-3.0398,-3.0398,-3.0237,-2.9632,-2.9517,-2.9256,-2.8459,-2.7804,-2.7294,-2.7054,-2.6323,-2.5774,-2.5716,-2.5457,-2.5254,-2.5106,-2.5101,-2.5088,-2.5076,-2.4945,-2.4998,-2.53,-2.5672,-2.6122,-2.6628,-2.8032,-2.9008,-2.9453,-2.9472,-2.9471,-2.9407,-2.9407,-2.9407,-2.9407,-2.9407,-2.9407,-2.9407,-2.9407,-2.9407,-2.9407,-2.9326,-3.0231,-3.1691,-3.1477,-3.2357,-3.3815,-3.3868,-3.3895,-3.3921,-3.4124,-3.4197,-3.4197,-2.5701,-2.571,-2.5707,-2.5707,-2.5707,-2.5707,-2.5707,-2.5707,-2.5694,-2.5703,-2.5723,-2.7051,-3.0527,-3.0714,-3.0598,-3.0598,-3.0598,-3.0598,-3.0598,-3.0711,-3.0799,-3.0799,-3.0799,-3.0799,-3.0799,-3.0799,-3.0799,-3.0799,-3.0799,-3.0799,-3.0799,-3.0799,-3.0808,-3.0798,-3.0808,-3.0789,-3.0806,-3.0808,-3.0672,-3.0637,-3.2133,-3.273,-3.2562,-3.1024,-3.1795,-3.3865,-3.5078,-3.4385,-3.291,-3.291,-3.291,-3.291,-3.2891,-3.2352,-3.1718,-3.1698,-3.1102,-3.0398,-3.0398,-3.0398,-3.0398,-3.0398,-3.0398,-3.0398,-3.0398,-3.0398,-3.039,-3.0406,-3.0402,-3.016,-2.9366,-2.9143,-2.8844,-2.8037,-2.7219,-2.668,-2.6611,-2.5852,-2.5254,-2.5125,-2.5101,-2.5063,-2.501,-2.501,-2.5351,-2.6148,-2.6155,-2.6766,-2.8222,-2.9177,-2.9588,-2.9407,-2.9451,-2.9471,-2.9407,-2.9407,-2.9407,-2.9407,-2.9407,-2.9407,-2.9407,-2.9407,-2.9407,-2.9386,-2.9197,-3.0028,-3.1495,-3.1294,-3.2165,-3.3633,-3.3815,-3.3895,-3.3921,-3.4124,-3.4197,-3.4173,-2.5701,-2.571,-2.5707,-2.5707,-2.5707,-2.5707,-2.5707,-2.5707,-2.5709,-2.5694,-2.7831,-2.9746,-3.0781,-3.085,-3.0808,-3.0819,-3.0675,-3.0598,-3.0598,-3.0632,-3.071,-3.0799,-3.0799,-3.0799,-3.0799,-3.0799,-3.0799,-3.0799,-3.0799,-3.0799,-3.0799,-3.0799,-3.0745,-3.0652,-3.0769,-3.0759,-3.0672,-3.0764,-3.0764,-3.0937,-3.3448,-3.4448,-3.4391,-3.3952,-3.4209,-3.4875,-3.5278,-3.5133,-3.4641,-3.4026,-3.3814,-3.3699,-3.3083,-3.2737,-3.2429,-3.1872,-3.1525,-3.1179,-3.0571,-3.0398,-3.0398,-3.0398,-3.0398,-3.0398,-3.0398,-3.0398,-3.041,-3.0402,-3.039,-3.0333,-3.0094,-2.9536,-2.9017,-2.8786,-2.7953,-2.7129,-2.6539,-2.6154,-2.5717,-2.5088,-2.5031,-2.5018,-2.501,-2.5522,-2.5939,-2.6186,-2.7132,-2.8108,-2.9021,-2.9241,-2.931,-2.9197,-2.9123,-2.9056,-2.898,-2.9262,-2.9407,-2.9407,-2.9407,-2.9407,-2.9407,-2.9262,-2.9197,-2.9193,-2.9557,-3.0325,-3.1331,-3.1637,-3.2386,-3.3339,-3.3587,-3.3569,-3.3455,-3.3868,-3.3895,-3.378,-2.5698,-2.5709,-2.5707,-2.5707,-2.5707,-2.5707,-2.5707,-2.5707,-2.5707,-2.5707,-2.8704,-3.0877,-3.0898,-3.0898,-3.0891,-3.09,-3.0723,-3.0598,-3.0598,-3.0598,-3.0651,-3.0723,-3.0761,-3.0808,-3.0799,-3.0799,-3.0799,-3.0799,-3.0799,-3.0799,-3.0799,-3.1266,-3.1409,-3.127,-3.129,-3.151,-3.1865,-3.2348,-3.2551,-3.2706,-3.4486,-3.5209,-3.5209,-3.5209,-3.5226,-3.5273,-3.5373,-3.5432,-3.5383,-3.4891,-3.4718,-3.4622,-3.4083,-3.3699,-3.3314,-3.2833,-3.2218,-3.1583,-3.1064,-3.066,-3.0398,-3.0398,-3.0398,-3.0398,-3.0398,-3.0398,-3.041,-3.0402,-3.039,-3.0379,-3.0343,-2.9901,-2.9543,-2.943,-2.8651,-2.7872,-2.7314,-2.6911,-2.6375,-2.5542,-2.5759,-2.5863,-2.5522,-2.6242,-2.6854,-2.7131,-2.8197,-2.8969,-2.9291,-2.9249,-2.9141,-2.8998,-2.8925,-2.8879,-2.8797,-2.9026,-2.9156,-2.9156,-2.9156,-2.9156,-2.9156,-2.9044,-2.8998,-2.9012,-2.9617,-3.0321,-3.1093,-3.1665,-3.2367,-3.3117,-3.3357,-3.3339,-3.325,-3.3625,-3.3698,-3.3587,-2.5707,-2.5703,-2.5691,-2.5707,-2.5707,-2.5707,-2.5707,-2.5707,-2.5805,-2.6119,-2.8884,-3.0838,-3.0875,-3.0856,-3.0856,-3.0876,-3.0716,-3.0598,-3.0598,-3.0598,-3.0598,-3.0607,-3.0727,-3.0775,-3.0774,-3.0799,-3.0794,-3.0789,-3.0789,-3.0789,-3.0818,-3.1835,-3.2338,-3.2391,-3.2248,-3.2697,-3.3692,-3.4753,-3.5209,-3.5209,-3.5209,-3.5209,-3.5226,-3.5207,-3.5226,-3.5242,-3.5362,-3.5403,-3.5412,-3.5493,-3.5493,-3.5493,-3.5493,-3.4968,-3.4295,-3.4218,-3.3122,-3.1891,-3.1737,-3.1121,-3.0494,-3.0417,-3.0398,-3.0398,-3.0398,-3.0398,-3.039,-3.0406,-3.0402,-3.0355,-3.0228,-3.0247,-3.0207,-2.995,-2.9338,-2.8806,-2.8542,-2.791,-2.715,-2.6302,-2.6964,-2.7176,-2.6394,-2.7081,-2.7888,-2.864,-2.9177,-2.9394,-2.9188,-2.9166,-2.9034,-2.8773,-2.8808,-2.8808,-2.8767,-2.8767,-2.8749,-2.8797,-2.8797,-2.8797,-2.8797,-2.8773,-2.8773,-2.8804,-2.9492,-3.0161,-3.0836,-3.153,-3.2224,-3.2916,-3.3129,-3.319,-3.319,-3.3473,-3.353,-3.3502,-2.5707,-2.5694,-2.5702,-2.5693,-2.5707,-2.5707,-2.5707,-2.5707,-2.6688,-2.9413,-3.0429,-3.0816,-3.0676,-3.0574,-3.0537,-3.0668,-3.0623,-3.0598,-3.0598,-3.0598,-3.0597,-3.061,-3.0632,-3.0637,-3.0633,-3.0739,-3.0755,-3.064,-3.064,-3.0703,-3.0799,-3.0733,-3.1574,-3.3153,-3.2909,-3.2851,-3.3034,-3.4557,-3.5209,-3.5209,-3.5209,-3.5289,-3.5432,-3.532,-3.5335,-3.5432,-3.5417,-3.5432,-3.5493,-3.5493,-3.5493,-3.5493,-3.5493,-3.5372,-3.5084,-3.4391,-3.393,-3.3372,-3.2064,-3.1564,-3.1256,-3.0571,-3.0398,-3.0398,-3.0398,-3.0398,-3.041,-3.039,-3.041,-3.0343,-3.0169,-3.0215,-3.0221,-3.0007,-2.9769,-2.9366,-2.8736,-2.8325,-2.7844,-2.7116,-2.7223,-2.7308,-2.7233,-2.791,-2.8659,-2.94,-2.9341,-2.9228,-2.9134,-2.8821,-2.8644,-2.8569,-2.8414,-2.8335,-2.8327,-2.8327,-2.8492,-2.8797,-2.8797,-2.8797,-2.8797,-2.8644,-2.8569,-2.8616,-2.9825,-3.0409,-3.0659,-3.2076,-3.2755,-3.2916,-3.3129,-3.3099,-3.2993,-3.3208,-3.3208,-3.3024,-2.5492,-2.5582,-2.5694,-2.5703,-2.5584,-2.6048,-2.7686,-2.7938,-2.8599,-3.0417,-3.0731,-3.0714,-3.0617,-3.0549,-3.0519,-3.0588,-3.0598,-3.0598,-3.0598,-3.0393,-3.0372,-3.0588,-3.0518,-3.0402,-3.0269,-3.112,-3.1177,-3.0402,-3.0311,-3.029,-3.0393,-3.1889,-3.3185,-3.4253,-3.421,-3.4083,-3.3949,-3.4827,-3.5124,-3.5019,-3.5141,-3.5258,-3.5354,-3.5289,-3.532,-3.5403,-3.5364,-3.535,-3.5339,-3.5242,-3.5209,-3.5209,-3.5209,-3.5209,-3.5146,-3.4783,-3.4376,-3.3887,-3.3109,-3.2314,-3.1583,-3.1141,-3.0717,-3.0398,-3.0398,-3.0398,-3.0367,-3.0286,-3.0254,-3.0169,-2.9912,-2.9996,-3.003,-2.9803,-2.977,-2.9657,-2.924,-2.9062,-2.8708,-2.8001,-2.8263,-2.8539,-2.8654,-2.8938,-2.9231,-2.9551,-2.931,-2.9052,-2.8834,-2.8619,-2.8458,-2.8353,-2.8264,-2.8182,-2.8182,-2.8182,-2.8318,-2.8518,-2.8518,-2.8518,-2.8518,-2.844,-2.838,-2.8425,-2.9651,-3.0183,-3.0315,-3.2135,-3.2916,-3.2916,-3.3024,-3.2993,-3.2916,-3.3024,-3.2993,-3.2916,-2.5346,-2.5454,-2.5605,-2.5605,-2.5912,-2.7108,-2.9956,-3.0398,-3.0398,-3.0398,-3.0488,-3.0579,-3.0598,-3.0598,-3.0598,-3.0598,-3.0598,-3.0569,-3.0482,-3.0167,-3.0132,-3.0521,-3.0548,-3.0459,-3.0234,-3.1651,-3.1809,-3.061,-3.0709,-3.0774,-3.0883,-3.3794,-3.5141,-3.5157,-3.5355,-3.536,-3.5209,-3.5209,-3.5054,-3.4831,-3.5,-3.5088,-3.5088,-3.507,-3.5124,-3.5207,-3.5203,-3.5207,-3.5141,-3.4945,-3.487,-3.487,-3.4889,-3.4908,-3.4926,-3.5107,-3.4645,-3.4066,-3.4088,-3.3081,-3.1968,-3.1661,-3.1047,-3.049,-3.0356,-3.0343,-3.0299,-3.0136,-3.0095,-2.9958,-2.9644,-2.9751,-2.9822,-2.957,-2.9682,-2.9773,-2.9719,-2.9683,-2.942,-2.8815,-2.9341,-2.9771,-2.9787,-2.9701,-2.955,-2.9332,-2.9115,-2.8839,-2.8518,-2.8484,-2.838,-2.8227,-2.8182,-2.8182,-2.8182,-2.8182,-2.8182,-2.8182,-2.8182,-2.8182,-2.8209,-2.8264,-2.8246,-2.8263,-2.94,-2.9866,-2.9976,-3.2028,-3.2916,-3.2916,-3.2916,-3.2916,-3.2916,-3.2916,-3.2916,-3.2916,-2.5639,-2.5434,-2.5274,-2.5274,-2.7647,-2.9736,-3.0309,-3.0398,-3.0398,-3.0398,-3.0421,-3.0466,-3.0588,-3.0598,-3.0598,-3.0598,-3.0598,-3.0423,-3.0023,-3.0152,-3.0254,-3.0248,-3.1117,-3.1588,-3.1537,-3.211,-3.2352,-3.2276,-3.3597,-3.4317,-3.4489,-3.481,-3.4945,-3.4964,-3.5157,-3.5242,-3.5209,-3.5209,-3.5054,-3.4791,-3.4653,-3.4634,-3.4674,-3.4551,-3.4653,-3.487,-3.487,-3.4982,-3.5072,-3.4812,-3.473,-3.4751,-3.4851,-3.4908,-3.4908,-3.4926,-3.4851,-3.4604,-3.3882,-3.3521,-3.3009,-3.1545,-3.1089,-3.0823,-3.0136,-3.0071,-3.0136,-3.0109,-3.0007,-2.9869,-2.9644,-2.9751,-2.9857,-2.9701,-2.9737,-2.9808,-2.979,-2.9645,-2.9474,-2.9303,-2.9438,-2.9475,-2.9295,-2.9373,-2.9312,-2.8997,-2.8731,-2.8543,-2.8492,-2.8345,-2.8237,-2.8182,-2.8182,-2.8182,-2.8182,-2.8182,-2.8182,-2.8182,-2.8182,-2.8182,-2.8182,-2.8209,-2.8209,-2.8253,-2.9333,-2.9815,-2.9976,-3.2028,-3.2916,-3.2916,-3.2916,-3.2916,-3.2916,-3.2916,-3.2916,-3.2916,-2.5703,-2.557,-2.6033,-2.78,-2.9327,-3.0318,-3.0398,-3.0398,-3.0398,-3.0398,-3.0398,-3.0421,-3.0477,-3.0559,-3.049,-3.0228,-3.0215,-3.0117,-2.9908,-3.0003,-3.0109,-3.0199,-3.102,-3.1531,-3.1689,-3.2621,-3.3085,-3.2997,-3.4264,-3.5001,-3.5209,-3.5107,-3.5072,-3.5072,-3.5157,-3.5209,-3.5209,-3.5209,-3.4945,-3.4524,-3.4416,-3.4394,-3.4371,-3.4439,-3.4591,-3.4753,-3.4752,-3.4792,-3.4831,-3.452,-3.4431,-3.4431,-3.448,-3.4502,-3.4524,-3.4689,-3.473,-3.4656,-3.4396,-3.398,-3.3317,-3.2104,-3.146,-3.089,-3.0092,-2.9851,-2.9815,-2.9815,-2.9767,-2.9681,-2.9512,-2.9645,-2.9737,-2.9608,-2.9736,-2.9823,-2.9737,-2.957,-2.9353,-2.9148,-2.9254,-2.9357,-2.9377,-2.9254,-2.9126,-2.902,-2.8682,-2.8458,-2.8327,-2.8237,-2.8182,-2.8182,-2.8182,-2.8182,-2.8182,-2.8182,-2.8182,-2.8182,-2.8182,-2.8182,-2.8182,-2.8237,-2.8237,-2.8253,-2.9372,-3.0159,-3.0761,-3.2259,-3.2916,-3.2916,-3.2916,-3.2916,-3.2916,-3.2916,-3.2916,-3.2916]}]]